     2              OBSERVATION DATA    GPS                 RINEX VERSION / TYPE
teqc 1999Jul19 20000201 02:05:02UTC                         PGM / RUN BY / DATE
                                                            COMMENT
L2: 1 -> 1; 5 -> 5; 60 -> 9                                 COMMENT
L2: 1 -> 1; 5 -> 5; 60 -> 9                                 COMMENT
L2: 1 -> 1; 5 -> 5; 60 -> 9                                 COMMENT
L2: 1 -> 1; 5 -> 5; 60 -> 9                                 COMMENT
L2: 1 -> 1; 5 -> 5; 60 -> 9                                 COMMENT
Original Marker Name: 0032                                  COMMENT
Campaign Name: Imperial Valley Leveling                     COMMENT
4-Character Station Name: 0032                              COMMENT
6-Character Antenna Code: TRMSST                            COMMENT
Vertical Measurement Point: BPA                             COMMENT
Vertical Offset to Rinex Ref. Point: 0.0000                 COMMENT
Radial Measurement Point: RRP                               COMMENT
Radial Offset to Rinex Ref. Point: 0.0000                   COMMENT
Antenna Height from Field Measurement: 1.8890 m             COMMENT
Additional Antenna Identification Info.:                    COMMENT
Model 14532.00                                              COMMENT
Original XYZ: -2307983.8390 -4832614.2584 3452272.5252      COMMENT
New XYZ position is based on association with SCEC monument COMMENT
E1C8Y6M2+0011. Position of that monument is believed to be  COMMENT
valid to within 1 m horizontally; vertical accuracy         COMMENT
should be no worse than 3-times this value.                 COMMENT
                                                            COMMENT
Revised Rinex header created by UCSD GPS archive for        COMMENT
GSAC on 17-Jul-2000 (2000:199) 21:59:40 GMT                 COMMENT
For assistance contact dagnew@ucsd.edu                      COMMENT
or anderson@python.ucsd.edu                                 COMMENT
                                                            COMMENT
V 1225                                                      MARKER NAME
0032                                                        MARKER NUMBER
-Unknown- CALIF DEPT TRANSPORTATION                         OBSERVER / AGENCY
1531 TRIMBLE 4000 SSE NP 5.71; SP 1.26                      REC # / TYPE / VERS
503750 TR 4000SST L1/L2 GEO                                 ANT # / TYPE
 -2307998.5765 -4832629.8880  3452281.4741                  APPROX POSITION XYZ
        1.8890        0.0000        0.0000                  ANTENNA: DELTA H/E/N
     1     1     0                                          WAVELENGTH FACT L1/2
     7    C1    L1    L2    P1    P2    S1    S2            # / TYPES OF OBSERV
     0                                                      INTERVAL
  1995     4    24    19     0   45.000000                  TIME OF FIRST OBS
  1995     4    24    22     0    0.000000                  TIME OF LAST OBS
                                                            END OF HEADER
 95  4 24 19  0 45.0000000  0  6G 2G 7G19G15G26G27
                    -26297.84016    -20836.42516  21063666.805    21063669.359
        19.750          21.750
                    -45458.02516    -37192.43416  20871676.305    20871679.191
        17.000          23.750
                      4234.23416      4950.02116  22318201.547    22318204.699
        13.500          14.000
                    -49733.35415    -44106.90615  23633855.688    23633858.250
         7.750           9.000
                     -4681.51614     -5471.88815  23717481.906    23717484.660
         6.500           7.000
                      1069.02616                                  23717484.168
        21.250
 95  4 24 19  1  0.0000000  0  6G 2G 7G19G15G26G27
                    -33551.791 6    -26488.841 6  21062286.469    21062289.016
        19.750          21.750
                    -79492.689 6    -63712.929 6  20865199.688    20865202.723
        17.000          24.000
                     36029.167 6     29725.287 6  22324251.969    22324255.055
        13.500          13.750
                    -64609.044 5    -55698.335 5  23631024.680    23631028.102
         7.500           9.500
                    -39762.345 4    -32807.584 5  23710806.242    23710808.840
         6.500           7.250
                      5080.045 6      6458.260 6  20265417.711    20265420.078
        18.500          21.250
 95  4 24 19  1 15.0000000  0  6G 2G 7G19G15G26G27
                    -40778.428 6    -32119.976 6  21060911.336    21060913.547
        19.750          21.750
                   -113421.001 6    -90150.554 6  20858743.320    20858746.473
        17.000          24.000
                     67899.496 6     54559.299 6  22330316.648    22330319.762
        13.250          13.500
                    -79356.574 4    -67189.907 5  23628218.039    23628221.984
         7.250           9.750
                    -74735.238 4    -60059.168 5  23704150.773    23704154.043
         6.500           7.250
                     12117.456 6     11941.961 6  20266756.859    20266759.195
        18.250          21.000
 95  4 24 19  1 30.0000000  0  6G 2G 7G19G15G26G27
                    -47932.042 6    -37694.211 6  21059550.016    21059552.137
        19.750          21.500
                   -147194.908 6   -116467.864 6  20852316.375    20852319.715
        17.000          24.250
                     99890.365 6     79487.244 6  22336404.344    22336407.277
        13.250          13.500
                    -93931.861 4    -78547.254 5  23625444.391    23625448.238
         7.000           9.750
                   -109558.797 4    -87194.386 5  23697524.273    23697527.449
         6.500           7.250
                     19320.018 6     17554.349 6  20268127.391    20268129.715
        18.500          21.000
 95  4 24 19  1 45.0000000  0  6G 2G 7G19G15G26G27
                    -54989.133 6    -43193.233 6  21058207.031    21058209.199
        19.750          21.500
                   -180790.295 6   -142646.068 6  20845923.477    20845926.742
        17.000          24.250
                    132020.731 6    104523.882 6  22342518.508    22342521.883
        13.250          13.500
                   -108313.217 4    -89753.500 5  23622708.164    23622711.484
         7.250          10.000
                   -144209.514 4   -114194.933 5  23690930.586    23690933.004
         6.750           7.000
                     26709.100 6     23312.079 6  20269533.453    20269535.773
        18.250          21.000
 95  4 24 19  2  0.0000000  0  6G 2G 7G19G15G26G27
                    -61903.251 6    -48580.849 6  21056891.289    21056893.594
        19.750          21.500
                   -214162.965 6   -168650.732 6  20839572.789    20839575.973
        17.000          24.250
                    164331.894 6    129701.397 6  22348667.320    22348670.488
        13.250          13.750
                   -122458.230 5   -100775.565 5  23620016.148    23620020.426
         7.500          10.500
                   -178646.674 4   -141029.071 5  23684377.461    23684379.742
         6.750           7.250
                     34324.822 6     29246.409 6  20270982.680    20270985.039
        18.250          21.000
 95  4 24 19  2 15.0000000  0  6G 2G 7G19G15G26G27
                    -68683.517 6    -53864.166 6  21055600.961    21055603.309
        19.750          21.500
                   -247324.847 6   -194491.141 6  20833262.422    20833265.324
        17.000          24.000
                    196809.183 6    155008.361 6  22354847.523    22354850.434
        13.250          13.750
                   -136379.945 5   -111623.651 5  23617367.281    23617370.645
         7.750          10.000
                   -212885.424 4   -167708.607 5  23677861.961    23677864.000
         7.000           7.250
                     42155.266 6     35348.053 6  20272472.711    20272475.102
        18.500          21.000
 95  4 24 19  2 30.0000000  0  6G 2G 7G19G15G26G27
                    -75309.122 6    -59026.966 6  21054340.234    21054342.734
        19.500          21.500
                   -280256.844 6   -220152.422 6  20826995.734    20826998.504
        17.000          24.000
                    229470.358 6    180458.610 6  22361062.617    22361065.781
        13.000          14.000
                   -150059.895 5   -122283.347 5  23614764.000    23614767.496
         7.750          10.000
                   -246905.760 4   -194217.941 5  23671387.945    23671390.180
         7.000           7.000
                     50218.155 6     41630.820 6  20274007.078    20274009.426
        18.500          20.750
 95  4 24 19  2 45.0000000  0  6G 2G 7G19G15G26G27
                    -81774.562 6    -64064.967 6  21053109.953    21053112.371
        19.500          21.750
                   -312952.829 6   -245629.797 6  20820773.789    20820776.797
        17.000          24.000
                    262320.797 6    206056.335 6  22367313.602    22367317.027
        12.750          14.250
                   -163492.667 5   -132750.436 5  23612207.969    23612211.137
         7.750          10.000
                   -280703.923 4   -220554.159 5  23664956.617    23664958.863
         7.250           7.250
                     58519.105 6     48099.093 6  20275586.766    20275589.023
        18.500          20.750
 95  4 24 19  3  0.0000000  0  6G 2G 7G19G15G26G27
                    -88074.437 6    -68973.956 6  21051910.938    21051913.418
        19.500          21.500
                   -345410.262 6   -270921.286 6  20814597.383    20814600.238
        17.250          24.000
                    295367.335 6    231806.866 6  22373602.445    22373605.871
        12.750          14.250
                   -176674.110 5   -143021.690 5  23609699.508    23609702.762
         7.750          10.000
                   -314276.257 4   -246714.422 5  23658568.203    23658570.594
         7.250           7.500
                     67062.918 6     54756.606 6  20277212.672    20277214.762
        18.750          20.750
 95  4 24 19  3 15.0000000  0  6G 2G 7G19G15G26G27
                    -94205.403 6    -73751.325 6  21050744.180    21050746.594
        19.500          21.500
                   -377626.769 6   -296025.044 6  20808466.852    20808469.652
        17.000          24.000
                    328612.142 6    257711.888 6  22379928.648    22379931.930
        12.750          14.000
                   -189601.434 5   -153094.921 5  23607239.844    23607242.973
         7.750          10.000
                   -347617.458 5   -272694.563 5  23652223.484    23652225.957
         7.500           7.500
                     75849.582 6     61603.355 6  20278884.758    20278886.863
        18.750          20.750
 95  4 24 19  3 30.0000000  0  6G 2G 7G19G15G26G27
                   -100162.863 6    -78393.491 6  21049610.539    21049613.059
        19.250          21.500
                   -409599.157 6   -320938.575 6  20802382.805    20802385.488
        17.250          23.750
                    362058.780 6    283774.186 6  22386293.195    22386296.754
        12.500          13.750
                   -202272.015 5   -162968.099 5  23604828.328    23604832.055
         7.750          10.000
                   -380721.588 4   -298489.989 5  23645923.609    23645926.313
         7.250           7.500
                     84882.224 6     68641.775 6  20280603.516    20280605.621
        18.750          20.750
 95  4 24 19  3 45.0000000  0  6G 2G 7G19G15G26G27
                   -105951.818 6    -82904.363 6  21048508.992    21048511.352
        19.250          21.250
                   -441336.093 6   -345668.642 6  20796343.430    20796346.176
        17.000          23.750
                    395701.967 6    309989.636 6  22392695.703    22392698.395
        13.000          13.500
                   -214688.814 5   -172643.515 5  23602465.570    23602468.746
         7.500          10.000
                   -413587.158 5   -324099.500 5  23639669.969    23639672.434
         7.500           7.750
                     94159.177 6     75870.567 6  20282369.000    20282371.207
        18.750          21.000
 95  4 24 19  4  0.0000000  0  6G 2G 7G19G15G26G27
                   -111570.245 6    -87282.353 6  21047439.891    21047442.164
        19.500          21.500
                   -472837.488 6   -370215.168 6  20790348.813    20790351.621
        17.000          23.750
                    429544.489 6    336360.414 6  22399135.828    22399138.801
        13.000          13.500
                   -226848.969 5   -182118.958 5  23600151.633    23600154.742
         7.500          10.000
                   -446211.745 5   -349521.247 5  23633461.445    23633464.266
         7.750           8.000
                    103682.373 6     83291.238 6  20284181.242    20284183.512
        18.750          21.250
 95  4 24 19  4 15.0000000  0  6G 2G 7G19G15G26G27
                   -117018.605 6    -91527.821 6  21046403.172    21046405.422
        19.500          21.500
                   -504101.958 6   -394577.073 6  20784399.297    20784402.164
        17.000          23.750
                    463588.043 6    362887.844 6  22405614.172    22405616.996
        13.250          13.250
                   -238751.769 5   -191393.869 5  23597886.313    23597889.926
         7.500          10.000
                   -478596.704 5   -374756.268 5  23627298.805    23627301.539
         7.500           8.000
                    113451.216 6     90903.322 6  20286040.180    20286042.426
        18.750          21.250
 95  4 24 19  4 30.0000000  0  6G 2G 7G19G15G26G27
                   -122302.337 6    -95645.009 6  21045397.875    21045400.113
        19.500          21.500
                   -535132.137 6   -418756.420 6  20778494.438    20778497.273
        17.000          23.500
                    497831.734 6    389571.222 6  22412130.398    22412133.078
        13.000          12.750
                   -250399.910 4   -200470.332 5  23595669.836    23595673.133
         7.250           9.750
                   -510741.144 5   -399803.879 5  23621182.086    23621184.980
         8.000           8.250
                    123463.997 6     98705.485 6  20287945.656    20287947.879
        18.750          21.250
 95  4 24 19  4 45.0000000  0  6G 2G 7G19G15G26G27
                   -127423.343 6    -99635.397 6  21044423.414    21044425.668
        19.500          21.500
                   -565925.133 6   -442750.949 6  20772634.750    20772637.641
        16.750          23.750
                    532279.726 6    416413.797 6  22418685.555    22418688.414
        13.000          12.750
                   -261791.943 5   -209347.240 5  23593502.023    23593505.305
         7.500           9.750
                   -542642.679 5   -424662.200 5  23615111.781    23615114.578
         8.250           8.500
                    133719.477 6    106696.765 6  20289896.930    20289899.344
        18.500          21.250
 95  4 24 19  5  0.0000000  0  6G 2G 7G19G15G26G27
                   -132388.707 6   -103504.510 6  21043478.367    21043480.789
        19.500          21.500
                   -596482.273 6   -466561.690 6  20766819.805    20766822.625
        16.750          23.500
                    566927.778 6    443412.261 6  22425278.844    22425282.074
        12.750          12.500
                   -272931.601 5   -218027.485 5  23591382.406    23591385.641
         7.750          10.000
                   -574305.208 5   -449334.296 5  23609086.602    23609089.199
         8.500           8.500
                    144213.093 6    114873.603 6  20291893.797    20291896.313
        18.500          21.500
 95  4 24 19  5 15.0000000  0  6G 2G 7G19G15G26G27
                   -137197.465 6   -107251.586 6  21042563.242    21042565.738
        19.500          21.500
                   -626801.483 6   -490187.030 6  20761050.008    20761052.930
        16.500          23.250
                    601774.666 6    470565.668 6  22431910.352    22431912.668
        13.000          12.500
                   -283819.399 5   -226511.475 5  23589310.320    23589313.395
         7.500           9.750
                   -605727.425 5   -473819.129 5  23603107.109    23603109.215
         8.250           8.500
                    154944.376 6    123235.641 6  20293935.906    20293938.406
        18.500          21.250
 95  4 24 19  5 30.0000000  0  6G 2G 7G19G15G26G27
                   -141850.511 6   -110877.339 6  21041677.742    21041680.281
        19.250          21.500
                   -656881.974 6   -513626.362 6  20755325.813    20755328.695
        16.500          23.250
                    636816.968 6    497871.338 6  22438578.586    22438581.473
        13.000          12.750
                   -294456.943 5   -234800.465 5  23587286.125    23587289.293
         7.500          10.000
                   -636911.572 5   -498118.459 5  23597172.664    23597175.348
         8.250           8.750
                    165911.381 6    131781.347 6  20296023.063    20296025.391
        18.750          21.500
 95  4 24 19  5 45.0000000  0  6G 2G 7G19G15G26G27
                   -146350.461 6   -114383.788 6  21040821.430    21040823.867
        19.500          21.500
                   -686730.104 6   -536884.634 6  20749645.969    20749648.820
        16.500          23.250
                    672049.118 6    525324.941 6  22445282.750    22445285.754
        12.750          12.750
                   -304848.677 5   -242897.911 5  23585308.547    23585312.074
         7.500          10.250
                   -667862.351 5   -522235.940 5  23591282.617    23591285.387
         8.250           9.000
                    177111.083 6    140508.383 6  20298154.266    20298156.555
        18.750          21.500
 95  4 24 19  6  0.0000000  0  6G 2G 7G19G15G26G27
                   -150704.777 6   -117776.759 6  21039992.859    21039995.297
        19.500          21.250
                   -716351.659 6   -559966.353 6  20744009.320    20744012.098
        16.500          23.250
                    707464.854 6    552921.599 6  22452022.109    22452025.160
        12.750          12.500
                   -314999.955 4   -250807.996 5  23583376.391    23583380.355
         7.250          10.250
                   -698587.770 5   -546177.816 5  23585436.039    23585438.766
         8.500           9.250
                    188534.400 6    149409.667 6  20300328.070    20300330.297
        18.750          21.250
 95  4 24 19  6 15.0000000  0  6G 2G 7G19G15G26G27
                   -154918.991 6   -121060.555 6  21039190.930    21039193.449
        19.250          21.500
                   -745749.489 6   -582873.737 6  20738415.195    20738418.000
        16.500          23.250
                    743059.899 6    580657.985 6  22458795.484    22458798.883
        12.750          12.750
                   -324916.310 5   -258535.016 5  23581490.148    23581492.828
         7.750          10.000
                   -729095.598 5   -569950.144 5  23579630.539    23579633.656
         8.500           9.250
                    200172.397 6    158478.232 6  20302542.688    20302545.000
        18.750          21.500
 95  4 24 19  6 30.0000000  0  6G 2G 7G19G15G26G27
                   -158997.140 6   -124238.333 6  21038414.945    21038417.352
        19.500          21.250
                   -774930.308 6   -605612.027 6  20732862.281    20732865.121
        16.500          23.250
                    778829.912 6    608530.708 6  22465602.547    22465605.723
        12.750          13.000
                   -334602.678 5   -266082.833 5  23579646.852    23579650.121
         8.000          10.250
                   -759389.317 5   -593555.631 5  23573865.844    23573868.586
         8.500           9.250
                    212020.404 6    167710.444 6  20304797.148    20304799.555
        18.750          21.500
 95  4 24 19  6 45.0000000  0  6G 2G 7G19G15G26G27
                   -162947.656 6   -127316.654 6  21037663.281    21037665.535
        19.500          21.250
                   -803904.386 6   -628189.219 6  20727348.695    20727351.602
        16.500          23.250
                    814765.848 6    636532.708 6  22472441.219    22472444.398
        12.750          13.250
                   -344067.360 5   -273457.903 5  23577845.398    23577848.988
         7.500          10.500
                   -789476.538 5   -617000.212 5  23568140.578    23568143.172
         8.750           9.250
                    224069.776 6    177099.560 6  20307090.141    20307092.586
        18.500          21.500
 95  4 24 19  7  0.0000000  0  6G 2G 7G19G15G26G27
                   -166772.105 6   -130296.744 6  21036935.617    21036937.844
        19.500          21.500
                   -832676.224 6   -650608.822 6  20721873.523    20721876.602
        16.250          23.250
                    850862.130 6    664659.661 6  22479310.281    22479313.660
        12.750          13.500
                   -353311.416 5   -280661.063 5  23576086.609    23576090.020
         8.000          10.500
                   -819362.542 5   -640288.002 5  23562453.078    23562455.832
         8.500           9.500
                    236316.900 6    186642.768 6  20309420.625    20309423.262
        18.500          21.500
 95  4 24 19  7 15.0000000  0  6G 2G 7G19G15G26G27
                   -170472.777 6   -133180.378 6  21036231.438    21036233.613
        19.500          21.500
                   -861252.486 6   -672876.028 6  20716435.891    20716438.770
        16.500          23.250
                    887108.282 6    692903.391 6  22486207.211    22486210.746
        12.500          13.250
                   -362340.359 5   -287696.600 5  23574368.758    23574371.883
         8.000          10.500
                   -849053.990 5   -663424.183 5  23556802.828    23556805.676
         8.500           9.500
                    248759.792 6    196338.522 6  20311788.531    20311791.012
        18.500          21.500
 95  4 24 19  7 30.0000000  0  6G 2G 7G19G15G26G27
                   -174052.738 6   -135969.955 6  21035550.203    21035552.488
        19.500          21.500
                   -889640.496 6   -694996.543 6  20711033.781    20711036.594
        16.500          23.000
                    923499.599 6    721260.236 6  22493132.125    22493135.805
        12.000          13.250
                   -371159.354 5   -294568.538 5  23572690.055    23572693.781
         8.000          10.500
                   -878559.380 5   -686415.387 5  23551188.234    23551191.309
         8.500           9.750
                    261394.503 6    206183.750 6  20314192.883    20314195.324
        18.750          21.500
 95  4 24 19  7 45.0000000  0  6G 2G 7G19G15G26G27
                   -177519.858 6   -138671.602 6  21034890.219    21034892.648
        19.250          21.500
                   -917848.646 6   -716976.904 6  20705665.828    20705668.738
        16.500          23.250
                    960029.235 6    749724.869 6  22500084.016    22500087.496
        12.250          13.500
                   -379774.762 5   -301281.841 5  23571050.875    23571054.258
         8.000          10.250
                   -907887.099 5   -709268.144 5  23545607.500    23545610.398
         8.750           9.750
                    274214.420 6    216173.291 6  20316632.750    20316634.969
        18.750          21.250
 95  4 24 19  8  0.0000000  0  6G 2G 7G19G15G26G27
                   -180880.459 6   -141290.251 6  21034250.680    21034253.219
        19.250          21.750
                   -945880.527 6   -738819.921 6  20700331.586    20700334.477
        16.500          23.250
                    996693.762 6    778294.601 6  22507061.289    22507064.168
        12.250          13.500
                   -388190.260 5   -307839.368 5  23569449.695    23569452.922
         8.250          10.000
                   -937043.001 5   -731987.029 5  23540059.594    23540061.973
         9.000           9.750
                    287215.490 6    226303.993 6  20319106.688    20319108.918
        19.000          21.500
 95  4 24 19  8 15.0000000  0  6G 2G 7G19G15G26G27
                   -184141.196 6   -143831.084 6  21033630.070    21033632.613
        19.500          21.500
                   -973737.887 6   -760526.944 6  20695030.508    20695033.363
        16.750          23.250
                   1033491.882 6    806968.435 6  22514063.172    22514066.969
        12.000          13.500
                   -396409.385 5   -314243.870 5  23567885.242    23567888.590
         8.000          10.000
                   -966031.114 5   -754575.163 5  23534543.398    23534545.824
         9.250           9.750
                    300396.585 6    236574.974 6  20321614.883    20321617.176
        19.000          21.500
 95  4 24 19  8 30.0000000  0  6G 2G 7G19G15G26G27
                   -187301.038 6   -146293.294 6  21033028.906    21033031.320
        19.500          21.500
                  -1001421.443 6   -782098.534 6  20689762.703    20689765.340
        16.750          23.000
                   1070421.670 6    835744.872 6  22521090.547    22521094.063
        12.000          13.250
                   -404433.472 5   -320496.393 5  23566358.125    23566361.539
         8.000          10.000
                   -994849.241 5   -777030.840 5  23529059.805    23529062.008
         9.250           9.750
                    313761.943 6    246989.533 6  20324158.266    20324160.559
        18.750          21.250
 95  4 24 19  8 45.0000000  0  6G 2G 7G19G15G26G27
                   -190365.888 6   -148681.488 6  21032445.672    21032448.148
        19.250          21.500
                  -1028935.125 6   -803537.758 6  20684527.133    20684529.516
        17.000          22.750
                   1107478.001 6    864619.909 6  22528142.602    22528145.930
        12.250          13.250
                   -412266.700 5   -326600.196 5  23564867.953    23564871.508
         8.000          10.000
                  -1023500.717 5   -799356.659 5  23523607.375    23523609.691
         9.500           9.500
                    327311.531 6    257547.644 6  20326736.672    20326738.961
        18.750          21.250
 95  4 24 19  9  0.0000000  0  6G 2G 7G19G15G26G27
                   -193339.443 6   -150998.540 6  21031879.648    21031882.172
        19.250          21.500
                  -1056278.799 6   -824844.508 6  20679323.672    20679326.051
        17.000          22.750
                   1144656.714 6    893590.311 6  22535217.656    22535221.051
        12.250          13.250
                   -419911.074 5   -332556.843 5  23563413.234    23563416.457
         8.000           9.750
                  -1051989.292 5   -821555.544 5  23518185.719    23518188.164
         9.500           9.500
                    341044.277 6    268248.478 6  20329349.898    20329352.125
        18.750          21.250
 95  4 24 19  9 15.0000000  0  6G 2G 7G19G15G26G27
                   -196224.489 6   -153246.628 6  21031330.883    21031333.328
        19.250          21.500
                  -1083454.181 6   -846020.121 6  20674152.234    20674154.781
        17.000          22.750
                   1181955.022 6    922653.901 6  22542315.406    22542318.090
        12.500          12.750
                   -427370.430 5   -338369.331 5  23561993.367    23561997.090
         8.000          10.000
                  -1080317.842 5   -843629.739 5  23512795.219    23512797.480
         9.500           9.500
                    354959.444 6    279091.460 6  20331997.875    20332000.020
        18.750          21.250
 95  4 24 19  9 30.0000000  0  6G 2G 7G19G15G26G27
                   -199022.694 6   -155427.044 6  21030798.195    21030800.867
        19.000          21.500
                  -1110462.097 6   -867065.235 6  20669012.773    20669015.383
        17.000          23.000
                   1219375.395 6    951812.610 6  22549436.039    22549439.754
        12.500          13.250
                   -434647.074 5   -344039.430 5  23560609.117    23560612.492
         8.250          10.000
                  -1108486.961 5   -865579.695 5  23507434.797    23507437.504
         9.500           9.750
                    369056.009 6    290075.792 6  20334680.320    20334682.555
        18.750          21.250
 95  4 24 19  9 45.0000000  0  6G 2G 7G19G15G26G27
                   -201738.896 6   -157543.565 6  21030281.359    21030284.043
        19.000          21.500
                  -1137306.652 6   -887983.069 6  20663904.461    20663907.180
        17.000          23.000
                   1256918.119 6    981066.658 6  22556579.781    22556583.168
        12.250          13.000
                   -441742.713 5   -349568.499 5  23559259.023    23559261.836
         8.250           9.250
                  -1136495.709 5   -887404.689 5  23502104.547    23502107.559
         9.500           9.750
                    383327.518 6    301196.445 6  20337396.133    20337398.402
        18.750          21.250
 95  4 24 19 10  0.0000000  0  6G 2G 7G19G15G26G27
                   -204374.441 6   -159597.233 6  21029779.977    21029782.500
        19.250          21.500
                  -1163989.590 6   -908774.959 6  20658826.734    20658829.590
        17.000          23.000
                   1294582.540 5   1010415.531 6  22563747.461    22563751.000
        11.750          13.000
                   -448657.359 5   -354956.534 5  23557942.711    23557945.359
         8.000           9.000
                  -1164340.252 5   -909101.735 5  23496806.250    23496808.801
         9.500          10.000
                    397771.171 6    312451.233 6  20340144.656    20340146.816
        18.750          21.250
 95  4 24 19 10 15.0000000  0  6G 2G 7G19G15G26G27
                   -206929.449 6   -161588.147 6  21029293.852    21029296.168
        19.250          21.500
                  -1190509.273 6   -929439.638 6  20653780.031    20653782.973
        16.750          23.000
                   1332369.147 6   1039859.614 6  22570938.656    22570941.305
        12.250          12.750
                   -455389.701 5   -360202.513 5  23556661.773    23556664.703
         7.750           9.000
                  -1192015.446 5   -930666.815 5  23491539.453    23491542.152
         9.500           9.750
                    412389.177 6    323841.880 6  20342926.438    20342928.738
        18.750          21.250
 95  4 24 19 10 30.0000000  0  6G 2G 7G19G15G26G27
                   -209402.453 6   -163515.161 6  21028823.320    21028825.719
        19.250          21.500
                  -1216869.683 6   -949980.209 6  20648763.641    20648766.695
        16.750          23.250
                   1370273.725 6   1069395.627 6  22578151.383    22578154.098
        12.000          12.500
                   -461943.551 5   -365309.395 5  23555414.344    23555418.102
         7.500           9.500
                  -1219522.007 5   -952100.500 5  23486305.117    23486308.270
         9.250          10.250
                    427178.051 6    335365.673 6  20345740.578    20345742.949
        18.500          21.250
 95  4 24 19 10 45.0000000  0  6G 2G 7G19G15G26G27
                   -211795.240 6   -165379.669 6  21028368.055    21028370.402
        19.500          21.500
                  -1243073.856 6   -970399.037 6  20643777.086    20643780.039
        16.750          23.000
                   1408289.978 5   1099018.656 6  22585384.891    22585389.254
        11.250          13.000
                   -468321.177 5   -370278.980 5  23554200.945    23554204.273
         7.500           9.500
                  -1246864.615 5   -973406.423 5  23481102.219    23481105.305
         9.500          10.250
                    442132.257 6    347018.294 6  20348586.266    20348588.633
        18.500          21.000
 95  4 24 19 11  0.0000000  0  6G 2G 7G19G15G26G27
                   -214110.531 6   -167183.789 6  21027927.359    21027929.723
        19.500          21.750
                  -1269126.079 6   -990699.463 6  20638819.883    20638822.633
        17.000          23.250
                   1446415.575 5   1128726.893 6  22592640.313    22592643.461
        11.250          12.500
                   -474524.943 5   -375113.086 5  23553020.156    23553023.672
         7.500           9.750
                  -1274049.279 5   -994589.275 5  23475929.422    23475932.336
         9.750          10.500
                    457245.605 6    358794.918 6  20351462.109    20351464.484
        18.500          21.000
 95  4 24 19 11 15.0000000  0  6G 2G 7G19G15G26G27
                   -216346.113 6   -168925.799 6  21027501.969    21027504.340
        19.250          21.500
                  -1295026.147 6  -1010881.327 6  20633891.406    20633894.141
        17.000          23.250
                   1484649.814 5   1158519.777 6  22599916.750    22599919.859
        11.500          12.500
                   -480554.831 5   -379811.694 5  23551873.047    23551876.207
         7.750           9.750
                  -1301076.236 5  -1015649.237 5  23470786.461    23470789.375
         9.750          10.750
                    472514.545 6    370692.786 6  20354367.688    20354370.074
        18.500          21.000
 95  4 24 19 11 30.0000000  0  6G 2G 7G19G15G26G27
                   -218504.772 6   -170607.869 6  21027091.164    21027093.547
        19.250          21.500
                  -1320776.496 6  -1030946.525 6  20628991.344    20628994.008
        17.000          23.250
                   1522990.048 5   1188395.259 6  22607211.977    22607215.137
        11.250          12.250
                   -486413.241 4   -384376.690 5  23550757.711    23550762.156
         7.250          10.250
                  -1327945.574 5  -1036586.372 5  23465673.109    23465676.086
         9.500          10.500
                    487936.046 6    382709.532 6  20357302.539    20357304.902
        18.500          21.000
 95  4 24 19 11 45.0000000  0  6G 2G 7G19G15G26G27
                   -220588.851 6   -172231.824 6  21026694.570    21026696.996
        19.250          21.500
                  -1346378.163 6  -1050895.872 6  20624119.320    20624122.012
        17.250          23.250
                   1561433.641 5   1218351.278 6  22614527.172    22614531.027
        11.250          12.000
                   -492100.256 5   -388808.114 5  23549675.547    23549679.777
         7.500          10.250
                  -1354658.667 5  -1057401.767 5  23460589.664    23460592.594
         9.500          10.500
                    503507.117 6    394842.821 6  20360265.617    20360267.863
        18.500          21.250
 95  4 24 19 11 59.9990000  0  6G 2G 7G19G15G26G27
                   -222602.096 6   -173800.583 6  21026311.550    21026313.847
        19.250          21.500
                  -1371830.503 6  -1070728.854 6  20619275.948    20619278.605
        17.250          23.250
                   1599972.928 5   1248381.871 6  22621861.511    22621865.038
        11.000          12.250
                   -497617.432 5   -393107.216 5  23548626.105    23548628.667
         7.500           9.000
                  -1381214.062 5  -1078094.280 5  23455536.745    23455539.288
         9.500          10.750
                    519226.117 6    407091.388 6  20363256.722    20363259.085
        18.500          21.250
 95  4 24 19 12 14.9990000  0  6G 2G 7G19G15G26G27
                   -224541.399 6   -175311.726 6  21025942.370    21025944.718
        19.250          21.500
                  -1397131.741 6  -1090444.099 6  20614461.237    20614463.780
        17.250          23.000
                   1638615.326 5   1278492.806 6  22629215.198    22629217.944
        11.250          12.000
                   -502962.978 5   -397272.571 5  23547608.730    23547611.562
         7.750           8.750
                  -1407615.427 5  -1098666.763 5  23450512.456    23450514.933
         9.250          10.500
                    535101.883 6    419462.106 6  20366277.815    20366280.276
        18.500          21.500
 95  4 24 19 12 29.9990000  0  6G 2G 7G19G15G26G27
                   -226406.980 6   -176765.427 6  21025587.433    21025589.960
        19.250          21.500
                  -1422279.115 6  -1110039.447 6  20609675.956    20609678.417
        17.250          23.000
                   1677358.709 5   1308682.427 6  22636587.636    22636591.413
        11.250          12.500
                   -508137.177 5   -401304.397 5  23546624.269    23546627.062
         7.750           9.000
                  -1433864.462 5  -1119120.550 5  23445517.261    23445520.058
         9.250          10.750
                    551132.537 6    431953.516 6  20369328.276    20369330.835
        18.250          21.500
 95  4 24 19 12 44.9990000  0  6G 2G 7G19G15G26G27
                   -228206.196 6   -178167.410 6  21025244.964    21025247.358
        19.250          21.500
                  -1447276.810 6  -1129518.164 6  20604918.956    20604921.581
        17.000          23.250
                   1716196.771 5   1338945.827 6  22643977.776    22643981.671
        11.000          12.500
                   -513145.513 5   -405206.987 5  23545670.980    23545674.351
         7.750           9.000
                  -1459971.205 5  -1139463.462 5  23440549.276    23440552.085
         9.250          11.000
                    567310.337 6    444559.587 6  20372406.745    20372409.519
        18.250          21.750
 95  4 24 19 12 59.9990000  0  6G 2G 7G19G15G26G27
                   -229940.858 6   -179519.094 6  21024914.659    21024917.269
        19.000          21.500
                  -1472122.203 6  -1148878.200 6  20600190.995    20600193.690
        17.000          23.000
                   1755133.380 5   1369286.012 6  22651387.706    22651391.335
        11.500          12.500
                   -517985.686 5   -408978.557 5  23544749.917    23544753.737
         7.750           9.500
                  -1485933.227 5  -1159693.601 5  23435608.800    23435611.499
         9.000          10.750
                    583637.276 6    457281.868 6  20375513.714    20375516.429
        18.250          21.500
 95  4 24 19 13 14.9990000  0  6G 2G 7G19G15G26G27
                   -231611.042 6   -180820.535 6  21024596.987    21024599.440
        19.250          21.500
                  -1496813.426 6  -1168118.110 6  20595492.276    20595495.105
        17.000          23.000
                   1794168.616 6   1399703.063 6  22658816.105    22658819.483
        12.000          12.750
                   -522658.278 5   -412619.534 5  23543860.901    23543864.440
         7.500           9.500
                  -1511747.153 5  -1179808.341 5  23430696.730    23430699.538
         9.000          11.000
                    600113.417 6    470120.411 6  20378648.933    20378651.659
        18.250          21.500
 95  4 24 19 13 29.9990000  0  6G 2G 7G19G15G26G27
                   -233218.688 6   -182073.245 6  21024291.175    21024293.530
        19.250          21.500
                  -1521350.195 6  -1187237.661 6  20590823.058    20590825.917
        17.000          23.250
                   1833300.480 5   1430195.387 6  22666262.331    22666265.608
        11.750          12.500
                   -527164.830 5   -416131.139 5  23543003.464    23543006.218
         7.750           9.250
                  -1537412.370 5  -1199807.204 5  23425812.823    23425815.585
         9.250          11.000
                    616737.708 6    483074.399 6  20381812.636    20381815.159
        18.250          21.750
 95  4 24 19 13 44.9990000  0  6G 2G 7G19G15G26G27
                   -234763.158 6   -183276.730 6  21023997.355    21023999.573
        19.250          21.250
                  -1545731.969 6  -1206236.439 6  20586183.495    20586186.210
        17.000          23.250
                   1872531.125 5   1460764.699 6  22673727.245    22673731.620
        11.250          12.750
                   -531504.346 5   -419512.587 5  23542177.409    23542181.054
         7.750           9.500
                  -1562928.684 5  -1219690.037 5  23420957.128    23420960.050
         9.250          11.250
                    633511.407 6    496144.806 6  20385004.612    20385007.136
        18.500          21.750
 95  4 24 19 13 59.9990000  0  6G 2G 7G19G15G26G27
                   -236245.967 6   -184432.164 6  21023715.198    21023717.452
        19.250          21.500
                  -1569962.192 6  -1225117.124 6  20581572.659    20581575.417
        17.250          23.250
                   1911859.961 6   1491410.519 6  22681212.378    22681215.077
        12.000          12.250
                   -535678.778 5   -422765.381 5  23541383.308    23541386.511
         8.250           9.000
                  -1588297.141 5  -1239457.663 5  23416129.526    23416132.624
         9.250          11.250
                    650430.073 6    509328.178 6  20388224.112    20388226.651
        18.250          21.750
 95  4 24 19 14 14.9990000  0  6G 2G 7G19G15G26G27
                   -237663.837 6   -185536.996 6  21023445.339    21023447.772
        19.250          21.500
                  -1594039.856 6  -1243878.932 6  20576990.761    20576993.577
        17.250          23.250
                   1951289.915 5   1522135.125 6  22688715.440    22688719.218
        11.750          12.750
                   -539687.302 5   -425888.904 5  23540620.761    23540622.847
         8.500           8.500
                  -1613518.084 5  -1259110.333 5  23411330.151    23411333.054
         9.250          11.000
                    667495.158 6    522625.640 6  20391471.401    20391474.089
        18.250          21.750
 95  4 24 19 14 29.9990000  0  6G 2G 7G19G15G26G27
                   -239016.408 6   -186590.949 6  21023187.925    21023190.460
        19.250          21.500
                  -1617964.276 6  -1262521.332 6  20572438.167    20572441.022
        17.250          23.500
                   1990824.245 5   1552941.074 6  22696237.745    22696241.440
        11.250          12.000
                   -543529.892 5   -428883.114 5  23539889.800    23539892.097
         8.500           8.750
                  -1638592.208 5  -1278648.612 5  23406559.128    23406561.343
         9.500          10.750
                    684704.513 6    536035.520 6  20394746.198    20394749.034
        18.000          21.750
 95  4 24 19 14 44.9990000  0  6G 2G 7G19G15G26G27
                   -240302.479 6   -187593.081 6  21022943.136    21022945.628
        19.250          21.500
                  -1641734.918 6  -1281043.900 6  20567914.925    20567917.593
        17.500          23.500
                   2030462.231 5   1583827.785 6  22703781.105    22703784.921
        11.250          12.000
                   -547205.648 5   -431747.332 5  23539189.737    23539192.519
         8.000           9.250
                  -1663518.077 5  -1298071.366 5  23401815.940    23401818.245
         9.250          10.750
                    702058.922 6    549558.428 6  20398048.620    20398051.343
        18.000          21.500
 95  4 24 19 14 59.9990000  0  6G 2G 7G19G15G26G27
                   -241524.606 6   -188545.391 6  21022710.612    21022713.108
        19.250          21.500
                  -1665356.560 6  -1299450.367 6  20563419.995    20563422.683
        17.750          23.750
                   2070200.179 5   1614792.388 6  22711343.644    22711346.487
        11.500          12.000
                   -550717.470 5   -434483.817 5  23538520.909    23538525.132
         7.750          10.250
                  -1688296.587 5  -1317379.287 5  23397100.683    23397103.417
         9.250          10.750
                    719559.509 6    563195.238 6  20401378.980    20401381.538
        18.000          21.500
 95  4 24 19 15 14.9990000  0  6G 2G 7G19G15G26G27
                   -242678.345 6   -189444.408 6  21022491.058    21022493.565
        19.250          21.750
                  -1688828.803 6  -1317740.416 6  20558953.331    20558956.073
        17.750          23.750
                   2110039.313 5   1645835.834 5  22718923.808    22718927.573
        11.000          11.500
                   -554063.244 5   -437090.925 5  23537884.792    23537888.636
         7.750          10.500
                  -1712922.523 5  -1336568.318 5  23392414.667    23392417.304
         9.250          10.750
                    737207.736 6    576947.098 6  20404737.378    20404739.944
        18.000          21.500
 95  4 24 19 15 29.9990000  0  6G 2G 7G19G15G26G27
                   -243765.101 6   -190291.231 6  21022284.112    21022286.569
        19.250          21.500
                  -1712155.583 6  -1335917.119 6  20554514.276    20554517.034
        17.500          23.500
                   2149976.784 5   1676955.922 5  22726523.722    22726527.605
        11.000          11.500
                   -557244.651 5   -439569.955 5  23537279.550    23537282.925
         8.250          10.000
                  -1737398.688 5  -1355640.653 5  23387757.003    23387759.589
         9.250          10.500
                    755000.372 6    590811.480 6  20408123.019    20408125.741
        18.000          21.250
 95  4 24 19 15 44.9990000  0  6G 2G 7G19G15G26G27
                   -244786.949 6   -191087.473 6  21022089.667    21022092.214
        19.250          21.750
                  -1735341.302 6  -1353983.904 6  20550102.003    20550104.741
        17.500          23.750
                   2190014.002 5   1708153.715 5  22734143.081    22734145.792
        11.000          11.000
                   -560262.141 5   -441921.242 5  23536705.222    23536708.874
         8.250          10.000
                  -1761727.275 5  -1374597.991 5  23383127.581    23383130.015
         9.500          10.500
                    772937.069 6    604788.118 6  20411536.433    20411539.026
        17.750          21.500
 95  4 24 19 15 59.9990000  0  6G 2G 7G19G15G26G27
                   -245746.636 6   -191835.284 6  21021907.120    21021909.718
        19.250          21.750
                  -1758389.107 6  -1371943.224 6  20545716.269    20545719.046
        17.500          24.000
                   2230148.956 5   1739427.674 5  22741780.683    22741784.159
        11.250          11.500
                   -563117.102 5   -444145.880 5  23536161.847    23536165.511
         8.250           9.750
                  -1785907.464 5  -1393439.692 5  23378525.972    23378528.733
         9.250          10.500
                    791018.950 6    618877.885 6  20414977.144    20414979.800
        18.000          21.500
 95  4 24 19 16 14.9990000  0  6G 2G 7G19G15G26G27
                   -246643.391 6   -192534.054 6  21021736.550    21021739.116
        19.500          21.750
                  -1781298.273 6  -1389794.516 6  20541356.948    20541359.667
        17.500          24.000
                   2270382.641 5   1770778.568 5  22749436.331    22749439.483
        10.750          11.000
                   -565809.218 5   -446243.628 5  23535649.620    23535652.608
         8.250           9.000
                  -1809937.946 5  -1412164.734 5  23373953.167    23373955.980
         9.000          10.250
                    809248.450 6    633082.681 6  20418446.237    20418448.855
        18.000          21.500
 95  4 24 19 16 29.9990000  0  6G 2G 7G19G15G26G27
                   -247476.891 6   -193183.543 6  21021578.144    21021580.519
        19.500          21.750
                  -1804068.315 6  -1407537.395 6  20537023.722    20537026.495
        17.250          23.750
                   2310712.828 5   1802204.664 5  22757111.815    22757115.038
        11.500          11.250
                   -568338.638 5   -448214.594 5  23535168.526    23535170.897
         8.000           8.750
                  -1833819.408 5  -1430773.662 5  23369408.628    23369411.401
         9.000          10.250
                    827627.132 6    647403.720 6  20421943.573    20421946.222
        18.000          21.250
 95  4 24 19 16 44.9990000  0  6G 2G 7G19G15G26G27
                   -248246.637 6   -193783.344 6  21021431.573    21021433.835
        19.500          21.750
                  -1826699.800 6  -1425172.312 6  20532717.050    20532719.944
        17.250          24.000
                   2351135.547 5   1833702.845 5  22764803.987    22764806.886
        11.500          11.250
                   -570704.804 4   -450058.356 5  23534717.597    23534720.448
         7.250           9.000
                  -1857550.384 5  -1449265.334 5  23364892.784    23364895.272
         8.750          10.000
                    846155.224 6    661841.186 6  20425469.370    20425471.855
        18.000          21.000
 95  4 24 19 16 59.9990000  0  6G 2G 7G19G15G26G27
                   -248952.325 6   -194333.230 6  21021297.394    21021299.679
        19.750          22.000
                  -1849193.812 6  -1442700.104 6  20528436.558    20528439.495
        17.250          24.000
                   2391647.665 5   1865270.704 5  22772512.636    22772515.866
        11.250          11.250
                   -572907.902 5   -451775.056 5  23534298.417    23534301.862
         7.500           9.500
                  -1881129.504 5  -1467638.677 5  23360405.823    23360408.265
         9.000          10.000
                    864832.230 6    676394.692 6  20429023.651    20429025.980
        18.000          21.000
 95  4 24 19 17 14.9990000  0  6G 2G 7G19G15G26G27
                   -249599.781 6   -194837.744 6  21021174.105    21021176.417
        19.750          21.750
                  -1871555.454 6  -1460124.756 6  20524181.167    20524184.128
        17.000          24.000
                   2432243.028 5   1896903.427 5  22780238.034    22780240.929
        11.500          11.500
                   -574953.730 5   -453369.212 5  23533909.745    23533913.062
         8.000          10.000
                  -1904561.013 5  -1485896.993 5  23355947.167    23355949.640
         8.750          10.000
                    883647.369 6    691055.830 6  20432603.987    20432606.448
        18.250          20.750
 95  4 24 19 17 29.9990000  0  6G 2G 7G19G15G26G27
                   -250186.038 6   -195294.567 6  21021062.550    21021064.866
        19.500          21.500
                  -1893777.261 6  -1477440.440 6  20519952.542    20519955.483
        17.000          24.000
                   2472928.509 5   1928606.361 5  22787980.370    22787983.730
        11.750          11.750
                   -576836.558 5   -454836.351 5  23533551.440    23533554.843
         8.250          10.250
                  -1927840.079 5  -1504036.524 5  23351517.261    23351519.812
         8.750          10.000
                    902604.424 6    705827.553 6  20436211.550    20436213.737
        18.000          20.500
 95  4 24 19 17 44.9990000  0  6G 2G 7G19G15G26G27
                   -250712.736 6   -195704.985 6  21020962.190    21020964.569
        19.750          21.750
                  -1915858.690 6  -1494646.743 6  20515750.565    20515753.640
        17.000          24.000
                   2513703.894 5   1960379.352 5  22795739.097    22795742.272
        11.000          11.250
                   -578558.191 5   -456177.883 5  23533223.487    23533227.003
         8.000          10.000
                  -1950971.455 5  -1522060.973 5  23347115.440    23347117.901
         8.750          10.000
                    921703.971 6    720710.306 6  20439845.925    20439848.237
        18.000          20.500
 95  4 24 19 17 59.9990000  0  6G 2G 7G19G15G26G27
                   -251179.919 6   -196069.026 6  21020873.362    21020875.706
        19.750          21.750
                  -1937796.634 6  -1511741.239 6  20511575.909    20511579.038
        17.000          24.000
                   2554567.194 5   1992220.851 5  22803515.409    22803518.866
        11.000          11.750
                   -580119.443 5   -457394.440 5  23532926.651    23532929.647
         7.750           9.750
                  -1973956.649 5  -1539971.510 5  23342741.151    23342743.796
         8.750           9.750
                    940947.141 6    735704.977 6  20443507.722    20443510.124
        18.000          20.500
 95  4 24 19 18 14.9990000  0  6G 2G 7G19G15G26G27
                   -251585.609 6   -196385.150 6  21020796.339    21020798.620
        19.750          21.750
                  -1959588.992 6  -1528722.289 6  20507429.065    20507432.081
        17.000          23.750
                   2595517.804 5   2024130.386 5  22811308.628    22811311.218
        11.500          11.500
                   -581521.161 5   -458486.685 5  23532659.128    23532662.769
         7.500           9.250
                  -1996798.439 5  -1557770.304 5  23338394.730    23338397.237
         8.750           9.750
                    960330.550 6    750808.925 6  20447196.183    20447198.663
        17.750          20.500
 95  4 24 19 18 29.9990000  0  6G 2G 7G19G15G26G27
                   -251930.436 6   -196653.846 6  21020730.683    21020733.042
        19.750          22.000
                  -1981235.766 6  -1545589.898 6  20503309.878    20503312.753
        17.000          24.000
                   2636553.164 5   2056105.952 5  22819116.386    22819120.605
        10.500          11.750
                   -582763.939 4   -459455.092 5  23532422.940    23532426.331
         7.250           9.000
                  -2019502.517 5  -1575461.801 5  23334074.386    23334076.952
         8.750           9.750
                    979850.862 6    766019.552 6  20450910.730    20450913.296
        17.750          20.750
 95  4 24 19 18 44.9990000  0  6G 2G 7G19G15G26G27
                   -252214.698 6   -196875.353 6  21020676.558    21020679.030
        19.750          22.000
                  -2002736.918 6  -1562344.037 6  20499218.386    20499221.312
        17.000          23.750
                   2677671.941 5   2088146.526 5  22826941.487    22826944.581
        10.500          11.250
                   -583846.625 4   -460298.747 5  23532216.776    23532220.132
         7.250           9.000
                  -2042068.483 5  -1593045.668 5  23329780.120    23329782.827
         8.750           9.750
                    999509.106 6    781337.654 6  20454651.706    20454654.343
        17.750          20.750
 95  4 24 19 18 59.9990000  0  6G 2G 7G19G15G26G27
                   -252439.290 6   -197050.359 6  21020633.784    21020636.265
        19.750          22.250
                  -2024091.665 6  -1578984.092 6  20495154.714    20495157.577
        17.250          23.750
                   2718876.687 5   2120254.081 5  22834782.847    22834786.136
        10.500          11.000
                   -584768.860 5   -461017.362 5  23532041.823    23532044.440
         7.750           9.000
                  -2064496.282 5  -1610521.873 5  23325512.253    23325514.558
         9.000           9.750
                   1019305.800 6    796763.637 6  20458418.667    20458421.362
        17.750          21.000
 95  4 24 19 19 14.9990000  0  6G 2G 7G19G15G26G27
                   -252606.111 6   -197180.352 6  21020602.073    21020604.515
        19.750          22.250
                  -2045300.257 6  -1595510.259 6  20491118.683    20491121.519
        17.250          23.750
                   2760170.164 5   2152430.783 5  22842640.230    22842643.687
        10.000          11.000
                   -585530.834 5   -461611.097 5  23531896.933    23531899.839
         8.000           9.500
                  -2086786.979 5  -1627891.249 5  23321270.792    23321272.980
         9.000           9.750
                   1039241.427 6    812297.883 6  20462212.464    20462215.116
        18.000          21.000
 95  4 24 19 19 29.9990000  0  6G 2G 7G19G15G26G27
                   -252716.266 6   -197266.192 6  21020581.089    21020583.601
        19.750          22.000
                  -2066365.032 6  -1611924.363 6  20487110.198    20487112.897
        17.250          23.500
                   2801551.528 5   2184675.975 5  22850515.206    22850518.390
        10.250          10.750
                   -586135.092 5   -462081.945 5  23531781.487    23531785.194
         7.500           9.750
                  -2108944.569 5  -1645156.903 5  23317054.237    23317056.327
         9.000           9.500
                   1059315.036 6    827939.645 6  20466032.573    20466034.976
        18.000          21.000
 95  4 24 19 19 44.9990000  0  6G 2G 7G19G15G26G27
                   -252767.819 6   -197306.366 6  21020571.370    21020573.722
        19.750          22.000
                  -2087284.588 6  -1628225.308 6  20483129.472    20483132.073
        17.500          23.500
                   2843023.939 5   2216992.107 5  22858407.308    22858410.800
        10.000          11.250
                   -586579.777 4   -462428.467 5  23531696.823    23531700.882
         7.000          10.250
                  -2130967.317 5  -1662317.487 5  23312863.323    23312865.663
         9.000           9.500
                   1079530.437 6    843691.894 6  20469879.362    20469881.843
        18.250          20.750
 95  4 24 19 19 59.9990000  0  6G 2G 7G19G15G26G27
                   -252760.066 7   -197300.328 6  21020572.815    21020575.249
        20.000          22.000
                  -2108063.285 6  -1644416.492 6  20479175.448    20479178.011
        17.750          23.500
                   2884582.598 5   2249375.437 5  22866314.706    22866319.425
         9.250          11.500
                   -586866.784 4   -462652.124 5  23531642.206    23531646.128
         6.750          10.250
                  -2152856.758 5  -1679374.192 5  23308697.808    23308700.374
         9.250           9.250
                   1099884.462 6    859552.164 6  20473752.589    20473754.987
        18.250          21.000
 95  4 24 19 20 14.9990000  0  6G 2G 7G19G15G26G27
                   -252691.750 7   -197247.097 6  21020585.831    21020588.183
        20.000          22.000
                  -2128702.984 6  -1660499.369 6  20475247.901    20475250.522
        17.750          23.500
                   2926228.544 5   2281826.791 5  22874240.737    22874244.495
         9.750          11.250
                   -586995.056 4   -462752.078 5  23531617.089    23531621.542
         6.500          10.000
                  -2174609.062 5  -1696324.041 5  23304558.659    23304560.714
         9.250           9.250
                   1120378.163 6    875521.271 6  20477652.308    20477654.772
        18.000          21.000
 95  4 24 19 20 29.9990000  0  6G 2G 7G19G15G26G27
                   -252564.474 7   -197147.921 6  21020610.081    21020612.464
        20.000          22.000
                  -2149209.953 6  -1676478.816 6  20471345.589    20471348.128
        17.750          23.250
                   2967960.905 5   2314345.471 5  22882181.823    22882185.382
         9.750          10.750
                   -586965.343 4   -462728.922 5  23531623.167    23531626.737
         7.000           9.250
                  -2196224.360 5  -1713167.128 5  23300445.081    23300447.183
         9.000           9.000
                   1141011.093 6    891598.867 6  20481578.753    20481581.265
        18.000          21.000
 95  4 24 19 20 44.9990000  0  6G 2G 7G19G15G26G27
                   -252379.296 6   -197003.630 6  21020645.261    21020647.706
        19.750          22.000
                  -2169582.279 6  -1692353.353 6  20467469.034    20467471.460
        18.000          23.500
                   3009780.299 5   2346931.995 5  22890139.284    22890143.280
         9.500          11.000
                   -586776.273 4   -462581.588 5  23531659.378    23531662.487
         7.250           9.000
                  -2217698.440 5  -1729900.184 5  23296358.917    23296361.097
         9.250           9.000
                   1161786.641 6    907787.596 6  20485532.151    20485534.667
        18.000          21.000
 95  4 24 19 20 59.9990000  0  6G 2G 7G19G15G26G27
                   -252133.719 6   -196812.276 6  21020691.972    21020694.421
        19.750          22.000
                  -2189817.313 6  -1708120.905 6  20463618.487    20463620.870
        18.250          23.500
                   3051690.025 5   2379588.882 5  22898114.808    22898119.097
         9.500          11.500
                   -586426.366 4   -462308.931 5  23531726.058    23531729.358
         7.250           9.250
                  -2239026.727 5  -1746519.633 5  23292300.144    23292302.620
         9.500           9.250
                   1182705.887 6    924088.299 6  20489512.894    20489515.437
        18.000          21.250
 95  4 24 19 21 14.9990000  0  6G 2G 7G19G15G26G27
                   -251827.287 6   -196573.499 6  21020750.198    21020752.800
        19.750          22.250
                  -2209912.515 6  -1723779.497 6  20459794.440    20459796.761
        18.250          23.250
                   3093691.638 5   2412317.376 5  22906107.558    22906111.460
         9.500          11.750
                   -585915.762 5   -461911.054 5  23531823.839    23531826.812
         7.500           9.500
                  -2260210.178 5  -1763026.223 5  23288269.136    23288271.179
         9.500           9.250
                   1203766.410 6    940499.086 6  20493520.565    20493523.108
        18.000          21.000
 95  4 24 19 21 29.9990000  0  6G 2G 7G19G15G26G27
                   -251458.743 7   -196286.325 6  21020820.480    21020823.159
        20.000          22.250
                  -2229867.330 6  -1739328.699 6  20455996.972    20455999.378
        18.250          23.250
                   3135782.828 5   2445115.667 5  22914116.964    22914121.593
         9.500          11.750
                   -585245.011 4   -461388.393 5  23531950.730    23531954.565
         7.250           9.750
                  -2281249.287 5  -1779420.339 5  23284265.222    23284267.776
         9.500           9.500
                   1224966.957 6    957018.981 6  20497555.159    20497557.522
        18.250          21.250
 95  4 24 19 21 44.9990000  0  6G 2G 7G19G15G26G27
                   -251029.222 7   -195951.636 6  21020902.230    21020904.679
        20.000          22.500
                  -2249681.954 6  -1754768.664 6  20452226.386    20452228.960
        18.000          23.250
                   3177962.822 5   2477983.158 5  22922144.237    22922147.593
         9.750          11.250
                   -584413.644 4   -460740.586 5  23532109.081    23532112.730
         7.000           9.750
                  -2302143.740 5  -1795701.731 5  23280289.136    23280291.882
         9.750           9.750
                   1246305.696 6    973646.559 6  20501615.831    20501618.218
        18.250          21.250
 95  4 24 19 21 59.9990000  0  6G 2G 7G19G15G26G27
                   -250541.091 7   -195571.276 6  21020995.097    21020997.546
        20.000          22.250
                  -2269359.543 6  -1770101.840 6  20448481.815    20448484.440
        18.000          23.500
                   3220227.597 5   2510916.716 5  22930186.019    22930191.042
         9.250          11.500
                   -583422.068 4   -459967.926 5  23532297.487    23532300.882
         6.750           9.750
                  -2322894.617 5  -1811871.245 5  23276340.472    23276343.347
        10.000          10.000
                   1267782.650 6    990381.838 6  20505702.730    20505705.308
        18.250          21.500
 95  4 24 19 22 14.9990000  0  6G 2G 7G19G15G26G27
                   -249995.678 6   -195146.279 6  21021098.730    21021101.147
        19.750          22.000
                  -2288901.364 6  -1785329.234 6  20444763.097    20444765.831
        18.000          23.250
                   3262574.841 5   2543914.534 5  22938245.050    22938248.847
         9.500          11.250
                   -582271.620 4   -459071.476 5  23532516.425    23532520.304
         7.000           9.750
                  -2343503.046 5  -1827929.757 5  23272418.847    23272421.733
        10.000          10.250
                   1289398.211 6   1007225.120 6  20509816.034    20509818.659
        18.250          21.750
 95  4 24 19 22 29.9990000  0  6G 2G 7G19G15G26G27
                   -249393.951 7   -194677.404 6  21021213.292    21021215.491
        20.000          22.000
                  -2308305.221 6  -1800449.117 6  20441070.675    20441073.315
        17.750          23.000
                   3305005.934 5   2576977.684 5  22946319.167    22946323.616
         9.500          11.500
                   -580961.523 4   -458050.630 5  23532765.956    23532769.667
         7.250           9.500
                  -2363969.066 5  -1843877.311 5  23268524.425    23268527.304
        10.000          10.250
                   1311152.556 6   1024176.546 6  20513955.659    20513958.304
        18.000          21.500
 95  4 24 19 22 44.9990000  0  6G 2G 7G19G15G26G27
                   -248739.183 7   -194167.198 6  21021337.855    21021340.183
        20.000          22.000
                  -2327569.019 6  -1815459.865 6  20437404.776    20437407.526
        17.750          23.000
                   3347517.408 5   2610103.470 5  22954408.894    22954413.366
         9.500          11.250
                   -579493.181 5   -456906.471 5  23533045.839    23533048.882
         8.000           9.250
                  -2384293.313 5  -1859714.389 5  23264657.151    23264659.870
        10.250          10.500
                   1333041.661 6   1041232.978 6  20518121.120    20518123.757
        18.000          21.500
 95  4 24 19 22 59.9990000  0  6G 2G 7G19G15G26G27
                   -248028.650 7   -193613.538 6  21021473.175    21021475.655
        20.000          22.250
                  -2346689.290 6  -1830358.770 6  20433766.276    20433769.034
        18.000          23.000
                   3390108.588 5   2643291.370 5  22962514.253    22962518.136
        10.000          11.000
                   -577865.402 5   -455638.055 5  23533355.159    23533358.288
         7.750           8.750
                  -2404473.908 5  -1875439.529 5  23260816.972    23260819.522
        10.250          10.500
                   1355066.770 6   1058395.389 6  20522312.245    20522314.847
        18.000          21.500
 95  4 24 19 23 14.9990000  0  6G 2G 7G19G15G26G27
                   -247263.752 7   -193017.513 6  21021618.761    21021621.315
        20.000          22.500
                  -2365668.813 6  -1845148.008 6  20430154.847    20430157.483
        18.000          23.000
                   3432779.693 5   2676541.551 5  22970634.120    22970638.065
         9.750          10.750
                   -576079.375 5   -454246.343 5  23533695.706    23533698.605
         7.750           9.000
                  -2424514.249 5  -1891055.376 5  23257002.972    23257005.784
        10.000          10.750
                   1377226.466 6   1075662.676 6  20526529.128    20526531.847
        17.750          21.500
 95  4 24 19 23 29.9990000  0  6G 2G 7G19G15G26G27
                   -246443.031 7   -192377.991 6  21021774.925    21021777.468
        20.000          22.250
                  -2384511.136 6  -1859830.332 6  20426569.386    20426571.839
        18.000          22.750
                   3475529.408 5   2709852.977 5  22978769.269    22978773.515
         9.750          11.000
                   -574135.162 5   -452731.363 5  23534065.089    23534068.628
         7.500           9.500
                  -2444414.810 5  -1906562.304 5  23253216.245    23253219.159
         9.750          10.750
                   1399522.161 6   1093035.936 6  20530771.769    20530774.601
        17.750          21.250
 95  4 24 19 23 44.9990000  0  6G 2G 7G19G15G26G27
                   -245568.405 7   -191696.468 6  21021941.456    21021943.780
        20.000          22.250
                  -2403219.615 6  -1874408.364 6  20423009.230    20423011.620
        18.250          22.750
                   3518357.014 5   2743225.108 5  22986919.081    22986923.042
         9.750          10.750
                   -572032.072 4   -451092.596 5  23534465.370    23534468.991
         7.250           9.750
                  -2464174.718 5  -1921959.633 5  23249455.948    23249458.999
         9.750          11.000
                   1421955.075 6   1110516.119 6  20535040.628    20535043.464
        17.750          21.750
 95  4 24 19 23 59.9990000  0  6G 2G 7G19G15G26G27
                   -244640.799 7   -190973.659 6  21022118.050    21022120.253
        20.250          22.250
                  -2421795.741 6  -1888883.264 6  20419474.331    20419476.722
        18.500          22.750
                   3561261.242 5   2776656.937 5  22995083.097    22995087.952
         9.500          10.750
                   -569770.223 4   -449330.131 5  23534894.878    23534899.522
         6.750          10.000
                  -2483792.556 5  -1937246.258 5  23245722.651    23245725.636
         9.750          11.250
                   1444527.182 6   1128104.766 6  20539336.097    20539338.835
        17.750          21.500
 95  4 24 19 24 14.9990000  0  6G 2G 7G19G15G26G27
                   -243657.598 7   -190207.530 6  21022304.870    21022307.175
        20.000          22.250
                  -2440236.681 6  -1903252.823 6  20415965.089    20415967.522
        18.500          22.750
                   3604244.466 5   2810150.328 5  23003262.964    23003266.851
        10.000          10.500
                   -567348.913 4   -447443.408 5  23535356.284    23535360.413
         7.250          10.250
                  -2503267.028 5  -1952421.168 5  23242017.105    23242019.585
         9.500          11.250
                   1467242.233 6   1145804.796 6  20543658.417    20543661.140
        18.000          21.500
 95  4 24 19 24 29.9990000  0  6G 2G 7G19G15G26G27
                   -242619.869 7   -189398.910 6  21022502.487    21022504.651
        20.000          22.000
                  -2458539.671 6  -1917514.884 6  20412482.222    20412484.558
        18.500          22.500
                   3647309.211 5   2843707.243 5  23011457.784    23011462.144
         9.750          10.750
                   -564769.162 5   -445433.212 5  23535847.573    23535851.452
         8.000          10.500
                  -2522598.371 5  -1967484.549 5  23238338.550    23238341.167
         9.500          11.250
                   1490096.692 6   1163613.458 6  20548007.730    20548010.272
        18.000          21.250
 95  4 24 19 24 44.9990000  0  6G 2G 7G19G15G26G27
                   -241526.714 7   -188547.103 6  21022710.401    21022712.640
        20.000          22.000
                  -2476700.969 6  -1931666.545 6  20409026.409    20409028.589
        18.750          22.750
                   3690457.749 5   2877329.440 5  23019668.651    23019673.089
         9.500          10.750
                   -562029.318 5   -443298.270 5  23536369.144    23536372.315
         8.250           9.750
                  -2541785.213 5  -1982435.331 5  23234686.792    23234689.827
         9.500          11.500
                   1513091.522 6   1181531.495 6  20552383.526    20552386.132
        18.000          21.250
 95  4 24 19 24 59.9990000  0  6G 2G 7G19G15G26G27
                   -240377.261 6   -187651.424 6  21022929.105    21022931.679
        19.750          22.250
                  -2494719.428 6  -1945706.898 6  20405597.487    20405599.726
        18.750          22.750
                   3733692.210 5   2911018.590 5  23027895.878    23027900.440
         9.750          10.750
                   -559128.971 5   -441038.260 5  23536920.964    23536923.679
         8.000           9.000
                  -2560827.527 5  -1997273.502 5  23231063.573    23231066.343
         9.500          11.500
                   1536228.196 6   1199560.061 6  20556786.300    20556788.866
        18.000          21.500
 95  4 24 19 25 14.9990000  0  6G 2G 7G19G15G26G27
                   -239175.728 6   -186715.167 6  21023157.800    21023160.355
        19.750          22.250
                  -2512599.651 6  -1959639.535 6  20402194.956    20402197.370
        18.750          22.750
                   3777012.367 5   2944774.521 5  23036139.534    23036143.706
         9.500          10.750
                   -556070.579 5   -438655.096 5  23537502.542    23537505.702
         7.500           8.750
                  -2579730.132 5  -2012002.799 5  23227466.565    23227469.253
         9.500          11.500
                   1559507.330 6   1217699.635 6  20561216.073    20561218.960
        18.000          21.500
 95  4 24 19 25 29.9990000  0  6G 2G 7G19G15G26G27
                   -237922.822 7   -185738.876 6  21023396.190    21023398.796
        20.000          22.250
                  -2530342.801 6  -1973465.362 6  20398818.487    20398820.839
        18.750          22.750
                   3820418.984 5   2978597.817 5  23044399.901    23044404.226
         9.750          11.000
                   -552853.866 4   -436148.561 5  23538114.480    23538117.925
         7.000           8.750
                  -2598492.747 5  -2026623.015 5  23223896.315    23223898.980
         9.500          11.500
                   1582926.797 6   1235948.555 6  20565672.706    20565675.425
        18.000          21.500
 95  4 24 19 25 44.9990000  0  6G 2G 7G19G15G26G27
                   -236618.382 7   -184722.431 6  21023644.464    21023646.855
        20.000          22.250
                  -2547947.391 6  -1987183.222 6  20395468.487    20395470.698
        18.750          22.750
                   3863910.872 5   3012487.564 5  23052676.019    23052680.019
         9.500          10.500
                   -549477.040 4   -433517.277 5  23538756.690    23538760.909
         6.750           9.250
                  -2617112.123 5  -2041131.620 5  23220353.112    23220355.647
         9.500          11.500
                   1606487.139 6   1254307.250 6  20570156.175    20570158.839
        18.000          21.750
 95  4 24 19 25 59.9990000  0  6G 2G 7G19G15G26G27
                   -235268.183 7   -183670.327 6  21023901.636    21023903.948
        20.000          22.250
                  -2565413.005 6  -2000792.788 6  20392144.909    20392147.194
        18.750          22.750
                   3907486.177 5   3046442.313 5  23060968.042    23060972.757
         9.500          11.250
                   -545942.277 5   -430762.927 5  23539430.050    23539433.620
         7.500           9.750
                  -2635589.580 5  -2055529.633 5  23216836.862    23216839.280
         9.500          11.000
                   1630185.990 6   1272773.874 6  20574665.886    20574668.608
        18.000          21.500
 95  4 24 19 26 14.9990000  0  6G 2G 7G19G15G26G27
                   -233867.617 7   -182578.979 6  21024168.105    21024170.483
        20.000          22.250
                  -2582736.145 6  -2014291.332 6  20388848.315    20388850.753
        18.750          22.750
                   3951149.094 5   3080465.311 5  23069277.237    23069281.101
         9.750          11.000
                   -542247.231 5   -427883.672 5  23540133.175    23540136.870
         7.500           9.750
                  -2653922.290 5  -2069814.869 5  23213348.269    23213350.624
         9.750          11.000
                   1654024.764 6   1291349.531 6  20579202.136    20579204.776
        17.750          21.500
 95  4 24 19 26 29.9990000  0  6G 2G 7G19G15G26G27
                   -232419.442 6   -181450.533 6  21024443.456    21024445.913
        19.750          22.250
                  -2599918.243 6  -2027679.976 6  20385578.456    20385580.972
        18.750          22.750
                   3994898.195 5   3114555.485 5  23077602.089    23077606.226
         9.250          10.750
                   -538394.043 5   -424881.187 5  23540866.534    23540869.565
         7.500           9.500
                  -2672114.761 5  -2083990.825 5  23209886.480    23209888.866
         9.750          11.000
                   1677998.397 6   1310030.271 6  20583764.214    20583766.851
        17.750          21.250
 95  4 24 19 26 44.9990000  0  6G 2G 7G19G15G26G27
                   -230923.038 6   -180284.505 6  21024728.175    21024730.640
        19.750          22.250
                  -2616962.052 6  -2040960.865 6  20382335.128    20382337.722
        18.500          22.750
                   4038731.068 5   3148710.923 5  23085943.730    23085947.394
         9.500          10.750
                   -534381.827 5   -421754.797 5  23541630.315    23541633.390
         7.750           9.250
                  -2690165.663 5  -2098056.464 5  23206451.519    23206454.003
        10.000          11.250
                   1702106.235 6   1328815.591 6  20588351.956    20588354.546
        18.000          21.250
 95  4 24 19 26 59.9990000  0  6G 2G 7G19G15G26G27
                   -229378.685 6   -179081.115 6  21025021.987    21025024.620
        19.750          22.250
                  -2633872.205 6  -2054137.605 6  20379117.269    20379119.819
        18.500          22.500
                   4082642.037 5   3182927.216 5  23094299.605    23094303.417
         9.250          10.500
                   -530211.455 5   -418505.160 5  23542424.003    23542426.851
         8.000           9.250
                  -2708075.464 5  -2112012.151 5  23203043.605    23203045.671
        10.000          11.000
                   1726350.037 6   1347706.853 6  20592965.534    20592967.980
        18.000          21.250
 95  4 24 19 27 14.9990000  0  6G 2G 7G19G15G26G27
                   -227785.513 6   -177839.682 6  21025325.245    21025327.780
        19.750          22.250
                  -2650652.586 6  -2067213.222 6  20375924.026    20375926.507
        18.500          22.500
                   4126629.099 5   3217202.806 5  23102670.534    23102673.761
         9.500          10.500
                   -525882.503 5   -415131.959 5  23543247.198    23543250.663
         7.500           9.000
                  -2725843.706 5  -2125857.535 5  23199662.151    23199664.347
        10.000          10.750
                   1750731.206 6   1366705.157 6  20597605.112    20597607.421
        18.000          21.250
 95  4 24 19 27 29.9990000  0  6G 2G 7G19G15G26G27
                   -226138.440 7   -176556.249 6  21025638.800    21025641.261
        20.000          22.250
                  -2667302.995 6  -2080187.562 6  20372755.526    20372758.116
        18.250          22.500
                   4170691.588 5   3251537.170 5  23111054.761    23111058.605
         9.000          10.250
                   -521393.958 4   -411634.389 5  23544100.815    23544104.886
         6.750           8.750
                  -2743467.654 5  -2139590.483 5  23196308.315    23196310.226
        10.250          10.500
                   1775249.060 6   1385809.965 6  20602270.558    20602272.995
        17.750          21.000
 95  4 24 19 27 44.9990000  0  6G 2G 7G19G15G26G27
                   -224434.002 7   -175228.117 6  21025962.995    21025965.597
        20.000          22.500
                  -2683819.459 6  -2093057.529 6  20369612.597    20369615.159
        18.250          22.500
                   4214827.859 5   3285929.021 5  23119454.089    23119457.569
         9.500          10.250
                   -516744.613 4   -408011.520 5  23544985.417    23544989.144
         6.750           8.500
                  -2760944.143 5  -2153208.525 5  23192982.855    23192985.116
        10.250          10.500
                   1799903.811 6   1405021.446 6  20606962.136    20606964.687
        17.750          21.000
 95  4 24 19 27 59.9990000  0  6G 2G 7G19G15G26G27
                   -222673.845 7   -173856.568 6  21026297.894    21026300.565
        20.000          22.250
                  -2700203.069 6  -2105823.976 6  20366494.948    20366497.444
        18.250          22.250
                   4259034.787 5   3320375.932 5  23127866.214    23127870.237
         9.250          10.250
                   -511937.347 4   -404265.610 5  23545901.269    23545904.448
         7.250           8.750
                  -2778273.960 5  -2166712.283 5  23189685.284    23189687.546
        10.250          10.500
                   1824694.883 6   1424339.153 6  20611679.636    20611682.276
        17.750          21.250
 95  4 24 19 28 14.9990000  0  6G 2G 7G19G15G26G27
                   -220853.428 7   -172438.063 6  21026644.425    21026646.983
        20.000          22.000
                  -2716451.433 6  -2118485.035 6  20363403.058    20363405.448
        18.250          22.000
                   4303315.951 5   3354880.687 5  23136292.651    23136296.417
         9.500          10.000
                   -506969.643 4   -400394.668 5  23546846.300    23546849.597
         7.250           9.000
                  -2795453.848 5  -2180099.215 5  23186415.972    23186418.163
        10.500          10.250
                   1849625.452 6   1443765.557 6  20616423.933    20616426.573
        17.500          21.250
 95  4 24 19 28 29.9990000  0  6G 2G 7G19G15G26G27
                   -218972.497 6   -170972.403 6  21027002.315    21027004.870
        19.750          22.000
                  -2732565.973 6  -2131041.815 6  20360336.401    20360338.835
        18.000          22.000
                   4347668.769 5   3389441.284 5  23144732.612    23144736.276
         9.000           9.750
                   -501843.213 5   -396400.045 5  23547821.847    23547825.433
         7.750           9.250
                  -2812485.960 5  -2193371.004 5  23183174.831    23183177.230
        10.500          10.250
                   1874694.793 6   1463300.092 6  20621194.534    20621197.175
        17.500          21.500
 95  4 24 19 28 44.9990000  0  6G 2G 7G19G15G26G27
                   -217026.918 6   -169456.371 6  21027372.433    21027375.101
        19.750          22.000
                  -2748544.601 6  -2143492.692 6  20357295.745    20357298.210
        18.000          21.750
                   4392092.432 5   3424057.073 5  23153186.448    23153190.210
         9.250          10.000
                   -496556.737 5   -392280.709 5  23548827.964    23548831.710
         7.750           9.250
                  -2829366.329 5  -2206524.538 5  23179962.378    23179965.054
        10.500          10.250
                   1899903.595 6   1482943.299 6  20625991.425    20625994.245
        17.250          21.250
 95  4 24 19 28 59.9990000  0  6G 2G 7G19G15G26G27
                   -215012.937 7   -167887.040 6  21027755.761    21027758.480
        20.000          22.250
                  -2764383.487 6  -2155834.678 6  20354281.565    20354284.085
        18.000          22.000
                   4436589.326 5   3458729.936 5  23161653.589    23161657.690
         9.000           9.750
                   -491108.977 5   -388035.700 5  23549864.550    23549867.948
         7.750           9.500
                  -2846090.940 5  -2219556.713 5  23176779.870    23176782.483
        10.250          10.500
                   1925252.563 6   1502695.727 6  20630815.206    20630818.011
        17.500          21.500
 95  4 24 19 29 14.9990000  0  6G 2G 7G19G15G26G27
                   -212931.511 6   -166265.150 6  21028151.855    21028154.417
        19.750          22.000
                  -2780082.319 6  -2168067.528 6  20351294.253    20351296.866
        18.250          22.000
                   4481161.913 5   3493461.781 5  23170135.448    23170139.483
         9.000           9.750
                   -485501.938 5   -383666.595 5  23550931.362    23550935.159
         7.500           9.500
                  -2862660.800 5  -2232468.295 5  23173626.776    23173629.077
        10.250          10.500
                   1950740.218 6   1522556.224 6  20635665.245    20635667.940
        17.500          21.500
 95  4 24 19 29 29.9990000  0  6G 2G 7G19G15G26G27
                   -210781.608 7   -164589.898 6  21028561.065    21028563.468
        20.000          22.000
                  -2795637.688 6  -2180188.593 6  20348334.339    20348336.905
        18.250          22.000
                   4525815.574 5   3528256.785 5  23178632.862    23178636.800
         8.750           9.500
                   -479735.042 5   -379172.917 5  23552029.050    23552032.737
         7.500           9.250
                  -2879076.009 5  -2245259.370 5  23170503.034    23170505.417
        10.250          10.500
                   1976365.170 6   1542523.708 6  20640541.714    20640544.495
        17.250          21.250
 95  4 24 19 29 44.9990000  0  6G 2G 7G19G15G26G27
                   -208566.803 7   -162864.081 6  21028982.511    21028984.952
        20.250          22.250
                  -2811047.660 6  -2192196.359 6  20345401.972    20345404.597
        18.250          22.000
                   4570551.848 5   3563116.178 5  23187145.714    23187149.507
         9.000           9.250
                   -473809.836 4   -374555.880 5  23553156.026    23553159.925
         7.250           8.750
                  -2895337.425 5  -2257930.607 5  23167409.019    23167411.401
        10.250          10.750
                   2002123.228 6   1562594.911 6  20645443.409    20645445.995
        17.500          21.250
 95  4 24 19 29 59.9990000  0  6G 2G 7G19G15G26G27
                   -206288.186 7   -161088.534 6  21029416.222    21029418.851
        20.000          22.250
                  -2826311.283 6  -2204090.087 6  20342497.378    20342499.925
        18.500          22.000
                   4615372.414 5   3598041.245 5  23195674.956    23195678.659
         8.750           9.250
                   -467724.618 5   -369814.159 5  23554314.276    23554317.698
         7.500           8.750
                  -2911444.597 5  -2270481.654 5  23164343.675    23164346.382
        10.000          11.000
                   2028017.064 6   1582771.912 6  20650370.792    20650373.530
        17.500          21.000
 95  4 24 19 30 14.9990000  0  6G 2G 7G19G15G26G27
                   -203948.395 7   -159265.320 6  21029861.370    21029863.987
        20.000          22.250
                  -2841433.755 6  -2215873.828 6  20339619.620    20339622.214
        18.500          22.250
                   4660278.884 5   3633033.247 5  23204220.550    23204224.241
         8.750           9.250
                   -461481.983 5   -364949.755 5  23555502.526    23555505.741
         7.750           8.750
                  -2927403.230 5  -2282916.954 5  23161306.667    23161309.245
         9.750          11.000
                   2054042.343 6   1603051.337 6  20655323.089    20655325.886
        17.250          21.250
 95  4 24 19 30 29.9990000  0  6G 2G 7G19G15G26G27
                   -201545.900 6   -157393.247 6  21030318.550    21030321.265
        19.750          22.250
                  -2856413.821 6  -2227546.600 6  20336769.065    20336771.636
        18.500          22.250
                   4705273.618 5   3668094.034 5  23212782.581    23212786.288
         8.500           8.750
                   -455080.503 5   -359961.593 5  23556720.683    23556724.015
         8.000           9.000
                  -2943214.007 5  -2295237.039 5  23158297.980    23158300.472
         9.750          11.250
                   2080200.929 6   1623434.641 6  20660300.808    20660303.636
        17.250          21.000
 95  4 24 19 30 44.9990000  0  6G 2G 7G19G15G26G27
                   -199080.187 7   -155471.914 6  21030787.550    21030790.194
        20.000          22.000
                  -2871251.574 6  -2239108.487 6  20333945.550    20333948.194
        18.750          22.500
                   4750354.544 5   3703221.988 5  23221361.534    23221365.093
         8.250           8.750
                   -448521.281 5   -354850.519 5  23557968.886    23557972.276
         8.000           8.750
                  -2958878.608 5  -2307443.216 5  23155316.847    23155320.062
         9.500          11.500
                   2106490.683 6   1643920.147 6  20665303.792    20665306.538
        17.250          21.000
 95  4 24 19 30 59.9990000  0  7G 2G 7G19G15G26G27G12
                   -196554.712 7   -153504.014 6  21031268.511    21031270.925
        20.000          22.000
                  -2885946.449 6  -2250559.033 6  20331149.237    20331151.980
        18.500          22.500
                   4795523.161 5   3738418.261 5  23229956.511    23229960.655
         8.250           8.750
                   -441803.641 5   -349615.985 5  23559247.183    23559249.749
         8.250           8.250
                  -2974397.999 5  -2319536.248 5  23152363.526    23152366.913
         9.250          11.500
                   2132912.452 6   1664508.525 6  20670331.730    20670334.468
        17.250          21.000
                         1.78214                                  20670336.702
         4.000
 95  4 24 19 31 14.9990000  0  7G 2G 7G19G15G26G27G12
                   -193975.639 7   -151494.348 6  21031759.276    21031761.636
        20.250          22.000
                  -2900500.086 6  -2261899.527 6  20328379.698    20328382.573
        18.500          22.500
                   4840779.557 5   3773682.939 5  23238568.573    23238572.722
         8.250           9.000
                   -434927.170 5   -344257.695 5  23560555.745    23560558.593
         8.250           8.500
                  -2989775.032 5  -2331518.352 5  23149437.784    23149440.374
         9.500          11.500
                   2159469.282 6   1685202.143 6  20675385.222    20675388.058
        17.000          21.000
                    -35154.310 2    -29349.788 4  23710414.933    23710418.421
         4.250           3.750
 95  4 24 19 31 29.9990000  0  7G 2G 7G19G15G26G27G12
                   -191344.686 7   -149444.257 6  21032259.847    21032262.440
        20.000          22.000
                  -2914914.216 6  -2273131.315 6  20325636.706    20325639.456
        18.250          22.750
                   4886123.548 5   3809015.865 5  23247197.206    23247201.034
         8.250           8.750
                   -427890.878 5   -338774.879 5  23561894.511    23561897.933
         8.000           8.750
                  -3005010.964 5  -2343390.506 5  23146538.472    23146541.081
         9.500          11.500
                   2186163.217 6   1706002.595 6  20680464.964    20680467.710
        17.250          21.250
                    -72805.069 2    -58688.025 4  23703249.917    23703254.331
         4.500           4.000
 95  4 24 19 31 44.9990000  0  7G 2G 7G19G15G26G27G12
                   -188665.009 7   -147356.199 6  21032769.839    21032772.308
        20.000          22.000
                  -2929191.406 6  -2284256.396 6  20322919.948    20322922.679
        18.250          22.500
                   4931550.726 5   3844413.620 5  23255841.909    23255845.249
         8.500           8.250
                   -420696.358 5   -333168.764 5  23563263.917    23563267.339
         8.000           9.000
                  -3020108.931 5  -2355155.154 5  23143665.230    23143668.085
         9.750          11.750
                   2212991.292 6   1726907.574 6  20685570.065    20685573.003
        17.250          21.250
                   -110440.119 2    -88014.044 4  23696088.144    23696092.401
         4.500           4.250
 95  4 24 19 31 59.9990000  0  7G 2G 7G19G15G26G27G12
                   -185936.819 6   -145230.339 6  21033288.839    21033291.405
        19.750          22.000
                  -2943331.522 6  -2295274.663 6  20320228.980    20320231.718
        18.250          22.500
                   4977055.871 5   3879872.133 5  23264501.300    23264505.222
         8.500           8.500
                   -413342.600 5   -327438.571 5  23564662.831    23564666.491
         7.750           9.000
                  -3035069.034 5  -2366812.376 5  23140818.464    23140821.226
        10.000          11.750
                   2239956.832 6   1747919.670 6  20690701.495    20690704.300
        17.250          21.250
                   -148058.404 2   -117326.980 5  23688928.831    23688933.913
         4.250           4.500
 95  4 24 19 32 14.9990000  0  7G 2G 7G19G15G26G27G12
                   -183159.424 6   -143066.140 6  21033817.237    21033819.780
        19.750          21.750
                  -2957336.913 6  -2306187.952 6  20317563.847    20317566.616
        18.000          22.750
                   5022637.445 5   3915390.189 5  23273175.261    23273179.214
         8.500           8.750
                   -405829.748 5   -321584.400 5  23566092.573    23566096.175
         8.000           8.750
                  -3049892.185 5  -2378362.883 5  23137997.698    23138000.331
        10.000          11.500
                   2267061.966 6   1769040.537 6  20695859.550    20695862.308
        17.500          21.250
                   -185659.972 2   -146626.875 5  23681772.761    23681778.663
         4.250           4.750
 95  4 24 19 32 29.9990000  0  7G 2G 7G19G15G26G27G12
                   -180332.311 7   -140863.200 6  21034355.480    21034357.878
        20.000          21.750
                  -2971205.266 6  -2316994.459 6  20314924.636    20314927.499
        18.000          22.500
                   5068297.169 5   3950969.154 5  23281864.245    23281868.194
         8.500           8.750
                   -398156.505 5   -315605.262 5  23567552.620    23567556.007
         8.000           8.750
                  -3064574.783 5  -2389803.872 5  23135203.714    23135206.585
        10.250          11.500
                   2294307.764 6   1790271.014 6  20701044.214    20701046.980
        17.500          21.000
                   -223243.444 2   -175912.676 5  23674621.065    23674626.870
         4.500           5.000
 95  4 24 19 32 44.9990000  0  7G 2G 7G19G15G26G27G12
                   -177462.284 7   -138626.815 6  21034901.714    21034904.022
        20.000          21.750
                  -2984939.960 6  -2327696.815 6  20312310.870    20312313.851
        17.750          22.500
                   5114028.021 5   3986603.534 5  23290566.300    23290570.632
         8.500           9.000
                   -390326.681 5   -309504.099 5  23569043.292    23569046.569
         8.000           9.000
                  -3079116.228 5  -2401134.871 5  23132436.690    23132439.405
        10.500          11.500
                   2321689.033 6   1811607.056 6  20706254.784    20706257.417
        17.500          21.000
                   -260812.490 2   -205187.241 5  23667471.987    23667477.358
         4.750           5.000
 95  4 24 19 32 59.9990000  0  7G 2G 7G19G15G26G27G12
                   -174550.510 7   -136357.902 6  21035455.776    21035458.253
        20.000          21.750
                  -2998539.797 6  -2338294.092 6  20309722.862    20309725.831
        17.750          22.750
                   5159831.505 5   4022294.508 5  23299282.808    23299286.624
         8.750           9.000
                   -382338.730 5   -303279.726 5  23570562.878    23570566.370
         8.250           9.000
                  -3093515.114 5  -2412354.789 5  23129696.417    23129699.015
        10.500          11.250
                   2349204.540 6   1833047.699 6  20711490.769    20711493.460
        17.500          21.000
                   -298365.361 3   -234449.211 5  23660326.222    23660331.343
         5.250           5.250
 95  4 24 19 33 14.9990000  0  7G 2G 7G19G15G26G27G12
                   -171597.450 7   -134056.817 6  21036017.706    21036020.128
        20.000          21.750
                  -3012007.135 6  -2348788.117 6  20307160.198    20307163.105
        17.750          22.500
                   5205707.582 5   4058042.051 5  23308012.480    23308016.761
         8.500           9.000
                   -374193.375 5   -296932.701 5  23572112.659    23572115.886
         8.000           8.500
                  -3107772.267 5  -2423464.265 5  23126983.683    23126985.851
        10.750          11.250
                   2376852.186 6   1854591.302 6  20716752.058    20716754.843
        17.750          21.250
                   -335902.744 3   -263699.105 5  23653183.683    23653187.952
         5.750           5.250
 95  4 24 19 33 29.9990000  0  7G 2G 7G19G15G26G27G12
                   -168597.072 6   -131718.862 6  21036588.589    21036591.034
        19.750          21.750
                  -3025340.454 6  -2359177.714 6  20304623.026    20304625.835
        17.750          22.500
                   5251656.684 5   4093846.505 5  23316756.448    23316761.046
         8.500           9.250
                   -365888.826 5   -290461.627 5  23573693.409    23573696.397
         8.000           8.250
                  -3121883.590 5  -2434460.107 5  23124298.339    23124300.897
        10.750          11.250
                   2404632.687 6   1876238.431 6  20722038.659    20722041.315
        17.750          21.250
                   -373422.768 3   -292935.482 5  23646043.776    23646047.925
         5.750           5.250
 95  4 24 19 33 44.9990000  0  7G 2G 7G19G15G26G27G12
                   -165547.633 6   -129342.680 6  21037168.815    21037171.304
        19.750          21.750
                  -3038538.007 6  -2369461.518 6  20302111.698    20302114.546
        18.000          22.500
                   5297677.567 5   4129706.874 5  23325513.698    23325518.319
         8.500           9.500
                   -357425.548 5   -283866.876 5  23575304.011    23575306.940
         8.000           8.500
                  -3135849.008 5  -2445342.252 5  23121640.597    23121643.413
        10.750          11.250
                   2432543.514 6   1897987.114 6  20727349.925    20727352.585
        17.750          21.250
                   -410925.684 3   -322158.515 5  23638907.011    23638911.538
         5.750           5.500
 95  4 24 19 33 59.9990000  0  7G 2G 7G19G15G26G27G12
                   -162445.493 6   -126925.428 6  21037759.120    21037761.636
        19.750          21.750
                  -3051595.866 6  -2379636.470 6  20299626.878    20299629.769
        17.750          22.250
                   5343772.594 5   4165625.023 5  23334285.792    23334290.120
         8.500           9.500
                   -348800.298 5   -277145.902 5  23576944.815    23576948.487
         7.500           8.500
                  -3149662.494 5  -2456106.018 5  23119012.159    23119014.573
        10.750          11.000
                   2460587.317 6   1919839.415 6  20732686.448    20732689.022
        17.750          21.000
                   -448408.199 3   -351365.647 5  23631774.386    23631779.097
         6.000           5.750
 95  4 24 19 34 14.9990000  0  7G 2G 7G19G15G26G27G12
                   -159295.006 6   -124470.505 6  21038358.659    21038361.222
        19.750          21.750
                  -3064519.097 6  -2389706.518 6  20297167.886    20297170.601
        18.000          22.500
                   5389939.060 5   4201598.848 5  23343070.948    23343074.956
         8.500           9.500
                   -340018.020 5   -270302.578 5  23578616.058    23578619.605
         7.750           8.500
                  -3163328.140 5  -2466754.579 5  23116411.628    23116414.241
        10.750          11.000
                   2488758.982 6   1941791.345 6  20738047.206    20738049.796
        17.750          21.000
                   -485874.994 4   -380560.539 5  23624644.612    23624649.538
         6.250           6.000
 95  4 24 19 34 29.9990000  0  7G 2G 7G19G15G26G27G12
                   -156092.600 6   -121975.126 6  21038968.019    21038970.483
        19.750          21.750
                  -3077306.037 6  -2399670.363 6  20294734.612    20294737.214
        18.250          22.500
                   5436181.664 5   4237631.989 5  23351870.597    23351875.058
         8.250           9.750
                   -331077.740 5   -263336.127 5  23580317.542    23580321.054
         7.750           8.750
                  -3176843.264 5  -2477285.849 5  23113839.722    23113842.808
        10.500          11.000
                   2517056.829 6   1963841.602 6  20743432.105    20743434.745
        17.500          21.000
                   -523325.126 4   -409742.448 5  23617517.948    23617523.304
         6.250           6.250
 95  4 24 19 34 44.9990000  0  7G 2G 7G19G15G26G27G12
                   -152837.404 6   -119438.612 6  21039587.558    21039590.015
        19.750          21.750
                  -3089955.173 6  -2409526.825 6  20292327.511    20292330.269
        18.250          22.500
                   5482499.085 5   4273723.432 5  23360684.550    23360688.929
         8.250          10.000
                   -321978.614 5   -256245.894 5  23582048.948    23582052.753
         8.000           9.000
                  -3190207.083 5  -2487699.217 5  23111296.831    23111299.269
        10.500          10.750
                   2545480.302 6   1985989.748 6  20748841.065    20748843.698
        17.750          21.000
                   -560757.637 4   -438910.614 5  23610394.526    23610399.577
         6.500           6.250
 95  4 24 19 34 59.9990000  0  7G 2G 7G19G15G26G27G12
                   -149525.122 6   -116857.618 6  21040217.776    21040220.405
        19.750          21.500
                  -3102464.661 6  -2419274.478 6  20289947.175    20289949.765
        18.250          22.500
                   5528889.344 5   4309871.630 5  23369512.448    23369516.882
         8.250          10.000
                   -312719.681 5   -249031.146 5  23583810.683    23583814.862
         8.250           9.000
                  -3203421.926 5  -2497996.501 5  23108782.175    23108784.558
        10.250          10.500
                   2574032.206 6   2008237.969 6  20754274.198    20754276.980
        17.750          21.250
                   -598171.338 4   -468064.135 5  23603275.151    23603279.706
         6.750           6.500
 95  4 24 19 35 14.9990000  0  7G 2G 7G19G15G26G27G12
                   -146151.712 6   -114228.988 6  21040859.761    21040862.335
        19.500          21.500
                  -3114833.115 6  -2428912.231 6  20287593.409    20287596.241
        18.250          22.500
                   5575354.237 5   4346077.982 5  23378354.667    23378359.026
         8.250          10.000
                   -303300.927 5   -241691.863 5  23585603.401    23585607.573
         8.250           9.000
                  -3216490.864 5  -2508180.096 5  23106295.237    23106298.065
        10.000          10.750
                   2602715.279 6   2030588.404 6  20759732.339    20759735.089
        17.500          21.250
                   -635566.239 4   -497203.008 5  23596158.964    23596163.960
         7.000           6.750
 95  4 24 19 35 29.9990000  0  7G 2G 7G19G15G26G27G12
                   -142716.800 6   -111552.437 6  21041513.315    21041515.847
        19.500          21.500
                  -3127060.266 6  -2438439.874 6  20285266.636    20285269.526
        18.250          22.500
                   5621891.423 5   4382340.666 5  23387210.433    23387214.913
         8.250           9.750
                   -293722.970 5   -234228.536 5  23587425.745    23587429.968
         8.000           8.750
                  -3229413.598 5  -2518249.762 5  23103836.003    23103838.663
        10.000          10.750
                   2631530.979 6   2053042.185 6  20765215.980    20765218.698
        17.500          21.000
                   -672942.797 4   -526327.587 5  23589046.409    23589051.261
         7.250           6.750
 95  4 24 19 35 44.9990000  0  7G 2G 7G19G15G26G27G12
                   -139222.346 6   -108829.488 6  21042178.261    21042180.788
        19.500          21.500
                  -3139144.110 6  -2447855.856 6  20282967.245    20282970.159
        18.250          22.500
                   5668501.506 5   4418660.149 5  23396079.698    23396084.331
         7.750           9.750
                   -283986.065 5   -226641.346 5  23589278.472    23589282.315
         7.750           8.500
                  -3242191.628 5  -2528206.670 5  23101404.565    23101406.937
        10.000          10.750
                   2660479.803 6   2075599.698 6  20770724.784    20770727.343
        17.750          21.000
                   -710301.131 5   -555437.958 5  23581937.534    23581942.437
         7.500           7.000
 95  4 24 19 35 59.9990000  0  7G 2G 7G19G15G26G27G12
                   -135667.245 6   -106059.284 6  21042854.956    21042857.261
        19.500          21.500
                  -3151084.136 6  -2457159.767 6  20280695.026    20280697.925
        18.250          22.500
                   5715186.028 5   4455037.648 5  23404963.886    23404967.870
         8.000           9.500
                   -274088.646 5   -218929.063 5  23591162.480    23591165.288
         8.000           8.250
                  -3254823.987 5  -2538050.075 5  23099000.597    23099003.151
        10.000          10.750
                   2689562.798 6   2098261.753 6  20776259.190    20776261.776
        17.750          21.000
                   -747639.479 5   -584532.763 5  23574832.409    23574837.292
         7.500           7.250
 95  4 24 19 36 14.9990000  0  7G 2G 7G19G15G26G27G12
                   -132049.466 6   -103240.240 6  21043543.315    21043545.835
        19.500          21.500
                  -3162878.998 6  -2466350.564 6  20278450.511    20278453.538
        18.000          22.500
                   5761946.244 5   4491474.130 5  23413861.792    23413866.417
         7.750           9.500
                   -264029.216 5   -211090.553 5  23593076.628    23593079.866
         8.250           7.750
                  -3267307.963 5  -2547777.853 5  23096624.628    23096627.808
        10.000          11.250
                   2718781.866 6   2121029.839 6  20781819.464    20781821.987
        18.000          21.000
                   -784956.177 5   -613610.694 5  23567730.839    23567736.276
         7.750           7.500
 95  4 24 19 36 29.9990000  0  7G 2G 7G19G15G26G27G12
                   -128369.872 6   -100373.024 6  21044243.464    21044246.120
        19.500          21.250
                  -3174529.466 6  -2475428.847 6  20276233.433    20276236.405
        18.000          22.500
                   5808779.017 5   4527967.141 5  23422774.034    23422778.526
         7.750           9.750
                   -253809.927 5   -203127.481 5  23595021.167    23595024.784
         8.250           8.000
                  -3279648.448 5  -2557393.809 5  23094276.597    23094279.456
        10.250          11.250
                   2748136.177 6   2143903.317 6  20787405.308    20787407.940
        18.000          20.750
                   -822253.271 5   -642673.350 5  23560633.558    23560638.808
         8.000           7.750
 95  4 24 19 36 44.9990000  0  7G 2G 7G19G15G26G27G12
                   -124627.664 6    -97457.018 6  21044955.683    21044958.058
        19.500          21.500
                  -3186036.129 6  -2484395.074 6  20274043.651    20274046.644
        18.000          22.500
                   5855683.571 5   4564516.085 5  23431699.815    23431704.429
         7.750          10.000
                   -243429.992 5   -195039.218 5  23596996.230    23596999.983
         8.500           8.250
                  -3291842.881 5  -2566895.970 5  23091956.245    23091958.862
        10.500          11.500
                   2777626.370 6   2166882.669 6  20793016.995    20793019.679
        17.750          21.000
                   -859529.953 5   -671720.108 5  23553539.964    23553545.132
         8.000           7.750
 95  4 24 19 36 59.9990000  0  7G 2G 7G19G15G26G27G12
                   -120826.042 6    -94494.720 6  21045679.175    21045681.312
        19.750          21.250
                  -3197401.114 6  -2493250.901 6  20271880.776    20271883.769
        18.000          22.500
                   5902658.551 4   4601119.897 5  23440638.112    23440643.390
         7.250           9.500
                   -232891.488 5   -186827.394 5  23599002.292    23599005.390
         8.750           8.500
                  -3303893.011 5  -2576285.683 5  23089662.964    23089666.011
        10.500          11.750
                   2807251.173 6   2189966.916 6  20798654.612    20798657.163
        17.750          20.750
                   -896787.940 5   -700752.286 5  23546450.222    23546454.909
         8.500           8.000
 95  4 24 19 37 14.9990000  0  7G 2G 7G19G15G26G27G12
                   -116964.582 6    -91485.794 6  21046413.878    21046416.218
        19.500          21.250
                  -3208623.634 6  -2501995.719 6  20269745.370    20269748.483
        18.000          22.500
                   5949707.964 5   4637781.716 5  23449591.925    23449596.327
         7.750           8.750
                   -222192.791 5   -178490.762 5  23601038.042    23601041.538
         8.750           8.750
                  -3315794.569 5  -2585559.631 5  23087398.315    23087401.124
        10.750          11.500
                   2837012.214 6   2213157.321 6  20804317.823    20804320.405
        17.750          20.750
                   -934025.535 5   -729768.584 5  23539364.159    23539368.749
         8.750           8.250
 95  4 24 19 37 29.9990000  0  7G 2G 7G19G15G26G27G12
                   -113049.539 6    -88435.116 6  21047158.964    21047161.573
        19.500          21.500
                  -3219708.926 6  -2510633.603 6  20267635.956    20267638.905
        18.000          22.500
                   5996832.528 5   4674502.120 5  23458559.425    23458563.460
         7.750           8.500
                   -211335.534 5   -170030.569 5  23603103.589    23603107.784
         8.250           8.500
                  -3327548.009 5  -2594718.162 5  23085161.706    23085164.440
        10.750          11.750
                   2866905.638 6   2236450.884 6  20810006.394    20810008.925
        17.750          20.750
                   -971244.211 5   -758770.128 5  23532281.542    23532285.894
         8.750           8.250
 95  4 24 19 37 44.9990000  0  7G 2G 7G19G15G26G27G12
                   -109082.984 6    -85344.299 6  21047914.026    21047916.429
        19.750          21.500
                  -3230656.559 6  -2519164.222 6  20265552.753    20265555.765
        18.000          22.500
                   6044029.736 5   4711279.114 5  23467541.440    23467545.815
         8.000           9.250
                   -200318.468 5   -161445.846 5  23605200.089    23605204.077
         8.000           8.250
                  -3339149.774 5  -2603758.497 5  23082953.815    23082956.792
        10.500          11.750
                   2896932.301 6   2259848.267 6  20815720.253    20815722.788
        17.500          20.750
                  -1008442.574 5   -787755.855 5  23525203.089    23525207.823
         9.000           8.750
 95  4 24 19 37 59.9990000  0  7G 2G 7G19G15G26G27G12
                   -105065.718 6    -82213.967 6  21048678.480    21048680.772
        19.750          21.500
                  -3241470.403 6  -2527590.590 6  20263495.081    20263497.804
        18.250          22.500
                   6091299.449 5   4748112.591 5  23476536.362    23476541.089
         8.000           9.500
                   -189142.604 5   -152737.392 5  23607327.175    23607331.022
         8.500           8.250
                  -3350599.369 5  -2612680.270 5  23080775.394    23080778.210
        10.750          11.750
                   2927092.193 6   2283349.466 6  20821459.511    20821462.194
        17.500          20.750
                  -1045621.525 5   -816726.453 5  23518128.362    23518133.159
         9.250           9.000
 95  4 24 19 38 14.9990000  0  7G 2G 7G19G15G26G27G12
                   -100996.181 6    -79042.902 6  21049452.714    21049455.093
        19.500          21.250
                  -3252150.016 6  -2535912.360 6  20261462.651    20261465.530
        18.000          22.500
                   6138643.183 5   4785003.756 5  23485545.605    23485549.980
         8.000           9.000
                   -177806.856 5   -143904.349 5  23609484.300    23609487.358
         8.500           7.750
                  -3361894.335 5  -2621481.540 5  23078626.081    23078629.116
        10.750          11.750
                   2957387.257 6   2306955.993 6  20827224.620    20827227.214
        17.500          20.750
                  -1082779.834 5   -845680.966 5  23511057.112    23511061.960
         9.250           9.250
 95  4 24 19 38 29.9990000  0  7G 2G 7G19G15G26G27G12
                    -96874.044 6    -75830.850 6  21050237.034    21050239.581
        19.500          21.250
                  -3262693.538 6  -2544128.087 6  20259456.245    20259459.175
        18.250          22.500
                   6186061.829 5   4821953.298 5  23494568.980    23494573.589
         8.250           8.750
                   -166311.210 5   -134946.711 5  23611671.980    23611674.812
         8.750           7.500
                  -3373036.488 5  -2630163.743 5  23076505.550    23076508.444
        10.500          11.500
                   2987819.993 6   2330669.797 6  20833015.737    20833018.382
        17.750          21.000
                  -1119917.305 5   -874619.232 5  23503989.964    23503994.929
         9.500           9.250
 95  4 24 19 38 44.9990000  0  7G 2G 7G19G15G26G27G12
                    -92699.727 6    -72578.136 6  21051031.300    21051033.960
        19.500          21.250
                  -3273103.576 6  -2552239.799 6  20257475.237    20257478.093
        18.250          22.500
                   6233556.356 5   4858961.979 5  23503607.050    23503611.632
         8.500           8.750
                   -154656.038 5   -125864.754 5  23613889.706    23613892.554
         8.750           7.250
                  -3384024.649 5  -2638725.949 5  23074414.487    23074417.339
        10.250          11.250
                   3018390.560 6   2354490.999 6  20838833.105    20838835.780
        17.500          21.000
                  -1157034.090 5   -903541.389 5  23496926.886    23496931.378
         9.500           9.250
 95  4 24 19 38 59.9990000  0  7G 2G 7G19G15G26G27G12
                    -88475.550 6    -69286.573 6  21051835.269    21051837.628
        19.500          21.250
                  -3283379.323 6  -2560246.871 6  20255519.956    20255522.730
        18.250          22.500
                   6281126.579 5   4896029.630 5  23512659.073    23512663.675
         8.000           8.500
                   -142841.222 5   -116658.391 5  23616138.347    23616141.237
         8.750           7.250
                  -3394858.199 5  -2647167.683 5  23072352.784    23072355.593
        10.250          11.250
                   3049098.160 6   2378418.979 6  20844676.511    20844679.214
        17.500          21.000
                  -1194130.067 5   -932447.335 5  23489867.675    23489872.456
         9.500           9.250
 95  4 24 19 39 14.9990000  0  7G 2G 7G19G15G26G27G12
                    -84204.596 6    -65958.558 6  21052647.909    21052650.187
        19.500          21.250
                  -3293519.733 6  -2568148.488 6  20253590.417    20253593.183
        18.250          22.500
                   6328769.876 5   4933154.227 5  23521725.480    23521729.593
         8.250           8.250
                   -130867.924 5   -107328.553 5  23618416.112    23618420.132
         8.250           7.500
                  -3405539.485 5  -2655490.767 5  23070320.675    23070323.526
        10.250          11.000
                   3079942.610 6   2402453.595 6  20850545.964    20850548.675
        17.000          20.750
                  -1231206.114 5   -961337.747 5  23482812.534    23482817.253
         9.500           9.250
 95  4 24 19 39 29.9990000  0  7G 2G 7G19G15G26G27G12
                    -79885.428 6    -62592.978 6  21053469.862    21053472.276
        19.500          21.250
                  -3303524.303 6  -2575944.249 6  20251686.605    20251689.386
        18.500          22.500
                   6376486.872 5   4970336.256 5  23530805.980    23530810.269
         8.250           8.750
                   -118734.615 5    -97874.038 5  23620725.401    23620728.585
         8.250           7.500
                  -3416069.487 5  -2663695.967 5  23068317.034    23068319.980
        10.250          11.000
                   3110926.412 6   2426596.798 6  20856442.034    20856444.862
        17.000          21.000
                  -1268260.520 5   -990211.300 5  23475761.261    23475766.022
         9.750           9.250
 95  4 24 19 39 44.9990000  0  7G 2G 7G19G15G26G27G12
                    -75516.894 6    -59188.930 6  21054301.198    21054303.640
        19.500          21.250
                  -3313393.892 6  -2583634.833 6  20249808.511    20249811.226
        18.500          22.500
                   6424273.483 5   5007572.516 5  23539899.136    23539904.038
         8.000           9.000
                   -106443.304 5    -88296.410 5  23623064.698    23623067.554
         8.500           7.750
                  -3426452.469 5  -2671786.606 5  23066340.831    23066344.167
        10.000          10.750
                   3142047.692 6   2450847.126 6  20862364.198    20862367.003
        16.750          21.000
                  -1305295.250 5  -1019069.521 5  23468713.855    23468718.155
         9.750           9.500
 95  4 24 19 39 59.9990000  0  7G 2G 7G19G15G26G27G12
                    -71095.046 6    -55743.337 6  21055142.722    21055145.214
        19.500          21.250
                  -3323126.428 6  -2591218.621 6  20247956.526    20247959.241
        18.500          22.750
                   6472130.677 5   5044863.772 5  23549006.073    23549010.897
         8.000           8.750
                    -93994.206 5    -78595.822 5  23625433.230    23625436.636
         8.750           7.750
                  -3436688.654 5  -2679762.860 5  23064392.933    23064395.956
        10.250          11.000
                   3173306.299 6   2475204.466 6  20868312.534    20868315.339
        17.000          21.000
                  -1342310.228 5  -1047912.345 5  23461670.105    23461674.636
         9.500           9.750
 95  4 24 19 40 14.9990000  0  7G 2G 7G19G15G26G27G12
                    -66615.276 6    -52252.610 6  21055995.112    21055997.468
        19.500          21.000
                  -3332718.286 6  -2598692.795 6  20246131.175    20246133.937
        18.500          22.500
                   6520062.801 5   5082213.426 5  23558127.472    23558131.831
         7.750           8.500
                    -81385.035 5    -68770.497 5  23627832.269    23627835.905
         8.250           8.000
                  -3446776.094 5  -2687623.211 5  23062473.706    23062476.378
        10.250          11.000
                   3204703.670 6   2499669.930 6  20874287.355    20874290.050
        17.000          21.000
                  -1379303.121 5  -1076737.956 5  23454630.480    23454635.276
         9.500          10.000
 95  4 24 19 40 29.9990000  0  7G 2G 7G19G15G26G27G12
                    -62075.739 6    -48715.311 6  21056859.183    21056861.163
        19.500          21.000
                  -3342166.717 6  -2606055.206 6  20244333.315    20244336.022
        18.500          22.500
                   6568067.251 5   5119619.437 5  23567262.253    23567266.917
         7.500           8.500
                    -68616.201 5    -58820.760 5  23630262.644    23630266.222
         8.750           8.000
                  -3456717.848 5  -2695370.035 5  23060581.550    23060584.687
        10.250          11.000
                   3236237.777 6   2524241.942 6  20880288.050    20880290.765
        17.000          21.000
                  -1416273.938 5  -1105546.372 5  23447595.315    23447599.956
         9.750          10.250
 95  4 24 19 40 44.9990000  0  7G 2G 7G19G15G26G27G12
                    -57476.269 6    -45131.314 6  21057734.440    21057736.569
        19.750          21.000
                  -3351473.832 6  -2613307.497 6  20242562.190    20242564.882
        18.500          22.500
                   6616143.095 5   5157081.073 5  23576410.823    23576415.757
         7.500           8.750
                    -55687.628 5    -48746.550 5  23632723.206    23632726.464
         9.000           8.000
                  -3466514.033 5  -2703003.436 5  23058717.534    23058720.194
        10.500          10.750
                   3267906.202 6   2548918.618 6  20886314.433    20886317.210
        17.000          21.250
                  -1453222.531 5  -1134337.459 5  23440563.831    23440568.769
         9.500          10.000
 95  4 24 19 40 59.9990000  0  7G 2G 7G19G15G26G27G12
                    -52816.584 6    -41500.389 6  21058620.925    21058623.421
        19.500          21.250
                  -3360640.549 6  -2620450.391 6  20240817.722    20240820.421
        18.750          22.500
                   6664290.630 5   5194598.567 5  23585572.964    23585578.022
         7.500           8.500
                    -42599.697 5    -38548.166 5  23635213.128    23635216.874
         8.750           8.000
                  -3476164.397 5  -2710523.207 5  23056881.167    23056883.362
        10.750          10.750
                   3299705.601 6   2573697.350 6  20892365.683    20892368.565
        17.000          21.000
                  -1490149.126 5  -1163111.420 5  23433537.136    23433541.522
         9.500          10.000
 95  4 24 19 41 14.9990000  0  7G 2G 7G19G15G26G27G12
                    -48097.340 6    -37823.061 6  21059518.987    21059521.526
        19.500          21.500
                  -3369668.058 6  -2627484.807 6  20239099.917    20239102.589
        18.750          22.250
                   6712507.294 5   5232169.931 5  23594748.308    23594752.745
         7.500           8.250
                    -29353.818 5    -28226.714 5  23637733.628    23637736.968
         8.500           7.750
                  -3485673.018 5  -2717932.529 5  23055071.511    23055074.140
        10.750          11.000
                   3331632.804 6   2598575.671 6  20898441.183    20898443.995
        16.750          21.000
                  -1527055.025 5  -1191869.248 5  23426514.081    23426518.812
         9.500           9.750
 95  4 24 19 41 29.9990000  0  7G 2G 7G19G15G26G27G12
                    -43314.154 6    -34095.905 6  21060429.315    21060431.851
        19.500          21.500
                  -3378558.577 6  -2634412.480 6  20237408.159    20237410.909
        18.750          22.250
                   6760794.206 4   5269796.046 5  23603936.730    23603941.858
         7.250           8.750
                    -15949.619 5    -17781.886 5  23640284.839    23640288.105
         9.000           7.750
                  -3495042.249 5  -2725233.241 5  23053288.925    23053291.409
        11.000          11.250
                   3363688.926 6   2623554.451 6  20904541.159    20904544.026
        16.750          21.000
                  -1563939.689 5  -1220610.519 5  23419495.050    23419499.780
         9.250           9.750
 95  4 24 19 41 44.9990000  0  7G 2G 7G19G15G26G27G12
                    -38461.095 6    -30314.301 6  21061352.605    21061355.265
        19.250          21.500
                  -3387312.539 6  -2641233.743 6  20235742.292    20235745.007
        18.750          22.250
                   6809153.253 4   5307478.343 5  23613139.331    23613144.476
         7.000           8.750
                     -2384.460 5     -7211.634 5  23642866.269    23642869.140
         9.000           7.750
                  -3504270.733 5  -2732424.278 5  23051532.698    23051535.331
        11.000          11.500
                   3395875.494 6   2648634.877 6  20910666.206    20910669.159
        16.750          21.250
                  -1600800.168 5  -1249332.962 5  23412480.980    23412485.437
         9.250           9.500
 95  4 24 19 41 59.9990000  0  7G 2G 7G19G15G26G27G12
                    -33541.192 6    -26480.611 6  21062288.823    21062291.647
        19.250          21.750
                  -3395932.015 6  -2647950.213 6  20234102.058    20234104.792
        18.750          22.000
                   6857581.381 4   5345214.480 5  23622354.651    23622359.808
         6.750           8.250
                     11338.925 5      3481.912 5  23645477.651    23645480.823
         9.000           7.750
                  -3513358.640 5  -2739505.766 5  23049803.308    23049806.019
        11.000          11.750
                   3428189.461 6   2673814.575 6  20916815.362    20916818.284
        16.750          21.250
                  -1637638.995 5  -1278038.527 5  23405470.620    23405475.112
         9.000           9.250
 95  4 24 19 42 14.9990000  0  7G 2G 7G19G15G26G27G12
                    -28556.655 6    -22596.562 6  21063237.370    21063240.187
        19.500          21.500
                  -3404419.381 6  -2654563.742 6  20232486.847    20232489.624
        18.750          22.000
                   6906079.079 4   5383004.835 5  23631583.847    23631589.108
         7.000           8.000
                     25219.550 5     14297.978 5  23648119.003    23648122.202
         8.750           8.000
                  -3522307.072 5  -2746478.579 5  23048100.417    23048102.976
        10.750          11.750
                   3460630.294 6   2699093.132 6  20922988.597    20922991.683
        16.500          21.250
                  -1674457.015 5  -1306727.878 5  23398464.573    23398469.112
         9.000           9.250
 95  4 24 19 42 29.9990000  0  7G 2G 7G19G15G26G27G12
                    -23507.998 6    -18662.543 6  21064198.128    21064200.769
        19.500          21.500
                  -3412773.139 6  -2661073.158 6  20230897.159    20230899.843
        18.750          21.750
                   6954646.635 4   5420849.617 5  23640825.753    23640830.823
         7.000           8.000
                     39258.969 5     25237.776 5  23650790.230    23650793.679
         8.500           8.250
                  -3531116.575 5  -2753343.127 5  23046424.081    23046426.706
        10.750          11.500
                   3493199.085 6   2724471.396 6  20929186.144    20929189.327
        16.250          21.000
                  -1711252.331 5  -1335399.541 5  23391462.730    23391467.288
         9.000           9.500
 95  4 24 19 42 44.9990000  0  7G 2G 7G19G15G26G27G12
                    -18396.279 6    -14679.390 6  21065170.894    21065173.300
        19.750          21.500
                  -3420993.825 6  -2667478.885 6  20229332.839    20229335.515
        18.750          22.000
                   7003286.500 4   5458750.751 5  23650081.839    23650086.800
         7.250           7.750
                     53459.070 5     36302.788 5  23653492.597    23653496.276
         8.500           8.750
                  -3539787.456 5  -2760099.662 5  23044774.159    23044776.882
        10.750          11.500
                   3525898.617 6   2749951.531 6  20935408.550    20935411.722
        16.250          21.000
                  -1748023.059 5  -1364052.035 5  23384465.464    23384470.097
         8.750           9.500
 95  4 24 19 42 59.9990000  0  7G 2G 7G19G15G26G27G12
                    -13224.828 6    -10649.688 6  21066155.011    21066157.522
        19.500          21.250
                  -3429084.774 6  -2673783.516 6  20227793.245    20227795.894
        18.750          22.000
                   7051997.553 5   5496707.357 5  23659351.933    23659356.276
         7.500           8.000
                     67818.394 5     47491.867 5  23656225.503    23656228.440
         8.750           8.500
                  -3548319.066 5  -2766747.676 5  23043150.823    23043153.335
        10.750          11.500
                   3558727.967 6   2775532.825 6  20941655.894    20941658.952
        16.500          21.000
                  -1784770.323 5  -1392686.254 5  23377472.472    23377477.147
         8.500           9.500
 95  4 24 19 43 14.9990000  0  7G 2G 7G19G15G26G27G12
                     -7995.303 6     -6574.736 6  21067149.980    21067152.608
        19.250          21.500
                  -3437046.215 6  -2679987.231 6  20226278.284    20226281.030
        18.750          22.000
                   7100775.020 4   5534715.709 5  23668633.394    23668638.394
         7.000           7.750
                     82334.811 5     58803.360 5  23658987.644    23658990.851
         8.750           8.500
                  -3556711.638 5  -2773287.346 5  23041553.526    23041556.101
        10.500          11.250
                   3591687.424 6   2801215.503 6  20947928.019    20947930.983
        16.500          21.000
                  -1821496.083 5  -1421303.712 5  23370483.573    23370488.112
         8.250           9.000
 95  4 24 19 43 29.9990000  0  7G 2G 7G19G15G26G27G12
                     -2708.609 6     -2455.237 6  21068156.026    21068158.562
        19.500          21.250
                  -3444877.645 6  -2686089.640 6  20224787.855    20224790.655
        18.750          21.750
                   7149619.209 4   5572776.037 5  23677928.120    23677933.601
         7.000           7.750
                     97010.531 5     70238.980 5  23661780.425    23661784.210
         8.750           8.750
                  -3564960.541 5  -2779715.067 5  23039983.886    23039986.300
        10.500          11.000
                   3624782.139 6   2827003.578 6  20954225.644    20954228.675
        16.500          20.750
                  -1858198.067 5  -1449902.640 5  23363499.565    23363503.815
         8.250           8.750
 95  4 24 19 43 44.9990000  0  7G 2G 7G19G15G26G27G12
                      2631.638 6      1705.992 6  21069172.269    21069174.601
        19.500          21.500
                  -3452578.948 6  -2692090.653 6  20223322.401    20223325.163
        18.750          22.000
                   7198528.788 5   5610887.338 5  23687235.940    23687239.933
         7.500           7.250
                    111844.180 5     81797.661 5  23664602.855    23664606.413
         8.500           8.750
                  -3573062.987 5  -2786028.664 5  23038441.940    23038444.718
        10.500          11.000
                   3658011.812 6   2852896.813 6  20960549.183    20960552.155
        16.500          21.000
                  -1894877.220 5  -1478483.780 5  23356519.683    23356523.769
         8.250           8.750
 95  4 24 19 43 59.9990000  0  7G 2G 7G19G15G26G27G12
                      8021.260 6      5905.697 6  21070198.120    21070200.487
        19.750          21.500
                  -3460147.529 6  -2697988.246 6  20221881.987    20221884.694
        18.750          22.000
                   7247506.715 4   5649051.917 5  23696555.987    23696560.331
         7.250           7.000
                    126835.916 5     93479.536 5  23667455.894    23667459.503
         8.500           9.000
                  -3581014.330 5  -2792224.523 5  23036928.651    23036931.519
        10.250          10.750
                   3691375.598 6   2878894.554 6  20966898.042    20966901.022
        16.500          20.750
                  -1931533.360 5  -1507046.991 5  23349544.222    23349548.620
         8.250           8.500
 95  4 24 19 44 14.9990000  0  7G 2G 7G19G15G26G27G12
                     13455.522 6     10140.183 6  21071232.151    21071234.827
        19.750          21.750
                  -3467581.709 6  -2703781.109 6  20220467.448    20220470.210
        19.000          22.250
                   7296554.008 4   5687270.521 5  23705889.284    23705894.124
         7.250           7.500
                    141984.507 5    105283.627 5  23670338.581    23670341.925
         8.250           9.000
                  -3588813.574 5  -2798301.869 5  23035444.792    23035447.300
        10.500          10.750
                   3724872.139 6   2904995.740 6  20973272.245    20973275.218
        16.500          20.750
                  -1968167.500 5  -1535593.056 5  23342572.964    23342577.261
         8.250           8.500
 95  4 24 19 44 29.9990000  0  7G 2G 7G19G15G26G27G12
                     18934.971 6     14409.883 6  21072274.776    21072277.573
        19.500          21.750
                  -3474878.371 6  -2709466.817 6  20219078.901    20219081.647
        18.750          22.000
                   7345669.047 4   5725541.925 5  23715235.761    23715240.956
         7.250           7.500
                    157290.216 5    117210.156 5  23673251.050    23673254.296
         8.000           9.000
                  -3596460.557 5  -2804260.564 5  23033989.331    23033992.312
        10.500          10.500
                   3758501.469 6   2931200.396 6  20979671.722    20979674.683
        16.500          20.500
                  -2004779.047 5  -1564121.522 5  23335605.886    23335610.550
         8.250           8.500
 95  4 24 19 44 44.9990000  0  7G 2G 7G19G15G26G27G12
                     24460.344 6     18715.365 6  21073326.136    21073328.991
        19.500          22.000
                  -3482036.096 6  -2715044.262 6  20217716.948    20217719.796
        19.000          22.500
                   7394849.248 4   5763864.091 5  23724594.581    23724599.519
         7.250           8.000
                    172753.949 5    129259.826 5  23676193.636    23676197.675
         8.000           9.500
                  -3603951.986 5  -2810098.053 5  23032563.636    23032566.726
        10.750          10.750
                   3792265.450 6   2957509.971 6  20986096.644    20986099.605
        16.250          20.500
                  -2041366.924 5  -1592631.540 5  23328643.511    23328648.054
         8.250           8.500
 95  4 24 19 44 59.9990000  0  7G 2G 7G19G15G26G27G12
                     30033.446 6     23058.039 6  21074386.753    21074389.503
        19.750          21.750
                  -3489053.961 6  -2720512.728 6  20216381.175    20216384.124
        19.000          22.500
                   7444095.888 4   5802238.023 5  23733966.081    23733970.929
         7.250           7.750
                    188376.336 5    141433.105 5  23679166.753    23679170.569
         8.000           9.250
                  -3611282.980 5  -2815810.525 5  23031168.706    23031171.507
        10.500          10.750
                   3826163.692 6   2983924.170 6  20992547.464    20992550.397
        16.250          20.250
                  -2077930.400 5  -1621122.552 5  23321685.753    23321690.382
         8.500           8.250
 95  4 24 19 45 14.9990000  0  7G 2G 7G19G15G26G27G12
                     35655.373 6     27438.756 6  21075456.644    21075459.226
        19.750          21.750
                  -3495933.845 6  -2725873.676 6  20215072.206    20215075.038
        19.000          22.500
                   7493406.260 4   5840661.636 5  23743349.409    23743354.089
         7.000           7.750
                    204154.651 5    153727.894 5  23682169.026    23682172.753
         7.500           9.250
                  -3618451.363 5  -2821396.293 5  23029804.425    23029807.433
        10.500          10.750
                   3860191.232 6   3010439.118 6  20999022.605    20999025.464
        16.500          20.250
                  -2114471.927 5  -1649596.440 5  23314732.323    23314737.069
         8.750           8.250
 95  4 24 19 45 29.9990000  0  7G 2G 7G19G15G26G27G12
                     41323.482 7     31855.461 6  21076535.378    21076537.839
        20.000          21.750
                  -3502674.807 6  -2731126.370 6  20213789.487    20213792.319
        19.000          22.500
                   7542782.961 4   5879136.918 5  23752745.519    23752750.214
         7.000           7.750
                    220088.324 5    166143.729 5  23685201.331    23685204.417
         7.500           9.250
                  -3625459.537 5  -2826857.218 5  23028470.909    23028474.276
        10.250          11.000
                   3894347.698 6   3037054.527 6  21005522.480    21005525.351
        16.500          20.000
                  -2150991.807 5  -1678053.479 5  23307783.019    23307787.483
         9.000           8.250
 95  4 24 19 45 44.9990000  0  7G 2G 7G19G15G26G27G12
                     47040.429 7     36310.222 6  21077623.214    21077625.667
        20.000          21.750
                  -3509274.104 6  -2736268.680 6  20212533.776    20212536.483
        19.000          22.500
                   7592229.557 4   5917666.664 5  23762155.034    23762159.733
         6.500           8.000
                    236177.811 4    178680.996 5  23688262.628    23688266.589
         7.250           9.000
                  -3632310.010 5  -2832195.254 5  23027167.409    23027170.448
        10.500          11.250
                   3928631.603 6   3063769.240 6  21012046.659    21012049.249
        16.750          19.750
                  -2187489.351 5  -1706493.110 5  23300837.542    23300841.925
         9.250           8.000
 95  4 24 19 45 59.9990000  0  7G 2G 7G19G15G26G27G12
                     52812.452 7     40807.898 6  21078721.597    21078724.167
        20.000          22.000
                  -3515727.993 6  -2741297.684 6  20211305.683    20211308.343
        19.250          22.500
                   7641748.766 4   5956252.989 5  23771578.128    23771583.163
         6.500           8.500
                    252424.071 5    191340.417 5  23691354.636    23691357.937
         7.500           9.000
                  -3639004.716 5  -2837411.910 5  23025893.355    23025896.382
        10.250          11.250
                   3963041.682 6   3090582.270 6  21018594.878    21018597.472
        17.000          19.750
                  -2223963.491 5  -1734914.516 5  23293897.144    23293901.034
         9.750           8.000
 95  4 24 19 46 14.9990000  0  7G 2G 7G19G15G26G27G12
                     58639.828 7     45348.711 6  21079830.472    21079833.007
        20.000          22.000
                  -3522038.827 6  -2746215.212 6  20210104.730    20210107.444
        19.250          22.500
                   7691337.289 4   5994893.318 5  23781014.276    23781019.730
         6.500           8.750
                    268825.241 4    204120.550 5  23694476.222    23694479.558
         7.250           9.000
                  -3645548.663 5  -2842511.095 5  23024648.175    23024651.358
        10.250          11.500
                   3997575.610 6   3117491.812 6  21025166.347    21025168.804
        17.000          19.750
                  -2260415.686 5  -1763318.811 5  23286960.433    23286964.835
         9.750           8.500
 95  4 24 19 46 29.9990000  0  7G 2G 7G19G15G26G27G12
                     64525.299 7     49934.788 6  21080950.589    21080953.241
        20.000          22.000
                  -3528207.569 6  -2751022.021 6  20208930.886    20208933.562
        19.000          22.250
                   7740990.675 4   6033584.206 5  23790463.089    23790468.511
         6.250           8.750
                    285380.917 4    217021.070 5  23697625.800    23697629.394
         7.000           9.000
                  -3651943.343 5  -2847493.971 5  23023431.440    23023434.362
        10.500          11.500
                   4032233.138 6   3144497.658 6  21031761.417    21031763.874
        17.000          19.750
                  -2296846.084 5  -1791706.121 5  23280027.917    23280032.491
        10.000           9.000
 95  4 24 19 46 44.9990000  0  7G 2G 7G19G15G26G27G12
                     70471.390 7     54568.102 6  21082081.940    21082084.628
        20.000          22.250
                  -3534239.265 6  -2755722.045 6  20207783.011    20207785.765
        19.250          22.250
                   7790706.346 3   6072323.602 5  23799923.847    23799928.983
         6.000           9.000
                    302089.544 4    230040.778 5  23700804.894    23700808.788
         6.750           9.000
                  -3658190.046 5  -2852361.529 5  23022242.698    23022245.437
        10.250          11.500
                   4067011.393 6   3171597.581 6  21038379.331    21038381.956
        16.750          19.500
                  -2333256.173 5  -1820077.601 5  23273099.167    23273104.194
        10.250           9.250
 95  4 24 19 46 59.9990000  0  7G 2G 7G19G15G26G27G12
                     76479.592 7     59249.814 6  21083225.292    21083227.952
        20.000          22.250
                  -3540135.456 6  -2760316.475 6  20206661.034    20206663.757
        19.250          22.250
                   7840490.004 4   6111115.985 5  23809397.776    23809402.874
         6.250           9.250
                    318953.374 4    243181.429 5  23704014.323    23704018.628
         7.000           9.250
                  -3664287.418 5  -2857112.733 5  23021082.659    23021085.374
        10.500          11.500
                   4101912.256 6   3198793.043 6  21045020.862    21045023.370
        16.750          19.250
                  -2369643.562 5  -1848431.393 5  23266174.503    23266179.983
        10.000           9.500
 95  4 24 19 47 14.9990000  0  7G 2G 7G19G15G26G27G12
                     82548.967 7     63979.195 6  21084380.347    21084382.905
        20.250          22.250
                  -3545898.688 6  -2764807.304 6  20205564.276    20205566.913
        19.000          22.000
                   7890339.566 4   6149959.729 5  23818884.472    23818888.757
         6.750           9.000
                    335970.499 4    256441.521 5  23707253.167    23707256.765
         7.000           9.000
                  -3670239.724 5  -2861750.900 5  23019950.245    23019952.929
        10.750          11.750
                   4136933.981 6   3226082.677 6  21051685.167    21051687.851
        16.500          19.250
                  -2406009.773 5  -1876768.691 5  23259254.089    23259259.093
        10.000           9.250
 95  4 24 19 47 29.9990000  0  7G 2G 7G19G15G26G27G12
                     88676.187 7     68753.649 6  21085546.464    21085548.960
        20.250          22.250
                  -3551530.076 6  -2769195.397 6  20204492.550    20204495.183
        19.000          21.750
                   7940252.506 4   6188852.862 5  23828382.253    23828387.347
         6.500           9.250
                    353139.389 4    269819.871 5  23710520.042    23710523.628
         6.750           9.000
                  -3676052.424 5  -2866280.280 5  23018843.651    23018846.690
        10.500          11.500
                   4172078.350 6   3253467.882 6  21058373.042    21058375.730
        16.500          19.000
                  -2442356.067 5  -1905090.474 5  23252337.659    23252342.155
        10.000           9.000
 95  4 24 19 47 44.9990000  0  7G 2G 7G19G15G26G27G12
                     94861.238 7     73573.166 6  21086723.394    21086725.815
        20.500          22.250
                  -3557026.563 6  -2773478.371 6  20203446.519    20203449.226
        19.000          21.750
                   7990226.135 4   6227793.270 5  23837892.292    23837897.128
         6.750           9.750
                    370461.286 4    283317.448 5  23713816.175    23713819.597
         6.500           9.000
                  -3681728.738 5  -2870703.392 5  23017763.737    23017766.530
        10.750          11.250
                   4207347.218 6   3280950.095 6  21065084.495    21065087.085
        16.500          19.000
                  -2478680.987 5  -1933395.601 5  23245425.308    23245429.913
        10.000           9.250
 95  4 24 19 47 59.9990000  0  7G 2G 7G19G15G26G27G12
                    101105.345 7     78438.702 6  21087911.683    21087914.155
        20.500          22.250
                  -3562391.573 6  -2777658.895 6  20202425.800    20202428.483
        19.000          21.500
                   8040257.321 4   6266778.524 5  23847412.855    23847418.202
         7.000          10.250
                    387936.545 4    296934.530 5  23717141.620    23717145.065
         6.500           9.250
                  -3687267.390 5  -2875019.236 5  23016709.722    23016712.202
        10.750          11.000
                   4242741.220 6   3308529.820 6  21071819.808    21071822.319
        16.500          18.750
                  -2514983.992 5  -1961683.647 5  23238517.230    23238521.882
        10.000           9.750
 95  4 24 19 48 14.9990000  0  7G 2G 7G19G15G26G27G12
                    107404.253 7     83346.940 6  21089110.097    21089112.616
        20.250          22.500
                  -3567630.852 6  -2781741.446 6  20201428.815    20201431.405
        19.250          21.500
                   8090344.851 4   6305807.698 5  23856944.003    23856949.093
         7.000           9.750
                    405564.570 4    310670.645 5  23720496.089    23720499.937
         6.250           9.250
                  -3692668.011 5  -2879227.516 5  23015681.964    23015684.612
        10.750          10.750
                   4278259.802 6   3336206.618 6  21078578.769    21078581.288
        16.750          18.750
                  -2551265.331 5  -1989954.801 5  23231613.190    23231617.964
        10.000          10.250
 95  4 24 19 48 29.9990000  0  7G 2G 7G19G15G26G27G12
                    113753.835 7     88294.664 6  21090318.183    21090320.940
        20.000          22.500
                  -3572745.442 6  -2785726.838 6  20200455.464    20200458.089
        19.000          21.250
                   8140487.470 4   6344879.781 5  23866485.901    23866490.683
         7.000           9.500
                    423344.251 4    324524.936 5  23723879.386    23723883.737
         6.250           9.250
                  -3697930.326 5  -2883328.033 5  23014680.847    23014683.468
        10.750          10.750
                   4313902.735 6   3363980.315 6  21085361.464    21085363.894
        16.750          18.500
                  -2587525.852 5  -2018209.734 5  23224713.159    23224717.835
        10.000          10.500
 95  4 24 19 48 44.9990000  0  7G 2G 7G19G15G26G27G12
                    120155.154 7     93282.703 6  21091536.581    21091539.190
        20.250          22.500
                  -3577735.781 6  -2789615.411 6  20199505.886    20199508.452
        19.250          21.500
                   8190686.956 4   6383996.193 5  23876038.269    23876043.507
         7.250           9.500
                    441275.591 4    338497.408 5  23727291.948    23727295.319
         6.250           9.000
                  -3703055.424 5  -2887321.624 5  23013705.401    23013708.140
        11.000          11.000
                   4349671.058 6   3391851.720 6  21092167.940    21092170.464
        16.750          18.750
                  -2623765.420 5  -2046448.340 5  23217816.831    23217821.550
         9.500          10.500
 95  4 24 19 48 59.9990000  0  7G 2G 7G19G15G26G27G12
                    126606.051 7     98309.370 6  21092764.144    21092766.882
        20.500          22.500
                  -3582602.243 6  -2793407.460 6  20198579.800    20198582.339
        19.250          21.500
                   8240944.658 4   6423157.953 5  23885602.105    23885607.601
         7.250           9.250
                    459357.528 4    352587.221 5  23730732.175    23730736.194
         6.250           9.000
                  -3708045.493 5  -2891209.997 5  23012755.730    23012758.546
        10.750          11.000
                   4385565.863 6   3419821.685 6  21098998.425    21099001.026
        16.750          18.500
                  -2659984.696 5  -2074671.130 5  23210924.370    23210929.355
         9.250          10.500
 95  4 24 19 49 14.9990000  0  7G 2G 7G19G15G26G27G12
                    133106.347 7    103374.534 6  21094001.167    21094003.741
        20.250          22.500
                  -3587340.925 6  -2797099.936 6  20197678.112    20197680.616
        19.250          21.250
                   8291261.043 5   6462365.456 5  23895177.308    23895182.440
         7.750           9.000
                    477590.584 3    366794.795 5  23734201.839    23734205.667
         6.000           9.000
                  -3712901.511 5  -2894993.918 5  23011831.753    23011834.417
        10.750          11.250
                   4421589.441 6   3447891.986 6  21105853.378    21105856.175
        16.500          18.750
                  -2696182.941 5  -2102877.534 5  23204036.003    23204041.069
         9.250          10.500
 95  4 24 19 49 29.9990000  0  7G 2G 7G19G15G26G27G12
                    139657.005 7    108478.943 6  21095247.808    21095250.292
        20.500          22.500
                  -3591947.652 6  -2800689.588 6  20196801.550    20196803.995
        19.500          21.250
                   8341636.346 5   6501618.869 5  23904763.534    23904768.843
         8.250           9.000
                    495975.674 3    381120.834 5  23737700.659    23737704.237
         6.000           9.250
                  -3717620.515 5  -2898671.075 5  23010933.589    23010936.440
        10.500          11.250
                   4457741.196 6   3476062.163 6  21112732.839    21112735.577
        16.250          18.750
                  -2732359.185 5  -2131066.792 5  23197151.925    23197157.026
         9.000          10.500
 95  4 24 19 49 44.9990000  0  7G 2G 7G19G15G26G27G12
                    146256.465 7    113621.373 6  21096503.519    21096506.089
        20.500          22.500
                  -3596423.689 6  -2804177.404 6  20195949.714    20195952.280
        19.500          21.250
                   8392071.937 5   6540919.257 5  23914360.737    23914366.405
         8.000           8.750
                    514511.218 3    395564.115 5  23741228.230    23741231.651
         6.000           9.250
                  -3722203.224 5  -2902242.018 5  23010061.628    23010064.429
        10.750          11.250
                   4494016.111 6   3504328.310 6  21119635.690    21119638.573
        16.250          18.750
                  -2768514.573 5  -2159239.806 5  23190271.472    23190276.757
         8.750          10.750
 95  4 24 19 49 59.9990000  0  7G 2G 7G19G15G26G27G12
                    152905.502 7    118802.442 6  21097768.683    21097771.339
        20.250          22.500
                  -3600771.135 6  -2807565.020 6  20195122.440    20195124.991
        19.500          21.500
                   8442568.266 5   6580266.978 5  23923969.980    23923975.304
         8.000           8.250
                    533196.549 3    410124.105 5  23744783.433    23744787.378
         6.000           9.250
                  -3726647.116 5  -2905704.793 5  23009216.003    23009218.862
        10.500          11.750
                   4530411.581 6   3532688.394 6  21126561.737    21126564.456
        16.250          19.000
                  -2804649.712 5  -2187397.034 5  23183395.214    23183400.448
         8.500          10.750
 95  4 24 19 50 14.9990000  0  7G 2G 7G19G15G26G27G12
                    159603.942 7    124021.999 6  21099043.362    21099046.159
        20.250          22.500
                  -3604990.076 6  -2810852.499 6  20194319.526    20194322.034
        19.500          21.500
                   8493128.114 5   6619664.200 5  23933591.628    23933596.921
         7.750           8.250
                    552031.012 3    424800.304 5  23748367.144    23748371.546
         5.750           9.250
                  -3730948.979 5  -2909056.903 5  23008397.636    23008400.245
        10.750          11.750
                   4566926.977 6   3561141.927 6  21133510.480    21133513.171
        16.500          19.000
                  -2840764.744 5  -2215538.597 5  23176522.972    23176528.038
         8.500          10.750
 95  4 24 19 50 29.9990000  0  7G 2G 7G19G15G26G27G12
                    166354.253 7    129281.977 6  21100327.925    21100330.632
        20.250          22.500
                  -3609074.795 6  -2814035.395 6  20193542.230    20193544.690
        19.500          21.750
                   8543750.423 5   6659110.064 5  23943224.714    23943230.480
         7.500           7.750
                    571013.956 3    439592.201 5  23751979.401    23751983.550
         5.500           9.250
                  -3735107.679 5  -2912297.453 5  23007606.315    23007609.073
        10.500          11.500
                   4603560.398 6   3589687.431 6  21140481.456    21140484.237
        16.250          19.000
                  -2876860.105 5  -2243664.830 5  23169654.073    23169659.448
         8.500          10.500
 95  4 24 19 50 44.9990000  0  7G 2G 7G19G15G26G27G12
                    173159.496 7    134584.760 6  21101622.901    21101625.573
        20.500          22.500
                  -3613020.840 6  -2817110.234 6  20192791.401    20192793.991
        19.500          21.750
                   8594434.964 5   6698604.435 5  23952869.667    23952874.827
         7.750           6.750
                    590147.527 3    454501.470 5  23755620.972    23755624.292
         5.500           9.000
                  -3739119.200 5  -2915423.321 5  23006842.409    23006845.468
        10.500          11.500
                   4640315.983 6   3618328.122 6  21147475.831    21147478.597
        16.250          18.750
                  -2912933.413 5  -2271773.882 5  23162789.526    23162794.374
         9.000          10.000
 95  4 24 19 50 59.9990000  0  7G 2G 7G19G15G26G27G12
                    180019.664 7    139930.348 6  21102928.394    21102931.038
        20.250          22.250
                  -3616829.497 6  -2820078.013 6  20192066.675    20192069.179
        19.500          21.750
                   8645179.626 5   6738145.685 5  23962526.222    23962531.183
         7.500           6.000
                    609431.597 3    469528.016 5  23759290.855    23759294.339
         5.500           9.250
                  -3742981.812 5  -2918433.147 5  23006107.464    23006110.757
        10.500          11.500
                   4677193.284 6   3647063.663 6  21154493.526    21154496.003
        16.250          18.500
                  -2948984.479 5  -2299865.604 5  23155929.331    23155933.624
         9.250           9.500
 95  4 24 19 51 14.9990000  0  7G 2G 7G19G15G26G27G12
                    186931.924 7    145316.521 6  21104243.917    21104246.456
        20.500          22.500
                  -3620502.767 6  -2822940.299 6  20191367.511    20191370.249
        19.500          22.000
                   8695982.343 4   6777732.176 5  23972193.269    23972198.776
         7.000           6.000
                    628866.472 3    484672.068 5  23762988.823    23762992.792
         6.000           9.250
                  -3746692.971 5  -2921324.969 5  23005401.300    23005404.565
        10.500          11.500
                   4714189.983 6   3675892.237 6  21161533.636    21161536.218
        16.500          18.750
                  -2985012.793 5  -2327939.601 5  23149073.362    23149077.499
         9.750           9.250
 95  4 24 19 51 29.9990000  0  7G 2G 7G19G15G26G27G12
                    193891.527 7    150739.583 6  21105568.222    21105570.882
        20.500          22.500
                  -3624043.215 6  -2825699.087 6  20190693.956    20190696.733
        19.500          21.750
                   8746839.008 4   6817360.673 5  23981871.073    23981876.401
         6.500           6.000
                    648449.940 3    499931.909 5  23766714.573    23766719.386
         5.750           9.250
                  -3750254.438 5  -2924100.148 5  23004723.769    23004726.585
        10.500          11.500
                   4751300.216 6   3704809.283 6  21168595.706    21168598.171
        16.500          18.750
                  -3021020.413 5  -2355997.480 5  23142221.433    23142225.847
        10.000           9.500
 95  4 24 19 51 44.9990000  0  7G 2G 7G19G15G26G27G12
                    200895.943 7    156197.570 6  21106901.019    21106903.800
        20.500          22.750
                  -3627454.333 6  -2828357.099 6  20190044.776    20190047.511
        19.500          21.750
                   8797749.225 3   6857030.910 5  23991558.901    23991564.280
         6.000           6.250
                    668181.388 3    515307.060 5  23770470.659    23770474.120
         6.000           9.250
                  -3753667.153 5  -2926759.409 5  23004074.323    23004077.237
        10.500          11.500
                   4788522.781 6   3733813.858 6  21175678.808    21175681.472
        16.250          18.750
                  -3057007.336 5  -2384039.221 5  23135373.519    23135378.315
        10.500           9.500
 95  4 24 19 51 59.9990000  0  7G 2G 7G19G15G26G27G12
                    207947.037 7    161691.925 6  21108242.933    21108245.636
        20.250          22.750
                  -3630735.952 6  -2830914.201 6  20189420.253    20189422.796
        19.500          21.750
                   8848711.866 3   6896741.984 5  24001256.753    24001262.733
         5.750           6.250
                    688062.191 4    530798.588 5  23774254.487    23774256.726
         6.250           9.000
                  -3756931.337 5  -2929302.943 5  23003453.331    23003456.280
        10.500          11.250
                   4825861.050 6   3762908.599 6  21182784.120    21182786.929
        16.250          18.750
                  -3092972.269 5  -2412063.835 5  23128529.964    23128534.062
        10.750           9.500
 95  4 24 19 52 14.9990000  0  7G 2G 7G19G15G26G27G12
                    215045.737 7    167223.378 6  21109593.753    21109596.522
        20.500          22.750
                  -3633887.363 6  -2833369.846 6  20188820.675    20188823.194
        19.500          21.750
                   8899726.925 3   6936493.899 5  24010964.808    24010970.815
         6.000           6.750
                    708093.375 3    546407.307 5  23778064.690    23778068.593
         6.000           9.000
                  -3760045.905 5  -2931729.885 5  23002860.440    23002863.554
        10.500          11.250
                   4863320.264 6   3792097.575 6  21189912.339    21189915.226
        16.000          18.750
                  -3128913.681 5  -2440070.125 5  23121690.222    23121694.526
        10.500           9.500
 95  4 24 19 52 29.9990000  0  7G 2G 7G19G15G26G27G12
                    222190.761 7    172790.925 6  21110953.355    21110956.190
        20.250          22.750
                  -3636910.648 6  -2835725.646 6  20188245.378    20188247.886
        19.500          21.500
                   8950793.873 3   6976286.258 5  24020682.753    24020688.405
         6.000           6.250
                    728273.820 4    562132.325 5  23781904.933    23781909.401
         6.500           9.000
                  -3763013.931 5  -2934042.643 5  23002295.565    23002298.769
        10.250          11.250
                   4900900.775 6   3821381.070 6  21197063.753    21197066.476
        16.000          18.750
                  -3164832.542 5  -2468058.832 5  23114854.894    23114859.581
        10.500           9.500
 95  4 24 19 52 44.9990000  0  7G 2G 7G19G15G26G27G12
                    229378.281 7    178391.588 6  21112321.089    21112323.726
        20.500          22.750
                  -3639812.349 6  -2837986.711 6  20187693.190    20187695.757
        19.500          21.500
                   9001911.486 3   7016118.100 5  24030409.534    24030415.694
         5.500           6.000
                    748601.496 4    577972.065 5  23785774.120    23785777.585
         6.750           9.000
                  -3765839.331 5  -2936244.267 5  23001758.323    23001761.081
        10.500          11.000
                   4938602.787 6   3850759.241 6  21204238.167    21204241.073
        16.000          19.000
                  -3200730.462 5  -2496031.224 5  23108023.776    23108028.460
        10.500           9.500
 95  4 24 19 52 59.9990000  0  7G 2G 7G19G15G26G27G12
                    236604.105 7    184022.093 6  21113696.206    21113698.659
        20.500          22.500
                  -3642598.244 6  -2840157.533 6  20187163.144    20187165.730
        19.500          21.500
                   9053080.080 2   7055989.669 5  24040146.690    24040152.772
         4.750           6.000
                    769074.926 4    593925.383 5  23789670.980    23789673.171
         6.750           9.000
                  -3768526.037 5  -2938337.814 5  23001246.886    23001249.690
        10.500          11.000
                   4976423.977 6   3880230.277 6  21211435.534    21211438.245
        16.000          19.000
                  -3236608.648 5  -2523988.244 5  23101196.534    23101200.808
        10.750           9.750
 95  4 24 19 53 14.9990000  0  7G 2G 7G19G15G26G27G12
                    243872.029 7    189685.412 6  21115079.190    21115081.745
        20.500          22.500
                  -3645264.717 6  -2842235.301 6  20186655.753    20186658.241
        19.500          21.250
                   9104305.985 2   7095905.883 5  24049894.355    24049901.077
         4.500           6.250
                    789697.991 4    609995.297 5  23793594.620    23793597.894
         6.750           9.250
                  -3771072.551 5  -2940322.120 5  23000762.331    23000765.097
        10.500          11.000
                   5014366.263 6   3909795.679 6  21218655.487    21218658.269
        16.000          19.000
                  -3272463.070 5  -2551926.747 5  23094373.511    23094377.843
        10.750           9.750
 95  4 24 19 53 29.9990000  0  7G 2G 7G19G15G26G27G12
                    251182.790 7    195382.105 6  21116470.237    21116472.991
        20.250          22.500
                  -3647810.716 6  -2844219.194 6  20186171.222    20186173.702
        19.750          21.000
                   9155591.138 2   7135868.261 5  24059653.815    24059660.163
         4.250           6.250
                    810469.737 4    626181.064 5  23797546.487    23797550.616
         6.750           9.250
                  -3773481.739 5  -2942199.417 5  23000303.847    23000306.714
        10.500          11.250
                   5052429.353 6   3939455.207 6  21225898.722    21225901.573
        16.000          19.000
                  -3308294.247 5  -2579847.136 5  23087555.073    23087559.472
        10.500          10.250
 95  4 24 19 53 44.9990000  0  7G 2G 7G19G15G26G27G12
                    258539.113 7    201114.303 6  21117870.190    21117872.812
        20.250          22.500
                  -3650235.973 6  -2846108.998 6  20185709.667    20185712.077
        19.500          21.000
                   9206936.151 2   7175877.283 5  24069424.558    24069431.054
         4.500           6.750
                    831388.157 4    642481.134 5  23801527.636    23801531.042
         7.000           9.000
                  -3775754.340 5  -2943970.284 5  22999871.394    22999874.019
        10.750          11.250
                   5090614.733 6   3969210.026 6  21233165.120    21233168.022
        16.000          19.000
                  -3344104.099 5  -2607750.904 5  23080740.714    23080745.241
        10.250          10.500
 95  4 24 19 53 59.9990000  0  7G 2G 7G19G15G26G27G12
                    265946.923 7    206886.616 6  21119279.909    21119282.546
        20.250          22.250
                  -3652540.421 6  -2847904.674 6  20185271.065    20185273.495
        19.750          21.000
                   9258342.300 2   7215933.941 5  24079207.331    24079213.772
         4.750           7.000
                    852453.730 4    658895.858 5  23805536.894    23805540.112
         7.250           9.250
                  -3777888.869 5  -2945633.557 5  22999465.300    22999467.843
        10.750          11.250
                   5128925.297 6   3999062.394 6  21240455.440    21240458.202
        16.000          19.000
                  -3379891.709 5  -2635637.334 5  23073930.245    23073934.944
         9.750          10.500
 95  4 24 19 54 14.9990000  0  6G 2G 7G15G26G27G12
                    273407.514 7    212700.066 6  21120699.401    21120702.202
        20.000          22.500
                  -3654724.111 6  -2849606.243 6  20184855.558    20184858.011
        19.750          20.750
                    873666.225 4    675425.068 5  23809573.925    23809576.698
         7.250           9.000
                  -3779883.677 5  -2947187.961 5  22999085.769    22999088.190
        10.750          11.500
                   5167360.820 6   4029012.135 6  21247769.620    21247772.312
        16.250          19.000
                  -3415657.119 5  -2663506.467 5  23067124.550    23067128.866
         9.750          10.500
 95  4 24 19 54 29.9990000  0  6G 2G 7G15G26G27G12
                    280922.514 7    218555.906 6  21122129.573    21122132.409
        20.250          22.500
                  -3656788.344 6  -2851214.733 6  20184462.745    20184465.179
        19.500          20.500
                    895025.812 5    692068.898 5  23813637.261    23813641.550
         7.500           9.250
                  -3781736.644 5  -2948631.840 5  22998732.839    22998735.659
        10.750          11.250
                   5205919.717 6   4059058.009 6  21255107.175    21255109.862
        16.250          18.750
                  -3451399.696 5  -2691357.813 5  23060323.081    23060327.319
        10.000          10.750
 95  4 24 19 54 44.9990000  0  6G 2G 7G15G26G27G12
                    288493.568 7    224455.423 6  21123570.300    21123572.964
        20.250          22.500
                  -3658731.240 6  -2852728.675 6  20184092.956    20184095.437
        19.750          20.750
                    916533.213 5    708827.908 5  23817729.886    23817734.077
         7.500           9.000
                  -3783446.601 5  -2949964.279 5  22998407.612    22998410.304
        10.750          11.500
                   5244599.722 6   4089198.253 6  21262467.628    21262470.464
        16.000          18.750
                  -3487118.543 5  -2719190.662 5  23053525.753    23053530.308
         9.750          11.000
 95  4 24 19 54 59.9990000  0  6G 2G 7G15G26G27G12
                    296119.880 7    230397.999 6  21125021.605    21125024.358
        20.250          22.500
                  -3660551.433 6  -2854147.005 6  20183746.659    20183749.108
        19.500          20.750
                    938186.845 5    725700.870 5  23821851.190    23821854.058
         7.500           8.750
                  -3785013.886 5  -2951185.541 5  22998109.276    22998112.108
        10.500          11.250
                   5283396.492 6   4119429.483 6  21269850.378    21269853.089
        16.000          18.750
                  -3522814.982 5  -2747006.046 5  23046732.706    23046737.597
         9.750          11.500
 95  4 24 19 55 14.9990000  0  6G 2G 7G15G26G27G12
                    303803.825 7    236385.485 6  21126483.792    21126486.413
        20.000          22.500
                  -3662245.916 6  -2855467.373 6  20183424.136    20183426.667
        19.500          20.500
                    959985.714 4    742687.003 5  23825999.855    23826002.136
         7.250           8.500
                  -3786438.066 5  -2952295.300 5  22997838.659    22997841.171
        10.750          11.250
                   5322307.598 6   4149749.806 6  21277254.870    21277257.843
        15.750          18.500
                  -3558489.446 5  -2774804.303 5  23039944.175    23039948.788
        10.000          11.250
 95  4 24 19 55 29.9990000  0  6G 2G 7G15G26G27G12
                    311548.900 7    242420.603 6  21127957.612    21127960.296
        20.000          22.250
                  -3663812.654 6  -2856688.209 6  20183126.050    20183128.554
        19.750          20.750
                    981930.428 5    759786.773 5  23830175.503    23830179.491
         7.500           9.250
                  -3787718.198 5  -2953292.811 5  22997594.933    22997597.663
        10.750          11.250
                   5361335.192 6   4180160.900 6  21284681.706    21284684.503
        15.750          18.500
                  -3594141.347 5  -2802584.992 5  23033160.026    23033164.401
        10.500          11.000
 95  4 24 19 55 44.9990000  0  6G 2G 7G15G26G27G12
                    319357.525 7    248505.240 6  21129443.526    21129446.175
        20.000          22.500
                  -3665251.864 6  -2857809.668 6  20182851.964    20182854.464
        19.750          20.750
                   1004021.631 5    777000.693 5  23834378.284    23834382.702
         7.500           9.250
                  -3788852.726 5  -2954176.862 5  22997378.894    22997381.765
        10.750          11.500
                   5400480.442 6   4210663.671 6  21292130.644    21292133.480
        16.000          18.500
                  -3629769.464 5  -2830347.151 5  23026380.323    23026384.905
        11.000          11.000
 95  4 24 19 55 59.9990000  0  7G 2G 7G 4G15G26G27G12
                    327227.177 7    254637.432 6  21130941.245    21130943.851
        20.000          22.250
                  -3666563.491 6  -2858831.710 6  20182602.558    20182604.980
        19.750          20.500
                    -15491.52215                                  20182608.495
         5.500
                   1026258.771 5    794328.322 5  23838610.339    23838614.167
         7.750           9.000
                  -3789843.528 5  -2954948.927 5  22997190.737    22997193.530
        11.000          11.500
                   5439740.144 6   4241255.626 6  21299601.753    21299604.511
        16.000          18.500
                  -3665374.142 5  -2858091.041 5  23019604.815    23019609.628
        11.000          11.000
 95  4 24 19 56 15.0000000  0  7G 2G 7G 4G15G26G27G12
                    335154.806 7    260814.800 6  21132449.656    21132452.277
        20.000          22.250
                  -3667746.188 6  -2859753.292 6  20182377.484    20182379.988
        19.500          20.500
                    -46388.748 4    -54222.866 5  24059605.922    24059611.734
         6.250           5.500
                   1048644.526 5    811771.762 5  23842870.852    23842873.305
         8.000           8.750
                  -3790690.492 5  -2955608.902 5  22997029.328    22997032.262
        10.750          11.250
                   5479115.204 6   4271937.469 6  21307094.336    21307097.324
        15.750          18.500
                  -3700956.335 5  -2885817.415 5  23012833.703    23012838.559
        11.000          10.750
 95  4 24 19 56 30.0000000  0  7G 2G 7G 4G15G26G27G12
                    343134.304 6    267032.592 6  21133968.086    21133970.742
        19.750          22.250
                  -3668800.120 6  -2860574.531 6  20182176.805    20182179.309
        19.500          20.500
                    -96085.095 3    -92947.232 5  24050148.836    24050154.664
         6.000           5.500
                   1071174.401 5    829327.507 5  23847158.398    23847161.184
         8.000           9.000
                  -3791396.462 5  -2956159.015 5  22996895.086    22996897.883
        10.750          11.250
                   5518599.329 6   4302704.298 6  21314607.930    21314610.652
        16.000          18.500
                  -3736512.344 5  -2913523.383 5  23006067.711    23006072.371
        11.000          10.750
 95  4 24 19 56 45.0000000  0  7G 2G 7G 4G15G26G27G12
                    351165.924 6    273290.994 6  21135496.297    21135499.102
        19.750          22.250
                  -3669721.734 6  -2861292.671 6  20182001.570    20182003.992
        19.750          20.750
                   -145777.738 4   -131668.721 5  24040692.250    24040697.805
         6.250           5.500
                   1093851.054 5    846997.625 5  23851473.180    23851476.684
         8.000           9.000
                  -3791961.225 5  -2956599.096 5  22996787.469    22996789.945
        10.750          11.250
                   5558195.616 6   4333558.531 6  21322142.930    21322145.754
        16.000          18.500
                  -3772043.075 5  -2941209.650 5  22999306.391    22999311.277
        11.000          10.500
 95  4 24 19 57  0.0000000  0  7G 2G 7G 4G15G26G27G12
                    359248.207 6    279588.873 6  21137034.328    21137037.168
        19.500          22.250
                  -3670510.279 6  -2861907.118 6  20181851.531    20181853.883
        19.750          20.750
                   -195466.145 4   -170386.909 5  24031237.141    24031242.344
         6.500           5.500
                   1116673.158 5    864781.068 5  23855814.695    23855819.855
         7.500           8.750
                  -3792389.455 5  -2956932.785 5  22996705.953    22996708.617
        10.750          11.250
                   5597903.597 6   4364499.791 6  21329699.328    21329702.113
        16.250          18.750
                  -3807549.633 5  -2968877.090 5  22992549.781    22992554.438
        11.000          10.250
 95  4 24 19 57 15.0000000  0  7G 2G 7G 4G15G26G27G12
                    367380.018 6    285925.345 6  21138581.781    21138584.586
        19.500          22.250
                  -3671166.027 6  -2862418.089 6  20181726.781    20181729.168
        19.500          20.750
                   -245148.874 4   -209100.675 5  24021782.727    24021788.445
         6.750           6.000
                   1139640.259 5    882677.505 5  23860186.023    23860190.199
         8.000           8.750
                  -3792684.522 5  -2957162.717 5  22996649.898    22996652.559
        10.500          11.500
                   5637723.145 6   4395527.986 6  21337276.719    21337279.512
        16.250          18.500
                  -3843032.184 5  -2996525.824 5  22985797.711    22985802.117
        11.000          10.000
 95  4 24 19 57 30.0000000  0  7G 2G 7G 4G15G26G27G12
                    375560.984 6    292300.121 6  21140138.781    21140141.398
        19.500          22.000
                  -3671691.333 6  -2862827.417 6  20181626.734    20181629.203
        19.500          20.500
                   -294820.415 4   -247805.709 5  24012330.266    24012336.832
         6.750           6.750
                   1162752.740 5    900687.235 5  23864585.406    23864587.570
         8.250           8.250
                  -3792847.841 5  -2957289.993 5  22996618.773    22996621.684
        10.750          11.500
                   5677654.129 6   4426643.019 6  21344875.273    21344878.074
        16.000          18.250
                  -3878489.953 5  -3024155.249 5  22979049.961    22979054.668
        10.500          10.000
 95  4 24 19 57 45.0000000  0  7G 2G 7G 4G15G26G27G12
                    383790.181 6    298712.478 6  21141704.641    21141707.254
        19.750          22.250
                  -3672088.531 6  -2863136.920 6  20181551.117    20181553.629
        19.500          21.000
                   -344477.990 4   -286499.868 5  24002880.695    24002887.406
         7.000           7.000
                   1186011.278 5    918810.776 5  23869010.789    23869013.344
         8.000           8.000
                  -3792879.889 5  -2957314.975 5  22996612.703    22996615.547
        10.750          11.750
                   5717697.127 6   4457845.331 6  21352495.266    21352498.227
        16.250          18.250
                  -3913922.050 5  -3051764.663 5  22972307.383    22972312.191
        10.250          10.250
 95  4 24 19 58  0.0000000  0  7G 2G 7G 4G15G26G27G12
                    392062.959 6    305158.795 6  21143278.797    21143281.574
        19.750          22.250
                  -3672358.983 6  -2863347.659 6  20181499.750    20181502.180
        19.750          21.000
                   -394123.405 4   -325184.551 5  23993433.547    23993439.875
         6.750           6.750
                   1209413.534 5    937046.296 5  23873463.492    23873467.270
         8.000           8.000
                  -3792781.301 5  -2957238.160 5  22996631.734    22996634.285
        11.000          11.500
                   5757850.043 6   4489133.296 6  21360136.063    21360138.773
        16.250          18.000
                  -3949330.419 5  -3079355.581 5  22965569.328    22965574.598
        10.500          10.500
 95  4 24 19 58 15.0000000  0  7G 2G 7G 4G15G26G27G12
                    400379.996 6    311639.598 6  21144861.531    21144864.160
        19.750          22.000
                  -3672502.459 6  -2863459.455 6  20181472.352    20181474.867
        19.750          21.000
                   -443755.897 4   -363859.172 5  23983988.563    23983994.973
         6.750           6.750
                   1232960.308 5    955394.427 5  23877944.016    23877948.602
         8.000           8.000
                  -3792549.574 5  -2957057.595 5  22996675.547    22996678.590
        10.750          11.500
                   5798115.988 6   4520509.335 6  21367798.594    21367801.406
        16.250          18.000
                  -3984713.880 5  -3106927.094 5  22958836.234    22958841.160
        10.500          10.500
 95  4 24 19 58 30.0000000  0  7G 2G 7G 4G15G26G27G12
                    408741.060 6    318154.710 6  21146452.477    21146455.332
        19.500          22.000
                  -3672523.961 6  -2863476.209 6  20181468.258    20181470.762
        19.750          21.000
                   -493375.140 4   -402523.469 5  23974546.438    23974552.688
         6.750           7.000
                   1256650.705 5    973854.475 5  23882452.609    23882456.410
         8.000           8.250
                  -3792184.033 5  -2956772.767 5  22996744.945    22996747.887
        10.750          11.500
                   5838498.174 6   4551975.951 6  21375483.227    21375485.773
        16.250          17.750
                  -4020073.120 5  -3134479.733 5  22952107.328    22952112.164
        10.500          10.500
 95  4 24 19 58 45.0000000  0  7G 2G 7G 4G15G26G27G12
                    417148.000 6    324705.571 6  21148052.172    21148054.973
        19.250          22.000
                  -3672425.991 6  -2863399.862 6  20181486.883    20181489.402
        19.750          21.000
                   -542982.804 4   -441178.744 5  23965106.164    23965112.945
         6.500           7.500
                   1280483.549 5    992425.522 5  23886988.805    23886991.219
         8.000           8.250
                  -3791685.173 5  -2956384.055 5  22996840.273    22996842.723
        11.000          11.000
                   5878995.109 6   4583531.983 6  21383189.391    21383192.152
        16.000          17.750
                  -4055408.791 5  -3162014.009 5  22945383.516    22945388.145
        11.000          10.750
 95  4 24 19 59  0.0000000  0  7G 2G 7G 4G15G26G27G12
                    425605.720 6    331295.998 6  21149661.781    21149664.484
        19.250          22.000
                  -3672206.603 6  -2863228.911 6  20181528.578    20181531.211
        19.500          21.000
                   -592575.084 3   -479822.024 5  23955668.945    23955676.063
         6.000           8.000
                   1304461.141 5   1011109.355 5  23891551.031    23891554.262
         7.750           8.500
                  -3791050.379 5  -2955889.426 5  22996960.938    22996963.590
        10.750          11.250
                   5919608.068 6   4615178.423 6  21390917.914    21390920.602
        16.000          17.750
                  -4090718.450 5  -3189528.015 5  22938664.742    22938668.930
        11.500          11.000
 95  4 24 19 59 15.0000000  0  7G 2G 7G 4G15G26G27G12
                    434116.054 6    337927.423 6  21151281.242    21151284.102
        19.500          22.000
                  -3671866.554 6  -2862963.934 6  20181593.266    20181595.793
        19.750          21.000
                   -642151.259 3   -518452.742 5  23946234.844    23946241.633
         5.750           8.000
                   1328584.657 5   1029906.886 5  23896140.930    23896144.773
         7.750           8.000
                  -3790276.805 5  -2955286.655 5  22997107.938    22997110.898
        10.750          11.000
                   5960339.341 6   4646917.060 6  21398668.703    21398671.332
        16.000          17.750
                  -4126000.395 6  -3217020.426 5  22931950.578    22931955.102
        12.000          11.250
 95  4 24 19 59 30.0000000  0  7G 2G 7G 4G15G26G27G12
                    442673.778 6    344595.783 6  21152909.820    21152912.430
        19.500          22.000
                  -3671410.503 6  -2862608.564 6  20181680.094    20181682.668
        19.750          20.750
                   -691717.824 3   -557075.980 5  23936802.391    23936809.676
         5.500           8.250
                   1352849.775 5   1048814.782 5  23900758.516    23900762.211
         7.750           7.750
                  -3789363.431 5  -2954574.941 5  22997281.664    22997284.391
        10.250          11.000
                   6001185.515 6   4678745.233 6  21406441.516    21406444.441
        16.250          18.000
                  -4161258.632 6  -3244494.356 5  22925241.328    22925245.824
        12.000          11.250
 95  4 24 19 59 45.0000000  0  7G 2G 7G 4G15G26G27G12
                    451280.072 6    351301.987 6  21154547.727    21154550.289
        19.500          22.250
                  -3670838.312 6  -2862162.699 6  20181788.984    20181791.555
        19.750          20.750
                   -741277.048 3   -595693.495 5  23927371.688    23927378.875
         5.500           8.500
                   1377257.340 5   1067833.658 5  23905403.734    23905407.203
         7.750           8.000
                  -3788305.269 5  -2953750.406 5  22997482.695    22997485.691
        10.250          11.250
                   6042151.210 6   4710666.532 6  21414237.148    21414239.977
        16.250          18.000
                  -4196492.036 6  -3271948.939 5  22918536.672    22918541.043
        12.000          11.500
 95  4 24 20  0  0.0000000  0  7G 2G 7G 4G15G26G27G12
                    459933.959 6    358045.272 6  21156194.445    21156197.023
        19.500          22.250
                  -3670146.298 6  -2861623.464 6  20181920.422    20181923.035
        19.750          20.750
                   -790833.459 3   -634308.820 5  23917941.305    23917948.777
         5.500           8.500
                   1401806.780 5   1086963.094 5  23910075.727    23910078.586
         8.000           7.500
                  -3787099.901 5  -2952811.170 5  22997712.195    22997715.371
        10.000          11.250
                   6083239.031 6   4742682.995 6  21422055.945    21422058.844
        16.000          18.000
                  -4231700.670 5  -3299384.223 5  22911836.625    22911841.250
        11.750          11.500
 95  4 24 20  0 15.0000000  0  7G 2G 7G 4G15G26G27G12
                    468637.044 6    364826.894 6  21157850.414    21157853.230
        19.500          22.250
                  -3669331.484 6  -2860988.541 6  20182075.641    20182078.324
        19.750          20.750
                   -840384.736 3   -672920.144 5  23908512.125    23908519.344
         5.500           8.500
                   1426498.982 5   1106203.772 5  23914773.586    23914776.805
         7.750           7.750
                  -3785744.402 5  -2951754.946 5  22997970.156    22997973.320
        10.000          11.250
                   6124450.208 6   4774795.577 6  21429898.203    21429901.059
        16.250          18.250
                  -4266883.525 5  -3326799.423 5  22905141.578    22905145.875
        11.750          11.250
 95  4 24 20  0 30.0000000  0  7G 2G 7G 4G15G26G27G12
                    477389.841 6    371647.253 6  21159515.859    21159518.855
        19.250          22.000
                  -3668394.614 6  -2860258.512 6  20182254.070    20182256.535
        19.750          20.750
                   -889928.209 3   -711525.395 5  23899083.797    23899090.848
         5.250           7.750
                   1451334.102 4   1125555.810 5  23919498.938    23919502.883
         7.250           7.750
                  -3784240.029 5  -2950582.713 5  22998256.484    22998259.344
        10.000          11.000
                   6165782.168 6   4807002.278 6  21437763.336    21437766.254
        16.000          18.000
                  -4302040.005 5  -3354194.070 5  22898451.539    22898456.000
        11.750          11.250
 95  4 24 20  0 45.0000000  0  7G 2G 7G 4G15G26G27G12
                    486191.431 6    378505.629 6  21161190.844    21161193.500
        19.250          21.750
                  -3667333.901 6  -2859431.979 6  20182455.969    20182458.391
        19.750          20.500
                   -939463.569 3   -750124.338 5  23889657.664    23889664.770
         5.500           8.000
                   1476309.956 4   1145017.516 5  23924252.328    23924256.191
         7.250           7.500
                  -3782590.927 5  -2949297.704 5  22998570.484    22998573.418
        10.000          11.250
                   6207228.764 6   4839298.301 6  21445650.430    21445653.324
        16.000          17.750
                  -4337171.967 5  -3381569.611 5  22891766.141    22891770.758
        11.500          11.250
 95  4 24 20  1  0.0000000  0  7G 2G 7G 4G15G26G27G12
                    495043.976 6    385403.710 6  21162875.609    21162878.121
        19.500          22.000
                  -3666145.950 6  -2858506.300 6  20182681.891    20182684.254
        19.500          20.500
                   -988989.953 3   -788716.279 5  23880233.453    23880240.824
         5.250           8.750
                   1501425.804 4   1164588.293 5  23929032.008    23929035.414
         7.250           7.500
                  -3780799.087 5  -2947901.473 5  22998911.414    22998914.441
        10.250          11.500
                   6248786.869 6   4871681.216 6  21453558.695    21453561.621
        16.000          17.750
                  -4372279.803 5  -3408926.351 5  22885085.367    22885089.930
        11.500          11.250
 95  4 24 20  1 15.0000000  0  7G 2G 7G 4G15G26G27G12
                    503950.046 6    392343.503 6  21164570.102    21164572.875
        19.500          22.000
                  -3664829.071 6  -2857480.156 6  20182932.477    20182934.852
        19.500          20.250
                  -1038502.161 3   -827297.146 5  23870811.172    23870818.566
         5.500           8.750
                   1526684.001 4   1184270.006 5  23933838.875    23933841.363
         7.250           7.500
                  -3778861.484 5  -2946391.666 5  22999280.313    22999283.258
        10.500          11.500
                   6290460.507 6   4904154.159 6  21461489.000    21461491.613
        15.750          17.500
                  -4407360.745 5  -3436262.134 5  22878409.563    22878414.039
        11.250          10.750
 95  4 24 20  1 30.0000000  0  7G 2G 7G 4G15G26G27G12
                    512906.344 6    399322.432 6  21166274.547    21166277.223
        19.750          22.000
                  -3663386.736 6  -2856356.254 6  20183206.961    20183209.328
        19.250          20.250
                  -1088001.230 3   -865867.802 5  23861392.250    23861399.117
         5.500           8.250
                   1552081.448 4   1204060.216 5  23938670.914    23938675.172
         7.000           8.000
                  -3776782.459 5  -2944771.656 5  22999676.117    22999679.180
        10.500          11.500
                   6332245.982 6   4936714.250 6  21469440.344    21469443.195
        15.750          17.250
                  -4442417.633 5  -3463579.183 5  22871738.297    22871742.461
        11.250          10.750
 95  4 24 20  1 45.0000000  0  7G 2G 7G 4G15G26G27G12
                    521912.267 7    406340.035 6  21167988.523    21167991.086
        20.000          22.000
                  -3661819.031 6  -2855134.665 6  20183505.320    20183507.566
        19.500          20.250
                  -1137482.640 3   -904424.696 5  23851975.828    23851982.785
         5.250           8.000
                   1577618.297 4   1223959.067 5  23943529.586    23943534.504
         6.750           7.750
                  -3774565.645 5  -2943044.277 5  23000098.016    23000101.191
        10.500          11.500
                   6374143.186 6   4969361.401 6  21477413.172    21477416.035
        15.750          17.250
                  -4477450.073 5  -3490877.175 5  22865071.711    22865076.379
        11.250          11.000
 95  4 24 20  2  0.0000000  0  7G 2G 7G 4G15G26G27G12
                    530969.182 6    413397.370 6  21169711.984    21169714.664
        19.750          22.250
                  -3660125.887 6  -2853815.329 6  20183827.469    20183829.844
        19.500          20.250
                  -1186942.747 3   -942964.987 5  23842563.719    23842571.125
         5.250           8.250
                   1603295.449 4   1243967.228 5  23948417.258    23948420.477
         6.750           7.750
                  -3772214.710 5  -2941212.391 5  23000545.445    23000548.012
        10.750          11.250
                   6416150.130 6   5002094.063 6  21485406.906    21485409.566
        15.500          17.000
                  -4512456.647 5  -3518155.010 5  22858410.195    22858414.875
        11.500          11.250
 95  4 24 20  2 15.0000000  0  7G 2G 7G 4G15G26G27G12
                    540076.669 6    420494.107 6  21171444.844    21171447.875
        19.500          22.250
                  -3658308.839 6  -2852399.441 6  20184173.297    20184175.727
        19.250          20.250
                  -1236381.673 3   -981488.765 5  23833155.922    23833162.875
         5.500           8.000
                   1629111.232 4   1264083.420 5  23953330.820    23953332.891
         7.000           7.750
                  -3769733.860 5  -2939279.271 5  23001017.602    23001019.660
        10.750          11.250
                   6458260.071 6   5034906.986 6  21493420.125    21493423.055
        15.250          17.000
                  -4547438.903 6  -3545413.898 5  22851753.633    22851757.949
        12.000          11.500
 95  4 24 20  2 30.0000000  0  7G 2G 7G 4G15G26G27G12
                    549236.184 6    427631.386 6  21173187.844    21173190.824
        19.500          22.000
                  -3656370.393 6  -2850888.961 6  20184542.164    20184544.645
        19.250          20.500
                  -1285796.843 3  -1019994.037 5  23823752.609    23823759.684
         5.500           8.000
                   1655066.753 4   1284308.486 5  23958268.633    23958271.359
         6.500           7.250
                  -3767125.153 5  -2937246.524 5  23001513.977    23001516.598
        10.500          11.250
                   6500470.632 6   5067798.308 6  21501452.344    21501455.473
        15.250          17.250
                  -4582395.153 6  -3572652.524 5  22845101.641    22845105.988
        12.250          11.500
 95  4 24 20  2 45.0000000  0  7G 2G 7G 4G15G26G27G12
                    558445.398 6    434807.394 6  21174940.297    21174943.063
        19.250          21.750
                  -3654312.992 6  -2849285.786 6  20184933.547    20184936.117
        19.250          20.500
                  -1335192.505 3  -1058484.104 5  23814352.750    23814359.793
         5.750           8.000
                   1681159.030 4   1304640.140 5  23963233.117    23963237.668
         6.250           7.500
                  -3764395.200 5  -2935119.293 5  23002033.523    23002036.152
        10.500          11.500
                   6542779.427 6   5100766.180 6  21509503.492    21509506.645
        15.000          17.250
                  -4617327.973 6  -3599872.892 5  22838454.047    22838458.328
        12.250          11.750
 95  4 24 20  3  0.0000000  0  7G 2G 7G 4G15G26G27G12
                    567706.323 6    442023.697 6  21176702.492    21176705.195
        19.500          22.000
                  -3652135.337 6  -2847588.910 6  20185348.102    20185350.602
        19.500          20.750
                  -1384569.592 4  -1096959.705 5  23804956.852    23804963.203
         6.250           7.500
                   1707388.823 3   1325078.921 5  23968224.844    23968229.336
         6.000           7.500
                  -3761541.238 5  -2932895.435 5  23002576.469    23002579.332
        10.250          11.500
                   6585188.144 6   5133811.911 6  21517573.539    21517576.898
        15.000          17.250
                  -4652236.269 6  -3627074.146 6  22831811.203    22831815.645
        12.250          12.000
 95  4 24 20  3 15.0000000  0  7G 2G 7G 4G15G26G27G12
                    577013.771 6    449276.251 6  21178473.789    21178476.477
        19.500          22.000
                  -3649842.340 6  -2845802.154 6  20185784.336    20185786.980
        19.500          21.000
                  -1433931.013 4  -1135423.111 5  23795564.023    23795570.215
         6.750           7.500
                   1733754.665 4   1345623.739 5  23973243.219    23973246.148
         6.250           7.250
                  -3758563.881 5  -2930575.424 5  23003142.648    23003145.809
        10.250          11.750
                   6627697.867 6   5166936.347 6  21525662.938    21525666.172
        15.000          17.250
                  -4687121.178 6  -3654257.184 6  22825172.961    22825177.242
        12.250          12.000
 95  4 24 20  3 30.0000000  0  6G 2G 7G 4G26G27G12
                    586364.496 6    456562.528 6  21180253.367    21180256.219
        19.500          22.000
                  -3647433.619 6  -2843925.225 6  20186242.617    20186245.332
        19.500          21.250
                  -1483277.911 4  -1173875.195 5  23786173.266    23786179.867
         6.750           7.250
                  -3755463.985 5  -2928159.928 5  23003732.898    23003736.199
        10.500          11.750
                   6670308.351 6   5200139.303 6  21533771.547    21533774.844
        15.000          17.250
                  -4721982.915 6  -3681422.154 6  22818538.852    22818543.426
        12.000          12.250
 95  4 24 20  3 45.0000000  0  6G 2G 7G 4G26G27G12
                    595757.974 6    463882.118 6  21182040.859    21182043.641
        19.500          22.000
                  -3644906.333 6  -2841955.909 6  20186723.516    20186726.145
        19.500          21.250
                  -1532610.196 5  -1212315.897 5  23776786.141    23776791.816
         7.500           6.750
                  -3752238.857 5  -2925646.855 5  23004347.156    23004349.613
        10.750          11.500
                   6713020.459 6   5233421.440 6  21541899.422    21541902.430
        15.000          17.250
                  -4756820.153 5  -3708568.039 6  22811909.430    22811914.004
        11.750          12.000
 95  4 24 20  4  0.0000000  0  6G 2G 7G 4G26G27G12
                    605195.002 6    471235.648 6  21183836.625    21183839.309
        19.500          22.000
                  -3642260.726 6  -2839894.394 6  20187227.094    20187229.625
        19.500          21.250
                  -1581931.411 5  -1250747.990 5  23767400.773    23767406.012
         7.750           6.750
                  -3748885.669 5  -2923033.988 5  23004984.727    23004987.324
        10.750          11.250
                   6755833.269 6   5266782.049 6  21550046.328    21550049.617
        15.000          17.250
                  -4791633.358 5  -3735695.192 6  22805284.711    22805289.246
        11.500          12.000
 95  4 24 20  4 15.0000000  0  6G 2G 7G 4G26G27G12
                    614680.029 6    478626.571 6  21185641.438    21185644.313
        19.750          22.250
                  -3639493.440 6  -2837738.065 6  20187753.766    20187756.258
        19.500          21.500
                  -1631244.131 5  -1289173.449 5  23758016.430    23758022.758
         7.500           7.250
                  -3745399.536 5  -2920317.529 5  23005648.055    23005650.641
        10.500          11.500
                   6798747.748 6   5300221.880 6  21558212.750    21558215.805
        15.250          17.000
                  -4826421.595 5  -3762802.898 5  22798664.750    22798669.117
        11.750          11.750
 95  4 24 20  4 30.0000000  0  6G 2G 7G 4G26G27G12
                    624213.597 6    486055.325 6  21187455.523    21187458.402
        19.500          22.000
                  -3636605.307 6  -2835487.567 6  20188303.391    20188305.828
        19.250          21.500
                  -1680547.094 5  -1327591.301 5  23748634.828    23748640.543
         8.000           7.250
                  -3741778.727 5  -2917496.130 5  23006337.180    23006340.059
        10.500          11.500
                   6841764.147 6   5333741.128 6  21566398.516    21566401.527
        15.000          16.750
                  -4861184.778 5  -3789891.084 5  22792049.594    22792053.938
        11.750          11.500
 95  4 24 20  4 45.0000000  0  6G 2G 7G 4G26G27G12
                    633794.321 6    493520.820 6  21189278.609    21189281.609
        19.500          22.000
                  -3633597.995 6  -2833144.206 6  20188875.750    20188878.371
        19.500          21.750
                  -1729839.364 5  -1366000.816 5  23739254.766    23739260.188
         7.750           7.500
                  -3738022.828 5  -2914569.473 5  23007051.891    23007054.945
        10.250          11.750
                   6884883.918 6   5367340.930 6  21574604.055    21574607.047
        15.000          16.750
                  -4895924.197 5  -3816960.744 5  22785438.711    22785443.219
        11.750          11.500
 95  4 24 20  5  0.0000000  0  6G 2G 7G 4G26G27G12
                    643422.245 6    501023.096 6  21191110.813    21191113.613
        19.500          22.000
                  -3630471.152 6  -2830707.704 6  20189470.594    20189473.293
        19.250          21.750
                  -1779117.974 5  -1404399.696 5  23729877.344    23729882.629
         7.750           7.250
                  -3734127.189 5  -2911533.922 5  23007793.281    23007796.184
        10.250          11.750
                   6928108.602 6   5401022.478 6  21582829.313    21582832.355
        15.000          16.750
                  -4930639.174 6  -3844011.364 5  22778832.648    22778837.297
        12.000          11.500
 95  4 24 20  5 15.0000000  0  6G 2G 7G 4G26G27G12
                    653101.399 6    508565.292 6  21192952.688    21192955.453
        19.500          22.000
                  -3627222.462 6  -2828176.255 6  20190088.578    20190091.184
        19.250          21.750
                  -1828377.702 5  -1442783.864 5  23720503.594    23720509.043
         7.500           7.500
                  -3730083.781 5  -2908383.218 6  23008562.664    23008565.773
        10.250          12.000
                   6971443.179 6   5434789.657 6  21591076.008    21591078.840
        15.500          16.750
                  -4965325.152 6  -3871039.384 5  22772232.258    22772236.598
        12.250          11.500
 95  4 24 20  5 30.0000000  0  6G 2G 7G 4G26G27G12
                    662827.392 6    516143.986 6  21194803.648    21194806.344
        19.750          22.000
                  -3623858.222 6  -2825554.766 6  20190728.977    20190731.617
        19.000          21.500
                  -1877621.426 4  -1481155.545 5  23711133.086    23711138.629
         7.250           8.000
                  -3725898.804 5  -2905122.205 6  23009359.078    23009362.430
        10.250          12.000
                   7014882.726 6   5468638.634 6  21599341.914    21599344.852
        15.250          16.750
                  -4999986.548 6  -3898048.259 5  22765636.289    22765640.551
        12.250          11.500
 95  4 24 20  5 45.0000000  0  6G 2G 7G 4G26G27G12
                    672607.210 6    523764.617 6  21196664.672    21196667.465
        19.750          22.000
                  -3620375.413 6  -2822840.889 6  20191391.609    20191394.156
        19.000          21.500
                  -1926845.045 4  -1519511.559 5  23701765.641    23701771.328
         7.250           8.250
                  -3721566.902 5  -2901746.709 6  23010183.422    23010186.645
        10.250          12.000
                   7058429.307 6   5502571.013 6  21607628.859    21607631.742
        15.250          16.750
                  -5034619.413 6  -3925034.897 5  22759045.914    22759050.133
        12.250          11.750
 95  4 24 20  6  0.0000000  0  6G 2G 7G 4G26G27G12
                    682439.835 6    531426.400 6  21198536.016    21198538.789
        19.750          22.000
                  -3616777.587 6  -2820037.388 6  20192076.313    20192078.816
        19.000          21.500
                  -1976049.990 4  -1557853.017 5  23692402.320    23692407.691
         7.250           7.750
                  -3717091.179 5  -2898259.139 5  23011035.164    23011038.168
        10.250          11.750
                   7102081.484 6   5536585.674 6  21615935.547    21615938.449
        15.000          16.750
                  -5069225.942 6  -3952001.012 5  22752460.484    22752464.781
        12.250          11.750
 95  4 24 20  6 15.0000000  0  6G 2G 7G 4G26G27G12
                    692324.342 6    539128.608 6  21200416.938    21200419.578
        19.750          22.000
                  -3613068.502 6  -2817147.187 6  20192782.172    20192784.684
        19.000          21.250
                  -2025238.873 5  -1596181.981 5  23683042.094    23683046.953
         7.500           7.500
                  -3712477.999 5  -2894664.461 5  23011913.070    23011916.211
        10.250          11.750
                   7145836.002 6   5570680.078 6  21624261.594    21624264.484
        15.000          16.750
                  -5103808.665 6  -3978948.575 6  22745879.578    22745883.980
        12.000          12.000
 95  4 24 20  6 30.0000000  0  6G 2G 7G 4G26G27G12
                    702258.677 6    546869.646 6  21202307.227    21202310.141
        19.750          22.000
                  -3609248.281 6  -2814170.390 6  20193508.984    20193511.535
        18.750          21.250
                  -2074406.910 4  -1634494.696 5  23673685.570    23673690.348
         7.250           7.750
                  -3707729.092 5  -2890964.021 5  23012816.969    23012820.066
        10.000          11.750
                   7189693.661 6   5604854.853 6  21632607.492    21632610.699
        15.000          16.750
                  -5138366.159 6  -4005876.477 6  22739303.477    22739307.648
        12.000          12.000
 95  4 24 20  6 45.0000000  0  6G 2G 7G 4G26G27G12
                    712241.674 6    554648.596 6  21204206.852    21204209.895
        19.500          22.250
                  -3605316.691 6  -2811106.813 6  20194257.227    20194259.734
        19.000          21.250
                  -2123550.214 4  -1672788.129 5  23664333.664    23664338.770
         7.000           7.750
                  -3702844.078 5  -2887157.525 5  23013746.094    23013748.996
        10.000          11.500
                   7233656.450 6   5639111.546 6  21640973.492    21640976.293
        15.000          16.750
                  -5172896.061 6  -4032782.880 6  22732732.594    22732737.012
        12.000          12.000
 95  4 24 20  7  0.0000000  0  6G 2G 7G 4G26G27G12
                    722269.092 6    562462.160 6  21206114.977    21206118.070
        19.500          22.250
                  -3601275.836 6  -2807958.091 6  20195026.383    20195028.738
        19.000          21.000
                  -2172670.248 4  -1711063.436 5  23654986.313    23654991.559
         7.000           7.750
                  -3697824.724 5  -2883246.353 5  23014701.625    23014704.262
        10.250          11.250
                   7277725.306 6   5673450.893 6  21649359.344    21649362.504
        14.750          16.750
                  -5207399.926 6  -4059668.989 6  22726166.695    22726171.137
        12.000          12.250
 95  4 24 20  7 15.0000000  0  6G 2G 7G 4G26G27G12
                    732340.857 7    570310.284 6  21208031.750    21208034.594
        20.000          22.250
                  -3597127.611 6  -2804725.709 6  20195815.742    20195818.086
        19.000          20.750
                  -2221770.780 4  -1749323.550 5  23645642.813    23645647.957
         6.750           7.750
                  -3692675.730 5  -2879234.166 5  23015681.578    23015684.082
        10.250          11.250
                   7321898.454 6   5707871.498 6  21657765.523    21657768.445
        14.750          16.500
                  -5241878.706 6  -4086535.557 6  22719605.852    22719610.133
        12.250          12.250
 95  4 24 20  7 30.0000000  0  6G 2G 7G 4G26G27G12
                    742461.059 7    578196.151 6  21209957.836    21209960.523
        20.000          22.250
                  -3592866.870 6  -2801405.646 6  20196626.531    20196628.766
        19.000          20.750
                  -2270850.632 4  -1787567.538 5  23636303.078    23636308.398
         6.500           8.250
                  -3687399.021 5  -2875122.455 5  23016685.563    23016688.055
        10.250          11.000
                   7366179.038 6   5742375.826 6  21666191.797    21666194.539
        14.750          16.500
                  -5276328.760 6  -4113379.741 6  22713050.195    22713054.578
        12.750          12.000
 95  4 24 20  7 45.0000000  0  6G 2G 7G 4G26G27G12
                    752624.913 7    586116.035 6  21211891.719    21211894.465
        20.000          22.250
                  -3588496.393 6  -2798000.076 6  20197458.195    20197460.359
        19.000          21.000
                  -2319912.973 4  -1825797.870 5  23626966.992    23626972.164
         6.750           8.250
                  -3682000.750 5  -2870916.021 5  23017712.586    23017715.176
        10.000          11.000
                   7410562.491 6   5776960.316 6  21674637.656    21674640.461
        15.000          16.500
                  -5310753.696 6  -4140204.355 6  22706499.234    22706503.680
        13.000          12.000
 95  4 24 20  8  0.0000000  0  6G 2G 7G 4G26G27G12
                    762834.159 6    594071.288 6  21213834.344    21213837.203
        19.750          22.000
                  -3584015.418 6  -2794508.402 6  20198310.828    20198313.246
        19.000          20.750
                  -2368954.179 4  -1864011.747 5  23617634.867    23617639.672
         7.000           8.000
                  -3676479.262 5  -2866613.580 5  23018763.313    23018766.168
        10.000          11.250
                   7455053.463 6   5811628.578 6  21683103.938    21683107.055
        14.750          16.500
                  -5345151.367 6  -4167007.724 5  22699953.641    22699957.875
        13.000          11.500
 95  4 24 20  8 15.0000000  0  6G 2G 7G 4G26G27G12
                    773088.514 6    602061.689 6  21215785.672    21215788.578
        19.750          22.000
                  -3579422.992 6  -2790929.886 6  20199184.797    20199187.129
        19.250          21.000
                  -2417974.293 4  -1902209.195 5  23608306.922    23608311.480
         7.250           8.250
                  -3670836.834 5  -2862216.895 5  23019836.984    23019840.176
        10.000          11.500
                   7499652.250 6   5846380.855 6  21691591.125    21691593.906
        15.000          16.250
                  -5379521.443 6  -4193789.597 5  22693413.352    22693417.559
        13.000          11.750
 95  4 24 20  8 30.0000000  0  6G 2G 7G 4G26G27G12
                    783385.756 7    610085.508 6  21217745.281    21217747.980
        20.000          21.750
                  -3574719.938 6  -2787265.166 6  20200079.773    20200082.227
        19.250          21.250
                  -2466972.924 4  -1940389.894 5  23598982.820    23598987.637
         7.250           8.750
                  -3665071.296 5  -2857724.283 5  23020934.188    23020937.289
        10.250          11.750
                   7544358.161 6   5881216.604 6  21700098.156    21700101.180
        14.750          16.250
                  -5413863.375 6  -4220549.537 5  22686878.086    22686882.535
        12.750          11.750
 95  4 24 20  8 45.0000000  0  6G 2G 7G 4G26G27G12
                    793723.101 7    618140.581 6  21219712.398    21219715.176
        20.000          21.750
                  -3569908.711 6  -2783516.155 6  20200995.297    20200997.836
        19.250          21.500
                  -2515952.040 4  -1978555.381 5  23589661.883    23589666.930
         7.000           8.500
                  -3659182.270 5  -2853135.439 5  23022055.133    23022058.027
        10.250          11.750
                   7589169.753 6   5916134.702 6  21708625.625    21708628.594
        14.500          16.250
                  -5448178.823 6  -4247288.842 6  22680348.039    22680352.625
        12.500          12.000
 95  4 24 20  9  0.0000000  0  6G 2G 7G 4G26G27G12
                    804103.640 7    626229.304 6  21221687.898    21221690.438
        20.000          21.750
                  -3564988.711 6  -2779682.385 6  20201931.508    20201933.926
        19.000          21.500
                  -2564912.171 4  -2016706.086 5  23580345.422    23580349.750
         7.250           8.500
                  -3653168.614 5  -2848449.487 5  23023199.586    23023202.340
        10.250          11.750
                   7634087.874 6   5951135.810 6  21717173.063    21717176.012
        14.500          16.250
                  -5482467.546 6  -4274007.312 6  22673823.242    22673827.941
        12.500          12.500
 95  4 24 20  9 15.0000000  0  6G 2G 7G 4G26G27G12
                    814527.667 7    634351.922 6  21223671.406    21223674.215
        20.250          22.000
                  -3559959.825 6  -2775763.767 6  20202888.250    20202890.566
        19.000          21.750
                  -2613856.111 4  -2054844.160 5  23571031.531    23571035.754
         7.000           8.250
                  -3647033.307 5  -2843668.741 5  23024367.117    23024369.664
        10.500          11.750
                   7679109.867 6   5986217.862 6  21725740.555    21725743.684
        14.250          16.250
                  -5516731.270 6  -4300706.301 6  22667302.938    22667307.645
        12.500          12.750
 95  4 24 20  9 30.0000000  0  6G 2G 7G 4G26G27G12
                    824998.461 7    642510.976 6  21225664.047    21225666.680
        20.000          22.000
                  -3554818.054 6  -2771757.192 6  20203866.875    20203869.398
        19.000          21.750
                  -2662785.486 4  -2092970.886 5  23561720.523    23561724.754
         7.250           8.000
                  -3640772.562 5  -2838790.248 5  23025558.484    23025560.836
        10.500          11.250
                   7724232.885 6   6021378.626 6  21734326.969    21734330.238
        14.000          16.250
                  -5550968.090 6  -4327384.326 6  22660787.891    22660792.520
        12.500          12.750
 95  4 24 20  9 45.0000000  0  6G 2G 7G 4G26G27G12
                    835518.347 7    650708.285 6  21227665.797    21227668.695
        20.000          22.250
                  -3549559.965 6  -2767659.978 6  20204867.570    20204870.059
        18.750          22.000
                  -2711693.349 5  -2131080.854 5  23552413.594    23552417.691
         7.500           8.000
                  -3634378.787 5  -2833808.099 5  23026775.094    23026777.664
        10.500          11.250
                   7769459.943 6   6056620.464 6  21742933.594    21742936.789
        14.250          16.250
                  -5585174.226 6  -4354038.447 6  22654278.711    22654283.426
        12.750          13.000
 95  4 24 20 10  0.0000000  0  6G 2G 7G 4G26G27G12
                    846085.526 7    658942.447 6  21229676.813    21229679.617
        20.250          22.250
                  -3544189.687 6  -2763475.345 6  20205889.336    20205891.977
        18.500          22.000
                  -2760579.392 5  -2169173.819 5  23543110.930    23543115.145
         8.000           8.000
                  -3627850.056 5  -2828720.786 5  23028017.383    23028019.969
        10.250          11.250
                   7814788.634 6   6091941.495 6  21751559.422    21751562.637
        14.250          16.250
                  -5619351.656 6  -4380670.196 6  22647775.000    22647779.414
        13.000          13.000
 95  4 24 20 10 15.0000000  0  6G 2G 7G 4G26G27G12
                    856701.680 7    667214.770 6  21231696.922    21231699.840
        20.250          22.250
                  -3538704.202 6  -2759200.938 6  20206933.219    20206936.027
        18.500          22.000
                  -2809445.121 5  -2207250.954 5  23533812.102    23533815.777
         8.750           7.750
                  -3621184.747 5  -2823527.052 5  23029285.508    23029288.352
        10.000          11.250
                   7860215.272 6   6127338.848 6  21760203.969    21760207.004
        14.250          16.250
                  -5653500.218 6  -4407279.449 6  22641276.828    22641280.898
        13.250          12.750
 95  4 24 20 10 30.0000000  0  6G 2G 7G 4G26G27G12
                    867367.691 7    675525.943 6  21233726.570    21233729.555
        20.250          22.000
                  -3533100.522 6  -2754834.433 6  20207999.523    20208002.340
        18.500          22.000
                  -2858291.915 5  -2245313.340 5  23524516.992    23524520.180
         9.000           7.250
                  -3614379.434 5  -2818224.225 5  23030580.109    23030583.477
         9.750          11.000
                   7905736.856 6   6162810.185 6  21768866.430    21768869.758
        14.250          16.250
                  -5687619.317 6  -4433865.753 6  22634784.164    22634788.125
        13.250          12.750
 95  4 24 20 10 45.0000000  0  6G 2G 7G 4G26G27G12
                    878082.582 7    683875.206 6  21235765.469    21235768.297
        20.000          22.000
                  -3527381.761 6  -2750378.251 6  20209087.750    20209090.441
        18.500          22.000
                  -2907119.586 5  -2283360.840 5  23515225.383    23515228.391
         9.000           7.000
                  -3607436.167 5  -2812813.899 5  23031901.445    23031904.852
        10.000          11.250
                   7951351.794 6   6198354.268 6  21777546.602    21777549.734
        14.250          16.250
                  -5721711.100 6  -4460430.771 6  22628296.688    22628300.656
        13.250          12.500
 95  4 24 20 11  0.0000000  0  6G 2G 7G 4G26G27G12
                    888848.551 7    692264.266 6  21237814.383    21237817.121
        20.250          22.000
                  -3521547.946 6  -2745832.419 6  20210198.047    20210200.563
        18.500          22.000
                  -2955926.394 5  -2321392.070 5  23505937.625    23505940.371
         8.750           6.750
                  -3600358.668 5  -2807298.978 5  23033248.313    23033251.836
        10.000          11.500
                   7997057.611 6   6233969.166 6  21786244.313    21786247.359
        14.250          16.000
                  -5755776.276 6  -4486975.056 6  22621814.359    22621818.164
        13.000          12.500
 95  4 24 20 11 15.0000000  0  6G 2G 7G 4G26G27G12
                    899666.217 7    700693.609 6  21239872.867    21239875.586
        20.250          22.000
                  -3515597.759 6  -2741195.907 6  20211330.320    20211332.875
        18.500          22.000
                  -3004710.041 5  -2359405.257 5  23496654.297    23496657.207
         8.500           6.750
                  -3593147.601 5  -2801679.975 5  23034620.586    23034623.855
         9.750          11.500
                   8042855.337 6   6269655.682 6  21794959.070    21794962.570
        14.250          16.000
                  -5789813.055 6  -4513497.207 6  22615337.281    22615341.480
        13.000          12.750
 95  4 24 20 11 30.0000000  0  6G 2G 7G 4G26G27G12
                    910536.693 7    709164.108 6  21241941.492    21241944.246
        20.250          22.000
                  -3509528.629 6  -2736466.713 6  20212485.203    20212487.816
        18.250          22.000
                  -3053468.292 5  -2397398.655 5  23487375.727    23487378.297
         8.250           6.500
                  -3585802.300 5  -2795956.380 5  23036018.688    23036021.840
        10.000          11.500
                   8088745.558 6   6305414.269 6  21803691.898    21803694.699
        14.250          15.750
                  -5823819.507 6  -4539995.730 6  22608865.852    22608870.285
        13.000          12.750
 95  4 24 20 11 45.0000000  0  6G 2G 7G 4G26G27G12
                    921458.748 7    717674.796 6  21244019.805    21244022.656
        20.250          22.000
                  -3503344.579 6  -2731647.969 6  20213661.914    20213664.594
        18.250          22.000
                  -3102200.007 5  -2435371.364 5  23478102.258    23478105.332
         8.000           6.750
                  -3578324.185 5  -2790129.281 5  23037441.766    23037444.480
        10.000          11.250
                   8134727.529 6   6341244.353 6  21812441.852    21812445.246
        14.250          16.000
                  -5857797.184 6  -4566471.830 6  22602400.406    22602404.551
        13.250          12.750
 95  4 24 20 12  0.0000000  0  6G 2G 7G 4G26G27G12
                    932429.820 7    726223.677 6  21246107.547    21246110.254
        20.250          21.750
                  -3497045.770 6  -2726739.805 6  20214860.406    20214863.176
        18.250          22.000
                  -3150900.334 5  -2473319.612 5  23468834.758    23468837.590
         8.000           6.750
                  -3570715.821 5  -2784200.696 5  23038889.406    23038892.539
         9.750          11.250
                   8180802.203 6   6377146.669 6  21821209.773    21821212.773
        14.250          15.750
                  -5891746.292 6  -4592925.674 6  22595939.977    22595944.211
        13.250          13.250
 95  4 24 20 12 15.0000000  0  6G 2G 7G 4G26G27G12
                    943450.648 7    734811.333 6  21248204.625    21248207.547
        20.250          21.750
                  -3490630.154 6  -2721740.621 6  20216081.203    20216083.891
        18.250          22.000
                  -3199569.639 5  -2511243.686 5  23459573.211    23459576.453
         8.000           6.750
                  -3562980.618 5  -2778173.278 5  23040361.266    23040364.207
         9.750          11.250
                   8226970.190 6   6413121.700 6  21829995.063    21829998.570
        14.000          15.750
                  -5925665.676 6  -4619356.349 6  22589485.305    22589489.770
        13.250          13.750
 95  4 24 20 12 30.0000000  0  6G 2G 7G 4G26G27G12
                    954519.868 7    743436.695 6  21250310.953    21250313.801
        20.000          21.750
                  -3484098.641 6  -2716651.127 6  20217324.359    20217326.773
        18.250          22.000
                  -3248208.369 5  -2549143.942 5  23450317.680    23450320.977
         8.500           7.000
                  -3555122.655 5  -2772050.194 5  23041856.789    23041859.398
         9.750          11.250
                   8273231.521 6   6449169.463 6  21838798.391    21838801.488
        14.000          15.500
                  -5959555.375 6  -4645763.890 6  22583036.250    22583040.809
        13.500          14.000
 95  4 24 20 12 45.0000000  0  6G 2G 7G 4G26G27G12
                    965634.182 7    752097.194 6  21252426.070    21252428.844
        20.250          21.750
                  -3477457.494 6  -2711476.208 6  20218588.016    20218590.559
        18.250          21.750
                  -3296814.003 5  -2587018.401 5  23441068.500    23441071.332
         8.750           7.000
                  -3547146.012 5  -2765834.643 5  23043374.398    23043377.551
         9.750          11.000
                   8319588.948 6   6485292.107 6  21847620.016    21847623.426
        14.000          15.750
                  -5993416.137 6  -4672148.892 6  22576592.750    22576597.340
        13.750          14.000
 95  4 24 20 13  0.0000000  0  6G 2G 7G 4G26G27G12
                    976792.656 7    760792.104 6  21254549.563    21254552.367
        20.500          22.000
                  -3470707.742 6  -2706216.655 6  20219872.453    20219874.996
        18.250          21.750
                  -3345384.878 5  -2624865.788 5  23431825.500    23431828.250
         8.750           7.000
                  -3539053.741 5  -2759528.992 5  23044914.672    23044917.531
        10.000          11.250
                   8366042.669 6   6521489.781 6  21856459.938    21856463.238
        14.000          15.500
                  -6027247.657 6  -4698511.102 6  22570154.875    22570159.434
        13.500          14.000
 95  4 24 20 13 15.0000000  0  6G 2G 7G 4G26G27G12
                    987992.834 7    769519.517 6  21256680.953    21256683.559
        20.250          21.750
                  -3463851.809 6  -2700874.367 6  20221177.063    20221179.586
        18.000          21.750
                  -3393924.561 5  -2662688.859 5  23422588.828    23422591.547
         9.000           7.000
                  -3530846.516 5  -2753133.769 5  23046476.492    23046479.332
        10.000          11.000
                   8412588.054 6   6557758.887 6  21865317.367    21865320.465
        14.250          15.500
                  -6061051.886 6  -4724852.051 6  22563721.969    22563726.777
        13.250          13.750
 95  4 24 20 13 30.0000000  0  6G 2G 7G 4G26G27G12
                    999236.342 7    778280.689 6  21258820.266    21258823.262
        20.250          21.750
                  -3456887.991 6  -2695448.011 6  20222502.180    20222504.641
        18.250          21.750
                  -3442433.117 5  -2700487.676 5  23413357.680    23413360.391
         8.250           6.750
                  -3522519.543 5  -2746645.231 5  23048061.094    23048064.027
        10.250          11.250
                   8459225.606 6   6594099.811 6  21874192.516    21874195.496
        14.250          15.500
                  -6094826.190 6  -4751169.676 6  22557294.719    22557299.703
        13.000          14.000
 95  4 24 20 13 45.0000000  0  6G 2G 7G 4G26G27G12
                   1010521.431 7    787074.263 6  21260967.656    21260970.578
        20.000          21.750
                  -3449819.734 6  -2689940.276 6  20223847.367    20223849.980
        18.250          22.000
                  -3490909.895 5  -2738261.741 5  23404132.773    23404135.488
         8.250           7.000
                  -3514071.631 5  -2740062.458 5  23049668.766    23049671.887
        10.250          11.250
                   8505951.859 6   6630509.850 6  21883083.828    21883087.113
        14.250          15.500
                  -6128572.141 6  -4777465.204 6  22550873.125    22550878.039
        13.000          14.000
 95  4 24 20 14  0.0000000  0  6G 2G 7G 4G26G27G12
                   1021843.848 7    795896.920 6  21263122.328    21263125.277
        20.250          21.750
                  -3442650.876 6  -2684354.155 6  20225211.375    20225214.098
        18.000          22.000
                  -3539356.827 5  -2776012.544 5  23394913.555    23394916.980
         8.000           7.500
                  -3505506.432 5  -2733388.289 5  23051298.680    23051301.758
        10.000          11.250
                   8552765.566 6   6666988.034 6  21891992.336    21891995.297
        14.250          15.250
                  -6162292.436 6  -4803740.748 6  22544456.383    22544461.051
        13.250          13.500
 95  4 24 20 14 15.0000000  0  6G 2G 7G 4G26G27G12
                   1033206.206 7    804750.704 6  21265284.664    21265287.430
        20.250          22.000
                  -3435380.678 6  -2678689.060 6  20226594.922    20226597.563
        18.000          22.000
                  -3587774.475 4  -2813740.508 5  23385699.297    23385703.395
         7.250           7.250
                  -3496823.759 5  -2726622.580 5  23052950.945    23052953.566
        10.250          11.000
                   8599670.254 6   6703537.121 6  21900918.031    21900920.949
        14.250          15.250
                  -6195984.481 6  -4829994.278 6  22538045.133    22538049.328
        13.750          13.250
 95  4 24 20 14 30.0000000  0  6G 2G 7G 4G26G27G12
                   1044610.187 7    813636.918 6  21267454.859    21267457.531
        20.500          21.750
                  -3428013.343 6  -2672948.278 6  20227996.914    20227999.473
        18.000          22.000
                  -3636168.629 4  -2851450.179 5  23376490.344    23376493.773
         7.250           7.000
                  -3488022.952 5  -2719764.819 5  23054625.883    23054628.324
        10.250          11.000
                   8646664.554 6   6740156.021 6  21909860.734    21909863.852
        14.250          15.250
                  -6229649.373 6  -4856226.658 6  22531638.891    22531643.238
        13.750          13.500
 95  4 24 20 14 45.0000000  0  6G 2G 7G 4G26G27G12
                   1056055.689 7    822555.489 6  21269632.867    21269635.688
        20.500          22.000
                  -3420550.638 6  -2667133.178 6  20229417.031    20229419.555
        18.250          22.000
                  -3684539.057 4  -2889141.355 5  23367285.125    23367289.738
         7.000           7.750
                  -3479101.970 5  -2712813.417 5  23056323.453    23056325.734
        10.250          10.750
                   8693748.754 6   6776844.982 6  21918820.508    21918823.492
        14.000          15.000
                  -6263287.545 6  -4882438.211 6  22525237.844    22525242.066
        14.000          13.750
 95  4 24 20 15  0.0000000  0  6G 2G 7G 4G26G27G12
                   1067548.824 7    831511.176 6  21271819.930    21271822.746
        20.750          21.750
                  -3412987.096 6  -2661239.509 6  20230856.516    20230858.945
        18.000          22.000
                  -3732884.741 5  -2926813.245 5  23358086.102    23358090.055
         7.500           7.750
                  -3470055.255 5  -2705764.050 5  23058044.555    23058047.199
         9.750          10.500
                   8740924.167 6   6813605.014 6  21927797.813    21927800.945
        13.750          14.750
                  -6296895.545 6  -4908626.247 6  22518842.453    22518846.746
        14.000          14.000
 95  4 24 20 15 15.0000000  0  6G 2G 7G 4G26G27G12
                   1079092.774 7    840506.459 6  21274016.633    21274019.297
        20.500          21.750
                  -3405319.591 6  -2655264.823 6  20232315.539    20232318.133
        18.000          22.000
                  -3781207.927 5  -2964467.622 5  23348890.508    23348894.203
         7.750           7.500
                  -3460880.709 5  -2698615.065 5  23059790.078    23059792.676
         9.750          10.500
                   8788190.115 6   6850435.592 6  21936792.188    21936795.281
        14.000          15.000
                  -6330472.426 6  -4934790.033 6  22512453.000    22512457.293
        14.000          14.000
 95  4 24 20 15 30.0000000  0  6G 2G 7G 4G26G27G12
                   1090681.542 7    849536.666 6  21276221.883    21276224.617
        20.250          21.500
                  -3397551.982 6  -2649212.143 6  20233793.523    20233796.184
        18.000          21.750
                  -3829512.946 5  -3002107.830 5  23339698.141    23339702.598
         8.000           8.250
                  -3451582.147 5  -2691369.449 5  23061559.773    23061562.395
         9.750          10.500
                   8835543.525 6   6887334.323 6  21945803.031    21945806.480
        13.500          14.750
                  -6364022.268 6  -4960932.757 6  22506068.641    22506072.699
        13.750          14.000
 95  4 24 20 15 45.0000000  0  6G 2G 7G 4G26G27G12
                   1102313.613 7    858600.613 6  21278435.422    21278438.008
        20.500          21.250
                  -3389683.549 6  -2643080.894 6  20235290.773    20235293.328
        18.000          22.000
                  -3877798.193 5  -3039732.638 5  23330509.523    23330513.637
         8.000           8.250
                  -3442159.736 5  -2684027.325 5  23063352.883    23063355.996
         9.500          10.750
                   8882989.534 6   6924305.208 6  21954832.219    21954834.918
        13.750          14.750
                  -6397544.731 6  -4987054.145 6  22499689.438    22499693.668
        13.750          13.750
 95  4 24 20 16  0.0000000  0  6G 2G 7G 4G26G27G12
                   1113992.101 7    867700.731 6  21280657.672    21280660.445
        20.500          21.500
                  -3381712.655 6  -2636869.806 6  20236807.633    20236810.164
        18.000          21.750
                  -3926062.082 5  -3077340.804 5  23321325.250    23321329.473
         8.250           8.250
                  -3432613.373 5  -2676588.613 5  23065169.617    23065172.480
         9.500          10.750
                   8930535.140 6   6961353.704 6  21963879.453    21963882.715
        13.750          14.750
                  -6431037.619 6  -5013152.485 6  22493315.938    22493320.402
        14.000          13.750
 95  4 24 20 16 15.0000000  0  6G 2G 7G 4G26G27G12
                   1125720.301 7    876839.587 6  21282889.602    21282892.207
        20.500          21.500
                  -3373635.414 6  -2630575.848 6  20238344.688    20238347.277
        18.000          21.750
                  -3974304.209 5  -3114932.011 5  23312145.133    23312149.480
         8.250           8.500
                  -3422942.536 5  -2669052.907 5  23067010.117    23067012.855
         9.500          11.250
                   8978182.166 6   6998481.225 6  21972946.570    21972949.578
        13.750          14.750
                  -6464498.548 6  -5039225.923 6  22486948.688    22486953.219
        14.250          13.750
 95  4 24 20 16 30.0000000  0  6G 2G 7G 4G26G27G12
                   1137496.902 7    886016.157 6  21285130.625    21285133.246
        20.500          21.500
                  -3365456.238 6  -2624202.464 6  20239901.148    20239903.633
        18.000          21.750
                  -4022528.825 5  -3152509.578 5  23302967.945    23302972.125
         7.750           8.250
                  -3413147.074 5  -2661420.087 5  23068874.156    23068876.938
         9.750          11.250
                   9025923.622 6   7035682.329 6  21982031.531    21982034.574
        13.750          14.750
                  -6497930.914 6  -5065277.108 6  22480586.789    22480590.957
        14.500          13.250
 95  4 24 20 16 45.0000000  0  6G 2G 7G 4G26G27G12
                   1149321.273 7    895229.948 6  21287380.766    21287383.629
        20.500          21.500
                  -3357173.340 6  -2617748.254 6  20241477.102    20241479.621
        17.750          21.750
                  -4070730.974 5  -3190069.632 5  23293795.617    23293800.156
         8.000           9.000
                  -3403224.095 5  -2653687.908 5  23070762.539    23070765.738
         9.750          11.500
                   9073758.419 6   7072956.169 6  21991134.141    21991137.203
        13.750          14.500
                  -6531333.947 6  -5091305.445 6  22474230.203    22474234.363
        14.250          13.000
 95  4 24 20 17  0.0000000  0  6G 2G 7G 4G26G27G12
                   1161194.244 7    904481.613 6  21289640.086    21289642.914
        20.750          21.750
                  -3348783.592 6  -2611210.789 6  20243073.625    20243076.191
        17.750          21.750
                  -4118905.873 5  -3227608.440 5  23284627.875    23284633.211
         7.750           9.500
                  -3393171.595 5  -2645854.801 5  23072675.242    23072678.664
         9.750          11.500
                   9121687.630 6   7110303.577 6  22000254.680    22000257.969
        13.500          14.500
                  -6564705.300 6  -5117309.086 6  22467879.703    22467884.277
        14.000          13.250
 95  4 24 20 17 15.0000000  0  6G 2G 7G 4G26G27G12
                   1173115.149 7    913770.630 6  21291908.633    21291911.375
        20.500          21.500
                  -3340289.384 6  -2604591.920 6  20244689.984    20244692.750
        17.750          22.000
                  -4167053.422 5  -3265125.938 5  23275466.055    23275470.738
         8.250           9.250
                  -3382989.095 5  -2637920.397 5  23074612.781    23074616.195
         9.500          11.250
                   9169710.635 6   7147724.073 6  22009393.242    22009396.152
        13.500          14.000
                  -6598045.331 6  -5143288.324 6  22461535.219    22461539.832
        14.000          13.250
 95  4 24 20 17 30.0000000  0  6G 2G 7G 4G26G27G12
                   1185078.671 7    923092.852 6  21294185.375    21294187.676
        20.500          21.250
                  -3331693.421 6  -2597893.768 6  20246325.906    20246328.602
        17.750          22.000
                  -4215170.432 5  -3302619.661 5  23266309.758    23266314.449
         8.500           9.250
                  -3372678.192 5  -2629885.947 5  23076575.352    23076578.586
        10.000          11.250
                   9217828.830 6   7185218.737 6  22018549.734    22018553.051
        13.500          14.500
                  -6631355.070 6  -5169243.954 6  22455196.719    22455201.199
        13.750          13.250
 95  4 24 20 17 45.0000000  0  6G 2G 7G 4G26G27G12
                   1197085.759 7    932449.022 6  21296469.875    21296472.531
        20.500          21.250
                  -3322995.123 6  -2591115.874 6  20247981.234    20247983.895
        17.750          22.000
                  -4263255.252 5  -3340088.283 5  23257159.188    23257164.258
         8.250           9.250
                  -3362238.752 5  -2621751.335 5  23078561.867    23078564.637
        10.250          11.000
                   9266044.237 6   7222789.156 6  22027724.656    22027728.324
        13.250          14.500
                  -6664632.979 6  -5195174.779 6  22448864.156    22448868.441
        13.750          13.250
 95  4 24 20 18  0.0000000  0  6G 2G 7G 4G26G27G12
                   1209137.874 7    941840.278 6  21298763.250    21298766.113
        20.250          21.250
                  -3314195.259 6  -2584258.834 6  20249655.789    20249658.320
        17.750          22.250
                  -4311308.024 5  -3377531.941 5  23248015.258    23248019.801
         8.250           9.000
                  -3351673.070 5  -2613518.346 5  23080572.352    23080575.301
        10.000          11.000
                   9314354.883 6   7260433.788 6  22036918.250    22036921.430
        13.250          14.500
                  -6697879.082 6  -5221080.821 6  22442537.766    22442541.742
        14.000          13.250
 95  4 24 20 18 15.0000000  0  6G 2G 7G 4G26G27G12
                   1221236.781 7    951267.994 6  21301065.773    21301068.410
        20.500          21.500
                  -3305291.211 6  -2577320.614 6  20251350.078    20251352.645
        17.750          22.250
                  -4359325.260 5  -3414947.898 5  23238877.758    23238883.289
         8.500           9.250
                  -3340978.738 5  -2605185.118 5  23082607.484    23082610.184
        10.000          11.250
                   9362757.834 6   7298150.336 6  22046128.656    22046132.141
        13.000          14.500
                  -6731090.736 6  -5246960.024 6  22436217.891    22436221.926
        14.500          13.250
 95  4 24 20 18 30.0000000  0  6G 2G 7G 4G26G27G12
                   1233378.709 7    960729.234 6  21303376.383    21303379.039
        20.250          21.250
                  -3296287.621 6  -2570304.829 6  20253063.414    20253065.984
        17.750          22.000
                  -4407310.306 5  -3452338.801 5  23229746.922    23229750.797
         9.000           8.500
                  -3330159.359 5  -2596754.443 5  23084666.367    23084669.270
         9.750          11.250
                   9411248.050 6   7335934.891 6  22055356.266    22055359.668
        13.000          14.250
                  -6764271.815 6  -5272815.400 6  22429903.703    22429907.746
        14.500          13.250
 95  4 24 20 18 45.0000000  0  6G 2G 7G 4G26G27G12
                   1245563.342 7    970223.754 6  21305695.000    21305697.656
        20.500          21.500
                  -3287182.194 6  -2563209.686 6  20254795.945    20254798.469
        17.750          22.250
                  -4455260.635 5  -3489702.637 5  23220621.828    23220626.566
         8.750           9.000
                  -3319214.790 5  -2588226.222 5  23086749.141    23086751.793
         9.750          11.250
                   9459828.500 6   7373789.755 6  22064600.852    22064604.355
        13.000          14.250
                  -6797419.994 6  -5298645.141 6  22423595.797    22423599.660
        14.750          13.000
 95  4 24 20 19  0.0000000  0  6G 2G 7G 4G26G27G12
                   1257788.765 7    979750.055 6  21308021.484    21308024.250
        20.500          21.500
                  -3277973.058 6  -2556033.737 6  20256548.563    20256551.207
        18.000          22.250
                  -4503175.683 5  -3527038.981 5  23211504.195    23211508.816
         9.250           9.250
                  -3308150.262 5  -2579604.523 5  23088854.711    23088857.188
        10.000          11.000
                   9508497.904 6   7411713.936 6  22073862.375    22073865.715
        13.000          14.250
                  -6830535.734 6  -5324449.614 6  22417294.063    22417297.605
        14.500          12.500
 95  4 24 20 19 15.0000000  0  6G 2G 7G 4G26G27G12
                   1270059.730 7    989311.846 6  21310356.609    21310359.133
        20.500          21.500
                  -3268657.859 6  -2548775.139 6  20258321.234    20258323.914
        18.000          22.250
                  -4551055.380 5  -3564347.788 5  23202392.820    23202396.797
         9.250           8.750
                  -3296966.167 5  -2570889.658 5  23090982.805    23090985.285
        10.000          10.750
                   9557260.024 6   7449710.369 6  22083141.492    22083144.863
        13.000          14.000
                  -6863615.949 6  -5350226.401 6  22410998.930    22411002.789
        14.250          12.500
 95  4 24 20 19 30.0000000  0  6G 2G 7G 4G26G27G12
                   1282371.662 7    998905.559 6  21312699.516    21312702.168
        20.500          21.500
                  -3259237.906 6  -2541434.915 6  20260113.852    20260116.559
        17.750          22.250
                  -4598900.938 5  -3601630.003 5  23193288.289    23193292.449
         9.250           9.250
                  -3285669.602 5  -2562087.155 5  23093132.586    23093135.344
        10.000          10.750
                   9606111.813 6   7487776.666 6  22092437.797    22092441.230
        13.000          14.250
                  -6896663.569 6  -5375977.784 6  22404710.117    22404714.328
        14.000          13.000
 95  4 24 20 19 45.0000000  0  6G 2G 7G 4G26G27G12
                   1294726.431 7   1008532.650 6  21315050.555    21315053.195
        20.500          21.250
                  -3249709.595 6  -2534010.256 6  20261926.961    20261929.719
        17.750          22.000
                  -4646712.178 5  -3638885.448 5  23184189.938    23184194.578
         9.250          10.000
                  -3274262.382 5  -2553198.432 5  23095303.492    23095305.871
        10.250          10.750
                   9655051.956 6   7525911.816 6  22101750.719    22101753.949
        13.000          13.750
                  -6929677.566 6  -5401702.961 6  22398427.633    22398432.234
        14.000          13.500
 95  4 24 20 20  0.0000000  0  6G 2G 7G 4G26G27G12
                   1307128.263 7   1018196.415 6  21317410.461    21317413.133
        20.500          21.250
                  -3240071.036 6  -2526499.689 6  20263761.141    20263763.902
        17.750          22.000
                  -4694486.842 5  -3676112.409 5  23175098.938    23175103.387
         9.500          10.000
                  -3262741.534 5  -2544221.165 5  23097495.844    23097498.246
        10.250          10.750
                   9704076.800 6   7564112.966 6  22111079.813    22111083.492
        13.000          14.250
                  -6962656.443 6  -5427400.778 6  22392151.914    22392156.203
        14.000          13.250
 95  4 24 20 20 15.0000000  0  6G 2G 7G 4G26G27G12
                   1319575.400 7   1027895.480 6  21319778.883    21319781.527
        20.250          21.250
                  -3230325.318 6  -2518905.623 6  20265615.586    20265618.262
        17.750          22.000
                  -4742224.924 5  -3713310.855 5  23166014.313    23166019.441
         9.250          10.250
                  -3251107.897 5  -2535156.008 5  23099709.648    23099712.320
        10.000          10.750
                   9753182.229 6   7602376.906 6  22120424.227    22120427.961
        12.750          14.250
                  -6995602.126 6  -5453072.729 6  22385882.727    22385886.781
        14.500          13.500
 95  4 24 20 20 30.0000000  0  6G 2G 7G 4G26G27G12
                   1332072.910 7   1037633.797 6  21322157.109    21322159.852
        20.250          21.250
                  -3220471.603 6  -2511227.402 6  20267490.703    20267493.273
        17.750          21.500
                  -4789924.656 5  -3750479.421 5  23156937.648    23156941.727
         9.500          10.000
                  -3239357.344 5  -2525999.749 5  23101945.563    23101948.375
        10.000          10.750
                   9802369.516 6   7640704.629 6  22129784.180    22129787.855
        12.500          14.000
                  -7028511.105 6  -5478716.082 6  22379620.414    22379624.855
        15.000          13.750
 95  4 24 20 20 45.0000000  0  6G 2G 7G 4G26G27G12
                   1344619.529 7   1047410.378 6  21324544.703    21324547.633
        20.250          21.500
                  -3210511.381 6  -2503466.190 6  20269386.141    20269388.480
        17.750          21.500
                  -4837585.491 5  -3787617.690 5  23147867.984    23147872.246
         9.250          10.000
                  -3227493.280 5  -2516755.040 5  23104203.141    23104206.109
        10.000          11.000
                   9851636.240 6   7679094.256 6  22139159.578    22139163.129
        12.750          14.000
                  -7061384.725 6  -5504331.884 6  22373364.922    22373369.137
        15.000          14.000
 95  4 24 20 21  0.0000000  0  6G 2G 7G 4G26G27G12
                   1357215.056 7   1057225.072 6  21326941.625    21326944.566
        20.500          21.500
                  -3200443.155 6  -2495620.816 6  20271302.109    20271304.363
        17.750          21.500
                  -4885205.712 5  -3824724.298 5  23138805.914    23138810.801
         9.000          10.250
                  -3215515.070 5  -2507421.387 5  23106482.297    23106485.641
         9.750          10.750
                   9900980.862 6   7717544.577 6  22148549.602    22148553.129
        12.750          14.000
                  -7094221.703 6  -5529919.133 6  22367116.188    22367120.324
        14.750          13.750
 95  4 24 20 21 15.0000000  0  6G 2G 7G 4G26G27G12
                   1369860.242 7   1067078.464 6  21329348.047    21329350.609
        20.750          21.500
                  -3190269.476 6  -2487693.271 6  20273238.055    20273240.414
        17.500          21.250
                  -4932786.742 5  -3861800.370 5  23129751.398    23129756.090
         9.000           9.750
                  -3203423.416 5  -2497999.332 5  23108783.125    23108786.465
         9.750          10.750
                   9950401.775 6   7756054.352 6  22157954.109    22157957.559
        13.000          14.000
                  -7127023.910 6  -5555479.284 6  22360873.977    22360878.328
        14.750          14.000
 95  4 24 20 21 30.0000000  0  6G 2G 7G 4G26G27G12
                   1382554.412 7   1076970.023 6  21331763.766    21331766.367
        20.500          21.750
                  -3179993.338 6  -2479685.889 6  20275193.484    20275195.949
        17.500          21.500
                  -4980327.139 5  -3898844.789 5  23120704.977    23120709.105
         9.250           9.500
                  -3191217.261 5  -2488488.061 5  23111106.039    23111109.258
         9.750          11.000
                   9999901.335 6   7794625.409 6  22167373.656    22167376.992
        13.000          13.750
                  -7159790.518 6  -5581011.696 6  22354638.914    22354643.012
        14.500          13.750
 95  4 24 20 21 45.0000000  0  6G 2G 7G 4G26G27G12
                   1395298.390 7   1086900.389 6  21334188.820    21334191.672
        20.500          21.750
                  -3169616.080 6  -2471599.714 6  20277168.234    20277170.762
        17.500          21.500
                  -5027829.482 5  -3935859.561 5  23111665.523    23111669.457
         9.250           9.250
                  -3178896.054 5  -2478887.136 5  23113450.742    23113454.137
         9.500          10.750
                  10049475.739 6   7833254.784 6  22176807.383    22176810.824
        13.000          13.750
                  -7192522.701 6  -5606517.287 6  22348410.086    22348414.152
        14.750          13.750
 95  4 24 20 22  0.0000000  0  6G 2G 7G 4G26G27G12
                   1408096.309 7   1096872.789 6  21336624.000    21336626.867
        20.250          22.000
                  -3159139.887 6  -2463436.444 6  20279161.844    20279164.336
        17.500          21.500
                  -5075295.544 5  -3972846.061 5  23102633.000    23102637.359
         9.500           9.500
                  -3166458.549 5  -2469195.589 5  23115817.414    23115820.855
         9.500          10.750
                  10099124.742 6   7871942.290 6  22186255.359    22186258.813
        12.750          13.750
                  -7225219.757 6  -5631995.504 6  22342188.000    22342192.129
        15.000          14.000
 95  4 24 20 22 15.0000000  0  6G 2G 7G 4G26G27G12
                   1420950.569 7   1106889.096 6  21339070.055    21339072.938
        20.250          21.750
                  -3148566.396 6  -2455197.359 6  20281173.898    20281176.457
        17.750          21.500
                  -5122725.026 5  -4009804.059 5  23093607.320    23093611.254
         9.250           9.250
                  -3153902.720 5  -2459411.842 5  23118206.852    23118209.672
         9.750          10.500
                  10148852.663 6   7910691.289 6  22195718.156    22195721.496
        12.750          14.000
                  -7257879.826 6  -5657444.899 6  22335973.078    22335976.996
        15.500          14.250
 95  4 24 20 22 30.0000000  0  6G 2G 7G 4G26G27G12
                   1433861.954 7   1116949.910 6  21341527.039    21341529.867
        20.000          21.750
                  -3137894.402 6  -2446881.518 6  20283204.688    20283207.227
        17.750          21.500
                  -5170117.920 5  -4046733.547 5  23084588.922    23084592.699
         9.500           9.750
                  -3141229.868 5  -2449536.909 5  23120618.570    23120621.266
         9.750          10.500
                  10198664.326 6   7949505.546 6  22205197.133    22205200.852
        13.000          14.000
                  -7290501.806 6  -5682864.617 6  22329765.461    22329769.191
        15.500          14.500
 95  4 24 20 22 45.0000000  0  6G 2G 7G 4G26G27G12
                   1446829.953 7   1127054.840 6  21343994.781    21343997.695
        20.000          21.750
                  -3127122.440 6  -2438487.782 6  20285254.461    20285256.805
        17.750          21.500
                  -5217472.582 5  -4083633.240 5  23075577.211    23075582.059
         9.250          10.250
                  -3128440.404 5  -2439571.110 5  23123051.836    23123054.930
         9.500          10.750
                  10248562.953 6   7988387.556 6  22214692.328    22214696.078
        12.750          14.000
                  -7323085.144 6  -5708254.222 6  22323564.719    22323568.887
        15.250          14.750
 95  4 24 20 23  0.0000000  0  6G 2G 7G 4G26G27G12
                   1459853.439 7   1137203.005 6  21346472.977    21346476.004
        20.000          21.750
                  -3116249.859 6  -2430015.639 6  20287323.453    20287325.836
        17.750          21.750
                  -5264789.574 5  -4120503.581 5  23066573.313    23066577.176
         9.250          10.000
                  -3115533.209 5  -2429513.573 5  23125508.477    23125511.402
         9.500          10.750
                  10298550.616 6   8027338.948 6  22224205.023    22224208.523
        12.750          14.000
                  -7355630.710 6  -5733614.389 6  22317371.656    22317375.457
        15.250          14.750
 95  4 24 20 23 15.0000000  0  6G 2G 7G 4G26G27G12
                   1472933.873 7   1147395.552 6  21348962.281    21348965.078
        20.250          22.000
                  -3105276.634 6  -2421465.072 6  20289411.633    20289414.035
        17.750          21.750
                  -5312071.050 5  -4157346.245 5  23057575.813    23057579.957
         9.250          10.500
                  -3102504.679 5  -2419361.482 5  23127987.625    23127990.152
         9.750          10.750
                  10348630.860 6   8066362.487 6  22233734.836    22233737.859
        12.500          13.500
                  -7388138.286 6  -5758944.965 6  22311185.734    22311189.383
        15.250          14.500
 95  4 24 20 23 30.0000000  0  6G 2G 7G 4G26G27G12
                   1486073.223 7   1157634.008 6  21351462.633    21351465.414
        20.250          21.750
                  -3094204.224 6  -2412837.219 6  20291518.625    20291521.180
        17.750          21.750
                  -5359312.584 5  -4194157.785 5  23048585.984    23048590.367
         9.500          10.750
                  -3089353.466 5  -2409113.792 5  23130490.195    23130493.031
         9.500          10.750
                  10398806.696 6   8105460.506 6  22243283.188    22243286.566
        12.250          13.500
                  -7420606.172 6  -5784244.603 6  22305006.922    22305011.121
        15.000          14.500
 95  4 24 20 23 45.0000000  0  6G 2G 7G 4G26G27G12
                   1499271.397 7   1167918.297 6  21353974.133    21353977.047
        20.250          21.750
                  -3083034.742 6  -2404133.727 6  20293644.180    20293646.750
        18.000          22.000
                  -5406515.535 5  -4230939.253 5  23039603.516    23039607.906
         9.500          11.000
                  -3076079.130 5  -2398770.177 5  23133016.289    23133019.195
         9.500          10.750
                  10449074.122 6   8144629.894 6  22252848.656    22252852.035
        12.500          13.250
                  -7453035.109 6  -5809513.894 6  22298836.086    22298840.156
        15.000          14.750
 95  4 24 20 24  0.0000000  0  6G 2G 7G 4G26G27G12
                   1512527.396 7   1178247.643 6  21356496.508    21356499.578
        20.250          22.000
                  -3071764.775 6  -2395351.934 6  20295788.719    20295791.152
        18.000          22.000
                  -5453676.733 5  -4267688.188 5  23030628.945    23030633.469
         9.500          11.000
                  -3062677.423 5  -2388327.302 5  23135566.883    23135569.563
         9.750          10.500
                  10499432.155 6   8183869.893 6  22262431.563    22262434.918
        12.500          13.250
                  -7485424.214 6  -5834752.148 6  22292672.695    22292676.734
        15.250          14.750
 95  4 24 20 24 15.0000000  0  6G 2G 7G 4G26G27G12
                   1525835.986 7   1188617.975 6  21359029.117    21359031.887
        20.250          21.750
                  -3060393.351 6  -2386491.083 6  20297952.555    20297954.906
        18.000          22.000
                  -5500791.506 5  -4304400.960 5  23021663.031    23021667.047
         9.250          10.000
                  -3049147.452 5  -2377784.483 5  23138141.375    23138144.258
         9.750          10.750
                  10549883.190 6   8223182.353 6  22272032.320    22272035.371
        12.750          13.250
                  -7517773.016 6  -5859958.995 6  22286516.852    22286521.043
        15.500          15.250
 95  4 24 20 24 30.0000000  0  6G 2G 7G 4G26G27G12
                   1539192.258 7   1199025.454 6  21361570.711    21361573.586
        20.000          21.750
                  -3048921.240 6  -2377551.775 6  20300135.820    20300138.016
        17.750          21.750
                  -5547858.202 5  -4341076.270 5  23012706.852    23012711.137
         9.500          10.500
                  -3035488.561 5  -2367141.211 5  23140740.641    23140743.563
         9.750          11.000
                  10600424.878 6   8262565.459 6  22281650.070    22281653.363
        12.750          13.250
                  -7550081.910 6  -5885134.753 6  22280368.875    22280372.898
        15.500          15.250
 95  4 24 20 24 45.0000000  0  6G 2G 7G 4G26G27G12
                   1552593.924 7   1209468.308 6  21364120.922    21364123.895
        20.000          22.000
                  -3037346.603 6  -2368532.573 6  20302338.469    20302340.684
        18.000          22.000
                  -5594875.636 5  -4377713.188 5  23003759.453    23003763.102
         9.250           9.750
                  -3021700.414 5  -2356397.210 5  23143364.563    23143367.629
        10.000          11.000
                  10651056.388 6   8302018.549 6  22291284.898    22291288.086
        12.750          13.250
                  -7582349.980 6  -5910278.693 6  22274228.586    22274232.707
        15.250          15.750
 95  4 24 20 25  0.0000000  0  6G 2G 7G 4G26G27G12
                   1566037.782 6   1219944.041 6  21366679.258    21366682.277
        19.750          22.000
                  -3025671.652 6  -2359435.208 6  20304560.102    20304562.461
        17.750          21.750
                  -5641846.148 5  -4414313.548 5  22994821.242    22994825.496
         9.500          10.000
                  -3007783.213 5  -2345552.656 5  23146012.672    23146016.008
        10.000          11.000
                  10701773.879 6   8341538.641 6  22300935.961    22300939.406
        12.250          13.250
                  -7614578.179 6  -5935391.559 6  22268095.336    22268099.703
        14.750          15.750
 95  4 24 20 25 15.0000000  0  6G 2G 7G 4G26G27G12
                   1579520.913 7   1230450.372 6  21369244.977    21369248.164
        20.250          22.250
                  -3013897.171 6  -2350260.286 6  20306800.656    20306803.148
        17.750          22.000
                  -5688772.264 5  -4450879.311 5  22985891.484    22985895.543
         9.750          10.250
                  -2993740.237 5  -2334610.093 5  23148685.125    23148688.125
        10.000          11.000
                  10752573.337 6   8381122.592 6  22310602.938    22310606.359
        12.250          13.500
                  -7646767.544 6  -5960474.167 6  22261969.945    22261974.297
        14.750          15.750
 95  4 24 20 25 30.0000000  0  6G 2G 7G 4G26G27G12
                   1593044.518 7   1240988.242 6  21371818.406    21371821.496
        20.000          22.250
                  -3002022.041 6  -2341006.938 6  20309060.281    20309062.863
        17.500          22.000
                  -5735650.002 5  -4487407.385 5  22976971.195    22976975.121
         9.750          10.250
                  -2979573.110 5  -2323570.791 5  23151381.016    23151384.102
        10.000          11.000
                  10803452.961 6   8420769.015 6  22320284.766    22320288.359
        12.000          13.500
                  -7678915.451 6  -5985524.475 6  22255852.297    22255856.512
        15.250          15.500
 95  4 24 20 25 45.0000000  0  6G 2G 7G 4G26G27G12
                   1606605.704 7   1251555.396 6  21374399.047    21374402.223
        20.000          22.500
                  -2990044.617 6  -2331673.879 6  20311339.531    20311342.129
        17.750          22.000
                  -5782480.987 5  -4523899.019 5  22968059.430    22968063.559
         9.750          10.750
                  -2965283.540 5  -2312436.073 5  23154100.273    23154103.457
        10.000          11.000
                  10854411.375 6   8460476.831 6  22329981.922    22329985.234
        12.250          13.500
                  -7711021.305 6  -6010542.014 6  22249743.016    22249747.078
        15.500          15.500
 95  4 24 20 26  0.0000000  0  6G 2G 7G 4G26G27G12
                   1620203.093 7   1262150.760 6  21376986.328    21376989.406
        20.000          22.250
                  -2977961.103 6  -2322258.152 6  20313638.984    20313641.605
        17.500          22.000
                  -5829268.540 5  -4560356.813 5  22959156.094    22959160.078
        10.000          10.750
                  -2950871.259 5  -2301205.744 5  23156843.016    23156846.145
        10.000          11.000
                  10905447.415 6   8500245.143 6  22339694.008    22339697.211
        12.250          13.500
                  -7743085.966 6  -6035527.457 6  22243641.359    22243645.531
        15.500          15.500
 95  4 24 20 26 15.0000000  0  6G 2G 7G 4G26G27G12
                   1633834.643 7   1272772.742 6  21379580.688    21379583.379
        20.000          22.000
                  -2965773.271 6  -2312761.140 6  20315958.320    20315960.785
        17.500          22.000
                  -5876013.770 5  -4596781.619 5  22950260.383    22950265.113
         9.750          11.000
                  -2936340.414 5  -2289883.023 5  23159608.195    23159610.879
        10.000          10.750
                  10956563.761 6   8540076.021 6  22349420.984    22349424.727
        12.000          13.750
                  -7775110.034 6  -6060481.271 6  22237547.195    22237551.289
        15.500          15.500
 95  4 24 20 26 30.0000000  0  6G 2G 7G 4G26G27G12
                   1647504.505 7   1283424.580 6  21382181.891    21382184.797
        20.000          22.000
                  -2953484.697 6  -2303185.627 6  20318296.805    20318299.223
        17.750          22.000
                  -5922719.215 5  -4633175.432 5  22941373.000    22941376.754
        10.250          10.750
                  -2921693.853 5  -2278470.143 5  23162395.031    23162397.949
         9.750          10.750
                  11007762.525 6   8579971.120 6  22359163.883    22359167.285
        12.000          13.500
                  -7807092.801 6  -6085402.900 6  22231461.000    22231465.125
        15.000          15.500
 95  4 24 20 26 45.0000000  0  6G 2G 7G 4G26G27G12
                   1661212.181 6   1294105.883 6  21384790.258    21384793.402
        19.750          22.000
                  -2941098.404 6  -2293533.968 6  20320653.773    20320656.367
        18.000          22.000
                  -5969388.292 5  -4669540.902 5  22932492.086    22932496.379
        10.000          11.000
                  -2906934.897 5  -2266969.670 5  23165203.594    23165206.656
         9.750          10.750
                  11059041.132 5   8619928.438 6  22368921.766    22368925.531
        11.750          13.750
                  -7839036.295 6  -6110293.923 6  22225382.344    22225386.652
        15.000          15.750
 95  4 24 20 27  0.0000000  0  6G 2G 7G 4G26G27G12
                   1674963.510 6   1304821.203 6  21387407.078    21387410.035
        19.750          22.000
                  -2928609.451 6  -2283802.316 6  20323030.367    20323033.004
        17.750          22.000
                  -6016015.834 5  -4705874.009 5  22923619.328    22923622.797
        10.250          10.500
                  -2892060.940 5  -2255379.587 5  23168033.984    23168036.676
         9.750          10.750
                  11110403.353 6   8659950.905 6  22378695.813    22378699.613
        12.000          13.500
                  -7870937.249 6  -6135151.796 6  22219311.688    22219316.074
        15.000          16.000
 95  4 24 20 27 15.0000000  0  6G 2G 7G 4G26G27G12
                   1688759.569 6   1315571.375 6  21390032.305    21390035.473
        19.500          22.000
                  -2916018.446 6  -2273991.139 6  20325426.305    20325429.008
        17.750          22.000
                  -6062600.295 5  -4742173.544 5  22914754.289    22914758.223
        10.250          10.750
                  -2877075.132 5  -2243702.354 5  23170886.000    23170888.570
         9.750          10.500
                  11161846.826 6   8700036.691 6  22388485.531    22388488.738
        12.000          13.000
                  -7902797.322 6  -6159977.810 6  22213248.922    22213253.180
        15.250          15.500
 95  4 24 20 27 30.0000000  0  6G 2G 7G 4G26G27G12
                   1702604.037 6   1326359.267 6  21392667.008    21392670.004
        19.750          22.250
                  -2903324.435 6  -2264099.704 6  20327841.945    20327844.453
        17.750          22.000
                  -6109136.174 5  -4778435.232 5  22905898.758    22905902.324
        10.500          10.500
                  -2861977.522 5  -2231937.998 5  23173758.727    23173761.633
         9.750          10.500
                  11213374.609 6   8740188.172 6  22398290.531    22398294.234
        12.000          12.750
                  -7934614.481 6  -6184770.395 6  22207194.453    22207198.570
        15.500          15.500
 95  4 24 20 27 45.0000000  0  6G 2G 7G 4G26G27G12
                   1716496.222 6   1337184.341 6  21395310.500    21395313.664
        19.750          22.250
                  -2890532.153 6  -2254131.689 6  20330276.266    20330278.691
        17.750          22.000
                  -6155625.745 5  -4814660.833 5  22897052.422    22897056.160
        10.750          11.000
                  -2846769.547 5  -2220087.648 5  23176652.539    23176655.387
         9.500          10.500
                  11264983.435 6   8780402.807 6  22408111.625    22408114.824
        12.000          12.250
                  -7966392.547 6  -6209532.517 6  22201147.367    22201151.289
        15.750          15.500
 95  4 24 20 28  0.0000000  0  6G 2G 7G 4G26G27G12
                   1730442.127 7   1348051.270 6  21397964.406    21397967.613
        20.000          22.500
                  -2877639.248 6  -2244085.270 6  20332729.758    20332732.070
        17.750          22.000
                  -6202065.171 5  -4850847.349 5  22888215.008    22888219.070
        10.500          11.000
                  -2831448.072 5  -2208148.853 5  23179568.305    23179571.195
         9.500          10.500
                  11316676.755 5   8820683.282 6  22417948.375    22417951.859
        11.750          12.250
                  -7998129.722 6  -6234262.774 6  22195107.859    22195111.840
        15.500          15.250
 95  4 24 20 28 15.0000000  0  6G 2G 7G 4G26G27G12
                   1744445.550 7   1358963.028 6  21400629.227    21400632.309
        20.000          22.250
                  -2864649.342 6  -2233963.263 6  20335201.469    20335203.793
        17.750          22.000
                  -6248449.710 5  -4886991.110 5  22879388.797    22879391.992
        10.750          10.750
                  -2816017.680 5  -2196125.188 5  23182504.570    23182507.438
         9.500          10.500
                  11368455.139 5   8861030.045 6  22427801.609    22427804.809
        11.750          12.000
                  -8029825.433 6  -6258960.723 6  22189076.438    22189080.328
        15.750          15.000
 95  4 24 20 28 30.0000000  0  6G 2G 7G 4G26G27G12
                   1758508.685 7   1369921.315 6  21403305.281    21403308.504
        20.000          22.250
                  -2851563.431 6  -2223766.446 6  20337691.656    20337694.094
        17.750          21.750
                  -6294776.132 5  -4923089.575 5  22870572.867    22870577.117
        10.750          10.750
                  -2800480.194 5  -2184018.069 5  23185461.367    23185464.297
         9.500          10.500
                  11420318.036 5   8901442.657 6  22437670.453    22437674.082
        11.500          12.250
                  -8061478.252 6  -6283625.249 6  22183053.180    22183057.215
        15.750          15.000
 95  4 24 20 28 45.0000000  0  6G 2G 7G 4G26G27G12
                   1772627.836 7   1380923.246 6  21405992.031    21405995.145
        20.000          22.500
                  -2838380.769 6  -2213494.240 6  20340200.094    20340202.586
        17.500          22.000
                  -6341045.693 5  -4959143.740 5  22861767.758    22861771.289
        10.750          10.500
                  -2784836.522 5  -2171828.209 5  23188438.430    23188441.203
         9.750          10.750
                  11472258.621 5   8941915.806 6  22447554.578    22447558.164
        11.500          12.250
                  -8093090.913 6  -6308258.485 6  22177037.406    22177041.508
        15.750          15.250
 95  4 24 20 29  0.0000000  0  6G 2G 7G 4G26G27G12
                   1786804.010 6   1391969.611 6  21408689.703    21408692.855
        19.750          22.250
                  -2825100.109 6  -2203145.672 6  20342727.211    20342729.754
        17.750          22.000
                  -6387257.626 5  -4995153.002 5  22852973.883    22852978.035
        10.750          10.750
                  -2769088.038 5  -2159556.680 5  23191435.242    23191438.105
         9.500          10.750
                  11524273.530 5   8982446.862 6  22457452.789    22457456.754
        11.500          13.000
                  -8124664.036 6  -6332860.910 6  22171029.078    22171033.453
        15.750          15.500
 95  4 24 20 29 15.0000000  0  6G 2G 7G 4G26G27G12
                   1801040.611 6   1403063.061 6  21411398.727    21411401.875
        19.500          22.000
                  -2811721.049 6  -2192720.430 6  20345273.289    20345275.852
        17.500          22.250
                  -6433412.095 5  -5031117.479 5  22844190.891    22844194.879
        10.750          10.500
                  -2753235.964 5  -2147204.435 5  23194451.523    23194454.629
         9.500          10.750
                  11576362.494 5   9023035.622 6  22467365.117    22467368.785
        11.750          13.000
                  -8156196.328 6  -6357431.519 6  22165029.008    22165032.992
        16.250          15.500
 95  4 24 20 29 30.0000000  0  6G 2G 7G 4G26G27G12
                   1815336.284 6   1414202.538 6  21414119.195    21414122.215
        19.500          21.750
                  -2798248.258 6  -2182222.149 6  20347837.109    20347839.695
        17.750          22.250
                  -6479513.247 5  -5067040.411 5  22835418.281    22835421.898
        11.000          10.500
                  -2737280.795 5  -2134771.856 5  23197487.813    23197490.941
         9.250          10.750
                  11628525.579 5   9063682.143 6  22477291.516    22477295.234
        11.750          13.250
                  -8187687.780 6  -6381970.306 6  22159036.258    22159040.074
        16.250          15.250
 95  4 24 20 29 45.0000000  0  6G 2G 7G 4G26G27G12
                   1829692.643 6   1425389.309 6  21416850.922    21416854.094
        19.500          21.750
                  -2784682.200 6  -2171651.194 6  20350418.789    20350421.391
        17.750          22.250
                  -6525562.407 5  -5102922.847 5  22826655.430    22826658.879
        11.000          10.750
                  -2721218.362 5  -2122255.682 5  23200544.625    23200547.684
         9.250          10.750
                  11680762.493 5   9104386.194 6  22487231.734    22487235.910
        11.500          13.250
                  -8219136.290 6  -6406475.631 6  22153051.680    22153055.770
        16.250          15.250
 95  4 24 20 30  0.0000000  0  6G 2G 7G 4G26G27G12
                   1844107.832 6   1436621.918 6  21419594.297    21419597.363
        19.750          21.500
                  -2771024.649 6  -2161008.950 6  20353017.711    20353020.285
        17.750          22.500
                  -6571564.671 5  -5138768.718 5  22817900.883    22817905.605
        10.750          11.250
                  -2705050.502 5  -2109657.365 5  23203621.117    23203624.297
         9.500          10.750
                  11733072.215 5   9145146.973 6  22497186.258    22497189.961
        11.500          13.250
                  -8250542.921 6  -6430948.320 6  22147075.188    22147079.422
        16.000          15.250
 95  4 24 20 30 15.0000000  0  6G 2G 7G 4G26G27G12
                   1858577.085 6   1447896.658 6  21422347.781    21422350.801
        19.750          21.500
                  -2757276.948 6  -2150296.453 6  20355633.734    20355636.309
        17.500          22.250
                  -6617523.164 5  -5174580.489 5  22809155.906    22809159.211
        10.750          10.500
                  -2688780.280 5  -2096979.292 5  23206717.414    23206720.520
         9.500          10.500
                  11785454.818 5   9185964.545 6  22507153.867    22507158.113
        11.250          13.000
                  -8281908.020 6  -6455388.653 6  22141106.758    22141110.578
        16.250          14.750
 95  4 24 20 30 30.0000000  0  6G 2G 7G 4G26G27G12
                   1873096.884 7   1459210.781 6  21425110.695    21425113.695
        20.000          21.500
                  -2743438.509 6  -2139513.257 6  20358267.078    20358269.574
        17.750          22.500
                  -6663439.516 5  -5210359.428 5  22800417.805    22800421.961
        10.750          11.000
                  -2672405.746 5  -2084219.931 5  23209833.250    23209836.512
         9.500          10.500
                  11837909.438 5   9226838.230 6  22517136.016    22517139.676
        11.500          12.750
                  -8313230.445 6  -6479795.734 6  22135146.289    22135150.039
        16.500          15.000
 95  4 24 20 30 45.0000000  0  6G 2G 7G 4G26G27G12
                   1887663.792 7   1470561.612 6  21427882.820    21427885.602
        20.000          21.500
                  -2729506.744 6  -2128657.336 6  20360918.461    20360920.910
        17.750          22.500
                  -6709315.143 5  -5246106.628 5  22791688.367    22791692.027
        11.000          11.000
                  -2655919.410 5  -2071373.451 5  23212970.320    23212973.559
         9.500          10.750
                  11890433.819 5   9267766.284 6  22527130.914    22527134.988
        11.500          12.750
                  -8344509.862 6  -6504169.300 6  22129193.906    22129198.188
        16.750          15.500
 95  4 24 20 31  0.0000000  0  6G 2G 7G 4G26G27G12
                   1902276.896 6   1481948.441 6  21430663.539    21430666.453
        19.750          21.500
                  -2715482.960 6  -2117729.707 6  20363587.055    20363589.484
        17.750          22.500
                  -6755149.054 5  -5281821.325 5  22782966.242    22782969.930
        11.000          11.250
                  -2639320.356 5  -2058439.138 5  23216128.844    23216132.746
         9.250          11.250
                  11943029.601 5   9308749.972 6  22537139.594    22537143.703
        11.500          12.250
                  -8375745.765 6  -6528508.959 6  22123249.961    22123254.219
        16.500          15.750
 95  4 24 20 31 15.0000000  0  6G 2G 7G 4G26G27G12
                   1916934.962 7   1493370.306 6  21433452.727    21433455.727
        20.000          21.250
                  -2701370.271 6  -2106732.808 6  20366272.531    20366274.941
        17.500          22.750
                  -6800942.682 5  -5317504.632 5  22774251.883    22774255.762
        10.750          11.250
                  -2622609.418 5  -2045417.641 5  23219308.922    23219312.914
         9.250          11.250
                  11995697.719 5   9349790.032 6  22547162.234    22547166.133
        11.500          12.500
                  -8406938.262 6  -6552814.793 6  22117314.055    22117318.211
        16.500          15.750
 95  4 24 20 31 30.0000000  0  6G 2G 7G 4G26G27G12
                   1931633.286 6   1504823.541 6  21436249.945    21436252.980
        19.750          21.250
                  -2687168.251 6  -2095666.300 6  20368975.203    20368977.613
        17.250          22.500
                  -6846696.789 5  -5353157.143 5  22765545.133    22765549.348
        10.750          11.750
                  -2605783.701 5  -2032306.709 5  23222510.828    23222514.777
         9.250          11.000
                  12048439.278 5   9390887.310 6  22557198.828    22557202.789
        11.500          12.250
                  -8438087.180 6  -6577086.670 6  22111386.758    22111390.715
        16.500          15.500
 95  4 24 20 31 45.0000000  0  6G 2G 7G 4G26G27G12
                   1946374.417 6   1516310.130 6  21439054.984    21439057.977
        19.500          21.250
                  -2672873.569 6  -2084527.583 6  20371695.313    20371697.930
        17.250          22.750
                  -6892407.033 5  -5388775.470 5  22756846.539    22756850.781
        10.750          11.750
                  -2588837.590 5  -2019101.961 5  23225735.930    23225739.367
         9.250          11.000
                  12101259.575 5   9432045.946 6  22567250.266    22567253.957
        11.500          12.500
                  -8469188.508 6  -6601321.462 6  22105468.406    22105472.301
        16.750          15.500
 95  4 24 20 32  0.0000000  0  6G 2G 7G 4G26G27G12
                   1961160.338 6   1527831.625 6  21441868.648    21441871.523
        19.500          21.250
                  -2658484.398 6  -2073315.244 6  20374433.461    20374436.164
        17.250          22.750
                  -6938070.768 5  -5424357.561 5  22748157.000    22748160.973
        10.750          11.500
                  -2571772.414 5  -2005804.443 5  23228983.250    23228986.652
         9.500          10.750
                  12154158.619 5   9473265.946 6  22577316.367    22577320.578
        11.250          12.500
                  -8500243.114 6  -6625519.852 6  22099559.000    22099562.691
        16.750          15.250
 95  4 24 20 32 15.0000000  0  6G 2G 7G 4G26G27G12
                   1975991.940 6   1539388.710 6  21444690.969    21444694.035
        19.750          21.000
                  -2643999.341 6  -2062028.187 6  20377189.766    20377192.363
        17.000          22.500
                  -6983682.407 5  -5459899.068 5  22739477.195    22739481.586
        10.500          11.750
                  -2554587.603 5  -1992413.701 5  23232253.203    23232256.797
         9.250          10.750
                  12207138.731 5   9514549.112 6  22587398.070    22587402.094
        11.000          12.250
                  -8531248.739 6  -6649680.073 6  22093658.625    22093662.641
        16.750          15.500
 95  4 24 20 32 30.0000000  0  6G 2G 7G 4G26G27G12
                   1990870.693 6   1550982.540 6  21447522.344    21447525.141
        19.750          20.750
                  -2629418.920 6  -2050666.819 6  20379964.313    20379966.871
        17.000          22.500
                  -7029237.230 5  -5495396.280 6  22730808.305    22730812.965
        10.500          12.000
                  -2537281.372 5  -1978928.343 5  23235546.531    23235549.926
         9.000          10.750
                  12260197.761 5   9555893.778 6  22597495.266    22597499.348
        11.250          12.500
                  -8562204.847 6  -6673801.712 6  22087767.953    22087771.941
        16.750          15.750
 95  4 24 20 32 45.0000000  0  6G 2G 7G 4G26G27G12
                   2005799.797 6   1562615.604 6  21450363.133    21450365.809
        19.750          20.750
                  -2614743.113 6  -2039231.125 6  20382756.984    20382759.586
        17.000          22.500
                  -7074730.083 5  -5530845.213 5  22722151.547    22722155.180
        10.500          11.500
                  -2519852.117 5  -1965347.113 5  23238863.313    23238866.566
         9.000          10.750
                  12313334.771 5   9597299.195 6  22607606.883    22607610.785
        11.000          12.250
                  -8593110.163 6  -6697883.767 6  22081886.742    22081890.820
        16.750          16.000
 95  4 24 20 33  0.0000000  0  6G 2G 7G 4G26G27G12
                   2020784.013 6   1574291.611 6  21453214.609    21453217.496
        19.750          20.500
                  -2599972.463 6  -2027721.527 6  20385567.813    20385570.293
        17.250          22.500
                  -7120158.322 5  -5566243.814 5  22713506.586    22713510.688
        10.750          11.750
                  -2502301.420 5  -1951671.260 5  23242203.008    23242206.199
         9.250          10.750
                  12366552.477 5   9638767.503 6  22617733.789    22617737.809
        11.000          12.500
                  -8623962.814 6  -6721924.790 6  22076015.813    22076019.953
        16.750          16.500
 95  4 24 20 33 15.0000000  0  6G 2G 7G 4G26G27G12
                   2035824.546 6   1586011.504 6  21456076.727    21456079.727
        19.750          20.500
                  -2585110.472 6  -2016140.758 6  20388395.930    20388398.410
        17.250          22.500
                  -7165526.672 5  -5601595.732 6  22704873.453    22704877.918
        10.750          12.500
                  -2484636.459 5  -1937906.369 5  23245564.906    23245567.672
         9.250          10.750
                  12419848.683 5   9680296.977 6  22627875.602    22627879.941
        11.000          12.500
                  -8654765.055 6  -6745926.525 6  22070154.117    22070158.496
        16.500          16.500
 95  4 24 20 33 30.0000000  0  6G 2G 7G 4G26G27G12
                   2050924.599 6   1597777.775 6  21458950.250    21458953.105
        19.750          20.500
                  -2570155.326 6  -2004487.394 6  20391241.750    20391244.359
        17.000          22.750
                  -7210834.190 5  -5636900.252 6  22696251.680    22696255.613
        10.750          12.000
                  -2466856.330 5  -1924051.740 5  23248948.266    23248951.215
         9.250          10.500
                  12473224.421 5   9721888.417 6  22638032.867    22638037.102
        11.000          12.750
                  -8685514.748 6  -6769887.313 6  22064302.508    22064306.883
        16.500          16.500
 95  4 24 20 33 45.0000000  0  6G 2G 7G 4G26G27G12
                   2066087.142 6   1609592.740 6  21461835.602    21461838.469
        19.750          20.500
                  -2555108.560 6  -1992762.642 6  20394105.242    20394107.773
        17.250          22.750
                  -7256079.224 5  -5672156.091 6  22687641.625    22687645.652
        10.750          12.000
                  -2448963.762 5  -1910109.500 5  23252352.797    23252355.633
         9.000          10.500
                  12526680.892 5   9763542.769 6  22648205.297    22648209.598
        10.750          12.750
                  -8716212.203 6  -6793807.399 6  22058461.313    22058465.234
        16.750          16.750
 95  4 24 20 34  0.0000000  0  6G 2G 7G 4G26G27G12
                   2081316.397 6   1621459.688 6  21464733.547    21464736.555
        19.750          20.500
                  -2539969.811 6  -1980966.214 6  20396986.117    20396988.465
        17.250          22.750
                  -7301255.993 5  -5707358.728 6  22679044.703    22679049.363
        10.750          12.500
                  -2430960.347 5  -1896080.887 5  23255778.797    23255781.891
         9.000          10.500
                  12580217.207 5   9805259.334 6  22658392.805    22658396.992
        10.750          12.500
                  -8746855.600 6  -6817685.364 6  22052629.961    22052633.961
        16.750          16.500
 95  4 24 20 34 15.0000000  0  6G 2G 7G 4G26G27G12
                   2096612.697 6   1633378.877 6  21467644.352    21467647.145
        19.750          20.250
                  -2524735.179 6  -1969095.071 6  20399885.172    20399887.586
        17.250          22.750
                  -7346360.373 5  -5742504.958 5  22670461.258    22670465.406
        10.250          11.750
                  -2412843.119 5  -1881963.583 5  23259226.680    23259229.730
         9.000          10.750
                  12633831.735 5   9847036.848 6  22668595.398    22668599.469
        11.000          12.250
                  -8777442.195 6  -6841519.071 6  22046809.305    22046813.535
        16.250          16.500
 95  4 24 20 34 30.0000000  0  6G 2G 7G 4G26G27G12
                   2111969.716 7   1645345.382 6  21470566.938    21470569.602
        20.000          20.250
                  -2509405.945 6  -1957150.210 6  20402801.984    20402804.453
        17.250          22.500
                  -7391396.142 5  -5777597.731 6  22661891.258    22661895.680
        10.000          12.000
                  -2394615.745 5  -1867760.450 5  23262695.484    23262698.500
         9.250          11.000
                  12687522.530 5   9888873.791 6  22678812.633    22678816.961
        11.250          12.500
                  -8807974.362 6  -6865310.367 6  22040999.422    22041003.578
        16.500          16.500
 95  4 24 20 34 45.0000000  0  6G 2G 7G 4G26G27G12
                   2127390.616 7   1657361.663 6  21473501.383    21473504.223
        20.000          20.250
                  -2493978.190 6  -1945128.584 6  20405737.922    20405740.379
        17.250          22.750
                  -7436363.472 5  -5812637.168 6  22653334.141    22653338.836
        10.250          12.250
                  -2376276.800 5  -1853470.376 5  23266185.180    23266188.145
         9.250          10.750
                  12741291.714 5   9930771.816 6  22689044.727    22689048.492
        11.500          12.000
                  -8838450.005 6  -6889057.611 6  22035200.055    22035204.230
        16.500          16.750
 95  4 24 20 35  0.0000000  0  6G 2G 7G 4G26G27G12
                   2142871.209 7   1669424.458 6  21476447.203    21476449.957
        20.000          20.250
                  -2478451.062 6  -1933029.521 6  20408692.594    20408695.289
        17.000          23.000
                  -7481267.756 5  -5847627.484 6  22644789.406    22644793.664
        10.500          12.250
                  -2357826.668 5  -1839093.667 5  23269696.000    23269699.301
         9.250          10.500
                  12795138.472 5   9972730.292 5  22699291.211    22699295.367
        11.500          11.750
                  -8868870.517 6  -6912761.894 6  22029411.320    22029415.492
        16.500          17.250
 95  4 24 20 35 15.0000000  0  6G 2G 7G 4G26G27G12
                   2158413.784 6   1681535.553 6  21479404.609    21479407.434
        19.750          20.000
                  -2462819.574 6  -1920849.141 6  20411667.141    20411669.809
        17.000          23.000
                  -7526110.252 5  -5882569.653 6  22636256.219    22636260.313
        10.750          12.500
                  -2339263.184 5  -1824628.635 5  23273228.164    23273231.395
         9.000          10.250
                  12849066.084 5  10014751.770 5  22709553.586    22709557.422
        11.500          11.750
                  -8899233.441 6  -6936421.310 6  22023633.586    22023637.738
        16.750          17.750
 95  4 24 20 35 30.0000000  0  6G 2G 7G 4G26G27G12
                   2174018.461 6   1693695.035 6  21482374.383    21482377.066
        19.750          20.000
                  -2447079.028 6  -1908583.782 6  20414662.336    20414665.090
        17.000          23.000
                  -7570887.309 5  -5917460.832 6  22627735.477    22627739.723
        11.000          12.500
                  -2320581.817 5  -1810071.742 5  23276783.313    23276786.477
         9.000          10.000
                  12903078.195 5  10056839.093 5  22719831.664    22719835.453
        11.000          11.500
                  -8929536.264 6  -6960033.892 6  22017867.133    22017871.496
        16.750          17.750
 95  4 24 20 35 45.0000000  0  6G 2G 7G 4G26G27G12
                   2189682.949 6   1705901.126 6  21485355.109    21485357.855
        19.500          19.750
                  -2431231.025 6  -1896234.687 6  20417678.281    20417680.863
        17.000          23.000
                  -7615596.360 5  -5952299.017 6  22619227.469    22619231.605
        11.000          12.500
                  -2301779.931 5  -1795420.941 5  23280361.281    23280364.570
         9.250          10.000
                  12957173.505 5  10098991.234 5  22730125.555    22730129.605
        10.750          11.500
                  -8959779.863 6  -6983600.323 6  22012111.844    22012116.219
        16.750          18.000
 95  4 24 20 36  0.0000000  0  7G 2G 7G 4G 9G26G27G12
                   2205404.130 6   1718151.392 6  21488346.875    21488349.797
        19.750          20.000
                  -2415274.832 6  -1883801.290 6  20420714.750    20420717.180
        17.000          23.000
                  -7660235.718 5  -5987082.899 6  22610733.258    22610737.465
        11.250          12.750
                    -15120.374 2    -28286.75114  23842977.711    23842980.234
         4.500           3.750
                  -2282856.214 5  -1780675.212 5  23283962.445    23283965.535
         9.500          10.000
                  13011349.839 5  10141206.524 5  22740434.938    22740438.828
        10.500          11.250
                  -8989964.679 6  -7007120.949 6  22006367.703    22006372.223
        16.500          17.750
 95  4 24 20 36 15.0000000  0  7G 2G 7G 4G 9G26G27G12
                   2221179.080 7   1730443.559 6  21491348.781    21491351.535
        20.000          19.750
                  -2399207.840 6  -1871281.556 6  20423772.273    20423774.594
        17.000          23.000
                  -7704806.791 5  -6021813.568 6  22602251.602    22602255.465
        11.000          12.500
                    -60458.798 2    -63615.396 4  23834350.227    23834352.563
         4.500           4.000
                  -2263809.779 5  -1765833.851 5  23287586.680    23287590.281
         9.250          10.500
                  13065604.358 5  10183482.729 5  22750759.273    22750763.336
        10.250          11.250
                  -9020090.397 6  -7030595.523 6  22000634.883    22000639.348
        16.000          17.500
 95  4 24 20 36 30.0000000  0  7G 2G 7G 4G 9G26G27G12
                   2237009.200 6   1742778.710 6  21494361.094    21494363.875
        19.750          19.750
                  -2383028.957 6  -1858674.632 6  20426850.969    20426853.273
        17.000          23.000
                  -7749311.587 5  -6056492.601 6  22593782.594    22593786.586
        11.250          12.500
                   -105749.059 2    -98906.491 5  23825731.359    23825734.902
         4.750           4.500
                  -2244638.584 5  -1750895.277 5  23291234.914    23291238.563
         9.000          10.500
                  13119942.361 5  10225823.979 5  22761099.508    22761103.387
         9.750          11.000
                  -9050154.702 6  -7054022.247 6  21994913.727    21994918.223
        16.250          17.500
 95  4 24 20 36 45.0000000  0  7G 2G 7G 4G 9G26G27G12
                   2252896.213 7   1755158.194 6  21497384.398    21497387.070
        20.000          19.500
                  -2366740.564 6  -1845982.378 6  20429950.578    20429952.914
        17.000          23.250
                  -7793752.002 5  -6091121.462 6  22585325.781    22585329.699
        11.250          12.500
                   -150990.574 2   -134159.587 5  23817122.391    23817126.129
         4.500           4.750
                  -2225344.144 5  -1735860.658 5  23294906.398    23294909.965
         9.000          10.500
                  13174364.222 5  10268230.579 5  22771455.563    22771459.238
        10.000          10.750
                  -9080157.892 6  -7077401.352 6  21989204.594    21989208.852
        16.750          17.750
 95  4 24 20 37  0.0000000  0  7G 2G 7G 4G 9G26G27G12
                   2268842.767 7   1767584.078 6  21500418.875    21500421.543
        20.000          19.500
                  -2350342.451 6  -1833204.627 6  20433070.773    20433073.172
        17.000          23.250
                  -7838124.731 5  -6125697.576 6  22576881.820    22576885.578
        11.250          12.500
                   -196182.446 2   -169373.999 5  23808523.031    23808526.328
         4.750           5.000
                  -2205922.986 5  -1720727.308 5  23298602.609    23298605.816
         9.250          10.250
                  13228869.502 5  10310702.176 5  22781827.430    22781831.813
        10.000          11.500
                  -9110097.204 6  -7100730.680 6  21983507.469    21983511.664
        17.000          18.000
 95  4 24 20 37 15.0000000  0  7G 2G 7G 4G 9G26G27G12
                   2284847.657 6   1780055.420 6  21503464.383    21503467.160
        19.750          19.500
                  -2333840.713 6  -1820346.129 6  20436211.008    20436213.582
        16.750          23.250
                  -7882429.822 5  -6160220.987 6  22568450.922    22568455.266
        11.250          12.750
                   -241324.892 3   -204549.909 5  23799933.047    23799935.887
         5.250           5.000
                  -2186381.082 5  -1705499.877 5  23302321.438    23302324.406
         9.250          10.000
                  13283455.025 5  10353236.306 5  22792215.164    22792218.633
        10.250          11.000
                  -9139975.406 6  -7124012.387 6  21977821.859    21977826.117
        17.000          18.250
 95  4 24 20 37 30.0000000  0  7G 2G 7G 4G 9G26G27G12
                   2300913.158 6   1792573.987 6  21506521.484    21506524.234
        19.750          19.250
                  -2317239.325 6  -1807409.983 6  20439370.266    20439372.734
        17.000          23.500
                  -7926663.646 5  -6194688.866 6  22560033.844    22560037.316
        11.750          12.500
                   -286415.828 3   -239685.693 5  23791352.070    23791355.016
         5.500           5.250
                  -2166721.099 5  -1690180.433 5  23306062.555    23306065.516
         9.500          10.250
                  13338120.012 5  10395832.352 5  22802617.500    22802621.219
        10.250          11.000
                  -9169792.274 6  -7147246.300 6  21972147.688    21972151.992
        16.750          18.000
 95  4 24 20 37 45.0000000  0  7G 2G 7G 4G 9G26G27G12
                   2317038.298 6   1805139.029 6  21509590.180    21509592.730
        19.750          19.250
                  -2300541.137 6  -1794398.408 6  20442547.781    20442550.344
        17.000          23.500
                  -7970824.732 5  -6229100.072 6  22551630.016    22551633.621
        11.750          12.500
                   -331458.072 3   -274783.531 5  23782780.727    23782783.707
         5.500           5.500
                  -2146946.620 5  -1674771.765 5  23309825.508    23309828.586
         9.250          10.250
                  13392861.602 5  10438488.090 5  22813034.570    22813038.512
        10.250          11.000
                  -9199548.188 6  -7170432.718 6  21966485.266    21966489.496
        16.500          18.000
 95  4 24 20 38  0.0000000  0  7G 2G 7G 4G 9G26G27G12
                   2333225.600 6   1817752.503 6  21512670.258    21512673.082
        19.250          19.000
                  -2283746.107 6  -1781311.371 6  20445743.516    20445746.145
        17.000          23.500
                  -8014912.798 6  -6263454.369 6  22543240.758    22543244.086
        12.000          12.500
                   -376445.680 3   -309838.794 5  23774219.656    23774223.168
         5.500           5.500
                  -2127060.370 5  -1659276.003 5  23313609.820    23313612.891
         9.250          10.500
                  13447679.209 5  10481203.064 5  22823466.016    22823470.180
        10.500          11.000
                  -9229241.967 6  -7193570.720 6  21960834.766    21960838.875
        16.500          17.500
 95  4 24 20 38 15.0000000  0  7G 2G 7G 4G 9G26G27G12
                   2349476.323 6   1830415.398 6  21515762.953    21515765.590
        19.500          19.000
                  -2266855.022 6  -1768149.488 6  20448958.078    20448960.691
        17.000          23.750
                  -8058929.173 6  -6297752.809 6  22534864.430    22534868.137
        12.000          12.750
                   -421375.357 3   -344848.900 5  23765669.297    23765673.012
         5.750           5.750
                  -2107066.381 5  -1643696.277 5  23317414.508    23317417.500
         9.250          10.500
                  13502573.714 5  10523977.949 5  22833912.203    22833915.949
        10.500          10.750
                  -9258873.590 6  -7216660.286 6  21955196.117    21955200.203
        17.000          17.500
 95  4 24 20 38 30.0000000  0  7G 2G 7G 4G 9G26G27G12
                   2365794.705 6   1843131.019 6  21518868.164    21518870.891
        19.500          19.000
                  -2249870.554 6  -1754914.840 6  20452190.133    20452192.617
        17.000          23.750
                  -8102872.957 6  -6331994.684 6  22526502.383    22526505.457
        12.250          12.750
                   -466244.076 3   -379811.527 5  23757131.352    23757134.805
         5.750           5.750
                  -2086966.750 5  -1628034.238 5  23321239.203    23321242.344
         9.000          10.250
                  13557547.380 5  10566814.522 5  22844373.313    22844376.797
        10.250          10.250
                  -9288442.054 6  -7239700.644 6  21949569.625    21949573.293
        17.250          17.500
 95  4 24 20 38 45.0000000  0  7G 2G 7G 4G 9G26G27G12
                   2382182.945 6   1855901.068 6  21521986.633    21521989.441
        19.500          19.000
                  -2232795.039 6  -1741609.244 6  20455439.617    20455442.094
        17.250          23.750
                  -8146741.910 6  -6366178.246 6  22518154.031    22518157.871
        12.250          13.000
                   -511050.047 3   -414725.252 5  23748605.039    23748608.504
         5.750           5.750
                  -2066761.497 5  -1612289.907 5  23325084.086    23325087.035
         9.000          10.250
                  13612598.168 5  10609711.201 5  22854849.156    22854852.504
        10.250          10.000
                  -9317947.427 6  -7262691.839 6  21943954.805    21943958.746
        17.250          17.500
 95  4 24 20 39  0.0000000  0  7G 2G 7G 4G 9G26G27G12
                   2398641.592 6   1868725.984 6  21525118.773    21525121.473
        19.750          19.000
                  -2215630.677 6  -1728234.417 6  20458705.719    20458708.273
        17.000          23.750
                  -8190533.062 6  -6400301.184 6  22509821.305    22509824.457
        12.750          12.750
                   -555796.555 3   -449592.645 5  23740090.375    23740093.637
         6.000           6.000
                  -2046453.762 5  -1596465.721 5  23328948.195    23328951.484
         8.750          10.250
                  13667723.068 5  10652665.626 5  22865339.031    22865342.793
        10.000          10.250
                  -9347389.873 6  -7285633.998 6  21938352.094    21938356.145
        17.250          17.750
 95  4 24 20 39 15.0000000  0  7G 2G 7G 4G 9G26G27G12
                   2415169.138 7   1881604.585 6  21528264.023    21528266.785
        20.000          19.000
                  -2198380.175 6  -1714792.468 6  20461988.398    20461990.887
        17.250          23.500
                  -8234245.462 6  -6434362.758 6  22501503.016    22501506.172
        12.500          12.750
                   -600485.846 4   -484415.453 5  23731586.320    23731589.820
         6.250           6.250
                  -2026045.636 5  -1580563.309 5  23332831.508    23332835.137
         8.500          10.500
                  13722923.097 5  10695678.583 5  22875843.125    22875846.848
         9.500           9.750
                  -9376770.519 6  -7308527.996 6  21932761.031    21932765.051
        17.250          17.750
